[[{"header":{"parameterUnit":"m.s-1","parameterCategory":1,"la1":31.0,"la2":29.5877,"lo1":-88.7671,"lo2":-86.6584,"dy":0.0162,"dx":0.0185,"nx":115,"ny":88,"refTime":"2024-09-20T12:00:00:Z","depth":0,"parameterNumber":2,"parameterNumberName":"U-component_of_WINDS"},"data":[0.0,0.0,0.0,0.0,0.0,0.0,0.0,0.0,0.0,0.0,0.0,0.0,0.0,0.0,0.0,0.0,0.0,0.0,0.0,0.0,0.0,0.0,0.0,0.0,0.0,0.0,0.0,0.0,0.0,0.0,0.0,0.0,0.0,0.0,0.0,0.0,0.0,0.0,0.0,0.0,0.0,0.0,0.0,0.0,0.0,0.0,0.0,0.0,0.0,0.0,0.0,0.0,0.0,0.0,0.0,0.0,0.0,0.0,0.0,0.0,0.0,0.0,0.0,0.0,0.0,0.0,0.0,0.0,0.0,0.0,0.0,0.0,0.0,0.0,0.0,0.0,0.0,0.0,0.0,0.0,0.0,0.0,0.0,0.0,0.0,0.0,0.0,0.0,0.0,0.0,0.0,0.0,0.0,0.0,0.0,0.0,0.0,0.0,0.0,0.0,0.0,0.0,0.0,0.0,0.0,0.0,0.0,0.0,0.0,0.0,0.0,0.0,0.0,0.0,0.0,0.0,0.0,0.0,0.0,0.0,0.0,0.0,0.0,0.0,0.0,0.0,0.0,0.0,0.0,0.0,0.0,0.0,0.0,0.0,0.0,0.0,0.0,0.0,0.0,0.0,0.0,0.0,0.0,0.0,0.0,0.0,0.0,0.0,0.0,0.0,0.0,0.0,0.0,0.0,0.0,0.0,0.0,0.0,0.0,0.0,0.0,0.0,0.0,0.0,0.0,0.0,0.0,0.0,0.0,0.0,0.0,0.0,0.0,0.0,0.0,0.0,0.0,0.0,0.0,0.0,0.0,0.0,0.0,0.0,0.0,0.0,0.0,0.0,0.0,0.0,0.0,0.0,0.0,0.0,0.0,0.0,0.0,0.0,0.0,0.0,0.0,0.0,0.0,0.0,0.0,0.0,0.0,0.0,0.0,0.0,0.0,0.0,0.0,0.0,0.0,0.0,0.0,0.0,0.0,0.0,0.0,0.0,0.0,0.0,0.0,0.0,0.0,0.0,0.0,0.0,0.0,0.0,0.0,0.0,0.0,0.0,0.0,0.0,0.0,0.0,0.0,0.0,0.0,0.0,0.0,0.0,0.0,0.0,0.0,0.0,0.0,0.0,0.0,0.0,0.0,0.0,0.0,0.0,0.0,0.0,0.0,0.0,0.0,0.0,0.0,0.0,0.0,0.0,0.0,0.0,0.0,0.0,0.0,0.0,0.0,0.0,0.0,0.0,0.0,0.0,0.0,0.0,0.0,0.0,0.0,0.0,0.0,0.0,0.0,0.0,0.0,0.0,0.0,0.0,0.0,0.0,0.0,0.0,0.0,0.0,0.0,0.0,0.0,0.0,0.0,0.0,0.0,0.0,0.0,0.0,0.0,0.0,0.0,0.0,0.0,0.0,0.0,0.0,0.0,0.0,0.0,0.0,0.0,0.0,0.0,0.0,0.0,0.0,0.0,0.0,0.0,0.0,0.0,0.0,0.0,0.0,0.0,0.0,0.0,0.0,0.0,0.0,0.0,0.0,0.0,0.0,0.0,0.0,0.0,0.0,0.0,0.0,0.0,0.0,0.0,0.0,0.0,0.0,0.0,0.0,0.0,0.0,0.0,0.0,0.0,0.0,0.0,0.0,0.0,0.0,0.0,0.0,0.0,0.0,0.0,0.0,0.0,0.0,0.0,0.0,0.0,0.0,0.0,0.0,0.0,0.0,0.0,0.0,0.0,0.0,0.0,0.0,0.0,0.0,0.0,0.0,0.0,0.0,0.0,0.0,0.0,0.0,0.0,0.0,0.0,0.0,0.0,0.0,0.0,0.0,0.0,0.0,0.0,0.0,0.0,0.0,0.0,0.0,0.0,0.0,0.0,0.0,0.0,0.0,0.0,0.0,0.0,0.0,0.0,0.0,0.0,0.0,0.0,0.0,0.0,0.0,0.0,0.0,0.0,0.0,0.0,0.0,0.0,0.0,0.0,0.0,0.0,0.0,0.0,0.0,0.0,0.0,0.0,0.0,0.0,0.0,0.0,0.0,0.0,0.0,0.0,0.0,0.0,0.0,0.0,0.0,0.0,0.0,0.0,0.0,0.0,0.0,0.0,0.0,0.0,0.0,0.0,0.0,0.0,0.0,0.0,0.0,0.0,0.0,0.0,0.0,0.0,0.0,0.0,0.0,0.0,0.0,0.0,0.0,0.0,0.0,0.0,0.0,0.0,0.0,0.0,0.0,0.0,0.0,0.0,0.0,0.0,0.0,0.0,0.0,0.0,0.0,0.0,0.0,0.0,0.0,0.0,0.0,0.0,0.0,0.0,0.0,0.0,0.0,0.0,0.0,0.0,0.0,0.0,0.0,0.0,0.0,0.0,0.0,0.0,0.0,0.0,0.0,0.0,0.0,0.0,0.0,0.0,0.0,0.0,0.0,0.0,0.0,0.0,0.0,0.0,0.0,0.0,0.0,0.0,0.0,0.0,0.0,0.0,0.0,0.0,0.0,0.0,0.0,0.0,0.0,0.0,0.0,0.0,0.0,0.0,0.0,0.0,0.0,0.0,0.0,0.0,0.0,0.0,0.0,0.0,0.0,0.0,0.0,0.0,0.0,0.0,0.0,0.0,0.0,0.0,0.0,0.0,0.0,0.0,0.0,0.0,0.0,0.0,0.0,0.0,0.0,0.0,0.0,0.0,0.0,0.0,0.0,0.0,0.0,0.0,0.0,0.0,0.0,0.0,0.0,0.0,0.0,0.0,0.0,0.0,0.0,0.0,0.0,0.0,0.0,0.0,0.0,0.0,0.0,0.0,0.0,0.0,0.0,0.0,0.0,0.0,0.0,0.0,0.0,0.0,0.0,0.0,0.0,0.0,0.0,0.0,0.0,0.0,0.0,0.0,0.0,0.0,0.0,0.0,0.0,0.0,0.0,0.0,0.0,0.0,0.0,0.0,0.0,0.0,0.0,0.0,0.0,0.0,0.0,0.0,0.0,0.0,0.0,0.0,0.0,0.0,0.0,0.0,0.0,0.0,0.0,0.0,0.0,0.0,0.0,0.0,0.0,0.0,0.0,0.0,0.0,0.0,0.0,0.0,0.0,0.0,0.0,0.0,0.0,0.0,0.0,0.0,0.0,0.0,0.0,0.0,0.0,0.0,0.0,0.0,0.0,0.0,0.0,0.0,0.0,0.0,0.0,0.0,0.0,0.0,0.0,0.0,0.0,0.0,0.0,0.0,0.0,0.0,0.0,0.0,0.0,0.0,0.0,0.0,0.0,0.0,0.0,0.0,0.0,0.0,0.0,0.0,0.0,0.0,0.0,0.0,0.0,0.0,0.0,0.0,0.0,0.0,0.0,0.0,0.0,0.0,0.0,0.0,0.0,0.0,0.0,0.0,0.0,0.0,0.0,0.0,0.0,0.0,0.0,0.0,0.0,0.0,0.0,0.0,0.0,0.0,0.0,0.0,0.0,0.0,0.0,0.0,0.0,0.0,0.0,0.0,0.0,0.0,0.0,0.0,0.0,0.0,0.0,0.0,0.0,0.0,0.0,0.0,0.0,0.0,0.0,0.0,0.0,0.0,0.0,0.0,0.0,0.0,0.0,0.0,0.0,0.0,0.0,0.0,0.0,0.0,0.0,0.0,0.0,0.0,0.0,0.0,0.0,0.0,0.0,0.0,0.0,0.0,0.0,0.0,0.0,0.0,0.0,0.0,0.0,0.0,0.0,0.0,0.0,0.0,0.0,0.0,0.0,0.0,0.0,0.0,0.0,0.0,0.0,0.0,0.0,0.0,0.0,0.0,0.0,0.0,0.0,0.0,0.0,0.0,0.0,0.0,0.0,0.0,0.0,0.0,0.0,0.0,0.0,0.0,0.0,0.0,0.0,0.0,0.0,0.0,0.0,0.0,0.0,0.0,0.0,0.0,0.0,0.0,0.0,0.0,0.0,0.0,0.0,0.0,0.0,0.0,0.0,0.0,0.0,0.0,0.0,0.0,0.0,0.0,0.0,0.0,0.0,0.0,0.0,0.0,0.0,0.0,0.0,0.0,0.0,0.0,0.0,0.0,0.0,0.0,0.0,0.0,0.0,0.0,0.0,0.0,0.0,0.0,0.0,0.0,0.0,0.0,0.0,0.0,0.0,0.0,0.0,0.0,0.0,0.0,0.0,0.0,0.0,0.0,0.0,0.0,0.0,0.0,0.0,0.0,0.0,0.0,0.0,0.0,0.0,0.0,0.0,0.0,0.0,0.0,0.0,0.0,0.0,0.0,0.0,0.0,0.0,0.0,0.0,-2.47,0.0,0.0,0.0,0.0,0.0,0.0,0.0,0.0,0.0,0.0,0.0,0.0,0.0,0.0,0.0,0.0,0.0,0.0,0.0,0.0,0.0,0.0,0.0,0.0,0.0,0.0,0.0,0.0,0.0,0.0,0.0,0.0,0.0,0.0,0.0,0.0,0.0,0.0,0.0,0.0,0.0,0.0,0.0,0.0,0.0,0.0,0.0,0.0,0.0,0.0,0.0,0.0,0.0,0.0,0.0,0.0,0.0,0.0,0.0,0.0,0.0,0.0,0.0,0.0,0.0,0.0,0.0,0.0,0.0,0.0,0.0,0.0,0.0,0.0,0.0,0.0,0.0,0.0,0.0,0.0,0.0,0.0,0.0,0.0,0.0,0.0,0.0,0.0,0.0,0.0,0.0,0.0,0.0,0.0,0.0,0.0,0.0,0.0,0.0,0.0,0.0,0.0,0.0,0.0,0.0,0.0,0.0,0.0,0.0,0.0,-2.7377,-2.7092,-2.7435,-2.6759,-2.4986,0.0,0.0,0.0,0.0,0.0,0.0,0.0,0.0,0.0,0.0,0.0,0.0,0.0,0.0,0.0,0.0,0.0,0.0,0.0,0.0,0.0,0.0,0.0,0.0,0.0,0.0,0.0,0.0,0.0,0.0,0.0,0.0,0.0,0.0,0.0,0.0,0.0,0.0,0.0,0.0,0.0,0.0,0.0,0.0,0.0,0.0,0.0,0.0,0.0,0.0,0.0,0.0,0.0,0.0,0.0,0.0,0.0,0.0,0.0,0.0,0.0,0.0,0.0,0.0,0.0,0.0,0.0,0.0,0.0,0.0,0.0,0.0,0.0,0.0,0.0,0.0,0.0,0.0,0.0,0.0,0.0,0.0,0.0,0.0,0.0,0.0,0.0,0.0,0.0,0.0,0.0,0.0,0.0,0.0,0.0,0.0,0.0,0.0,0.0,0.0,0.0,0.0,0.0,0.0,0.0,0.0,0.0,0.0,0.0,0.0,0.0,0.0,-2.8685,-2.7855,-2.5567,0.0,0.0,0.0,0.0,0.0,0.0,0.0,0.0,0.0,0.0,0.0,0.0,0.0,0.0,0.0,0.0,0.0,0.0,0.0,0.0,0.0,0.0,0.0,0.0,0.0,0.0,0.0,0.0,0.0,0.0,0.0,0.0,0.0,0.0,0.0,0.0,0.0,0.0,0.0,0.0,0.0,0.0,0.0,0.0,0.0,0.0,0.0,0.0,0.0,0.0,0.0,0.0,0.0,0.0,0.0,0.0,0.0,0.0,0.0,0.0,0.0,0.0,0.0,0.0,0.0,0.0,0.0,0.0,0.0,0.0,0.0,0.0,0.0,0.0,0.0,0.0,0.0,0.0,0.0,0.0,0.0,0.0,0.0,0.0,0.0,0.0,0.0,0.0,0.0,0.0,0.0,0.0,0.0,0.0,0.0,0.0,0.0,0.0,0.0,0.0,0.0,0.0,0.0,0.0,0.0,0.0,0.0,0.0,0.0,0.0,-2.8944,-3.1044,-3.1143,0.0,-2.71,0.0,0.0,0.0,0.0,0.0,0.0,0.0,0.0,0.0,0.0,0.0,0.0,0.0,0.0,0.0,0.0,0.0,0.0,0.0,0.0,0.0,0.0,0.0,0.0,0.0,0.0,0.0,0.0,0.0,0.0,0.0,0.0,0.0,0.0,0.0,0.0,0.0,0.0,0.0,0.0,0.0,0.0,0.0,0.0,0.0,0.0,0.0,0.0,0.0,0.0,0.0,0.0,0.0,0.0,0.0,0.0,0.0,0.0,0.0,0.0,0.0,0.0,0.0,0.0,0.0,0.0,0.0,0.0,0.0,0.0,0.0,0.0,0.0,0.0,0.0,0.0,0.0,0.0,0.0,0.0,0.0,0.0,0.0,0.0,0.0,0.0,0.0,0.0,0.0,0.0,0.0,0.0,0.0,0.0,0.0,0.0,0.0,0.0,0.0,0.0,0.0,0.0,0.0,0.0,0.0,0.0,0.0,0.0,0.0,0.0,0.0,-3.0889,-3.0084,-2.8841,0.0,0.0,0.0,0.0,0.0,0.0,0.0,0.0,0.0,0.0,0.0,0.0,0.0,0.0,0.0,0.0,0.0,0.0,0.0,0.0,0.0,0.0,0.0,0.0,0.0,0.0,0.0,0.0,0.0,0.0,0.0,0.0,0.0,0.0,0.0,0.0,0.0,0.0,0.0,0.0,0.0,0.0,0.0,0.0,0.0,0.0,0.0,0.0,0.0,0.0,0.0,0.0,0.0,0.0,0.0,0.0,0.0,0.0,0.0,0.0,0.0,0.0,0.0,0.0,0.0,0.0,0.0,0.0,0.0,0.0,0.0,0.0,0.0,0.0,0.0,0.0,0.0,0.0,0.0,0.0,0.0,0.0,0.0,0.0,0.0,0.0,0.0,0.0,0.0,0.0,0.0,0.0,0.0,0.0,0.0,0.0,0.0,0.0,0.0,0.0,0.0,0.0,0.0,0.0,0.0,0.0,0.0,0.0,0.0,0.0,-2.9321,0.0,-3.13,-3.0385,-2.8993,-2.7203,0.0,0.0,0.0,0.0,0.0,0.0,0.0,0.0,0.0,0.0,0.0,0.0,0.0,0.0,0.0,0.0,0.0,0.0,0.0,0.0,0.0,0.0,0.0,0.0,0.0,0.0,0.0,0.0,0.0,0.0,0.0,0.0,0.0,0.0,0.0,0.0,0.0,0.0,0.0,0.0,0.0,0.0,0.0,0.0,0.0,0.0,0.0,0.0,0.0,0.0,0.0,0.0,0.0,0.0,0.0,0.0,0.0,0.0,0.0,0.0,0.0,0.0,0.0,0.0,0.0,0.0,0.0,0.0,0.0,0.0,0.0,0.0,0.0,0.0,0.0,0.0,0.0,0.0,0.0,0.0,0.0,0.0,0.0,0.0,0.0,0.0,0.0,0.0,0.0,0.0,0.0,0.0,0.0,0.0,0.0,0.0,0.0,0.0,0.0,0.0,0.0,0.0,0.0,0.0,0.0,0.0,0.0,0.0,0.0,-3.0827,-3.1309,-3.3541,-3.3452,-3.1435,0.0,0.0,0.0,0.0,0.0,0.0,0.0,0.0,0.0,0.0,0.0,0.0,0.0,0.0,0.0,0.0,0.0,0.0,0.0,0.0,0.0,0.0,0.0,0.0,0.0,0.0,0.0,0.0,0.0,0.0,0.0,0.0,0.0,0.0,0.0,0.0,0.0,0.0,0.0,0.0,0.0,0.0,0.0,0.0,0.0,0.0,0.0,0.0,0.0,0.0,0.0,0.0,0.0,0.0,0.0,0.0,0.0,0.0,0.0,0.0,0.0,0.0,0.0,0.0,0.0,0.0,0.0,0.0,0.0,0.0,0.0,0.0,0.0,0.0,0.0,0.0,0.0,0.0,0.0,0.0,0.0,0.0,0.0,0.0,0.0,0.0,0.0,0.0,0.0,0.0,0.0,0.0,0.0,0.0,0.0,0.0,0.0,0.0,0.0,0.0,0.0,0.0,0.0,0.0,0.0,0.0,0.0,0.0,0.0,-2.8194,-2.9634,-3.1929,-3.4949,-3.2023,-2.9736,0.0,0.0,0.0,0.0,0.0,0.0,0.0,0.0,0.0,0.0,0.0,0.0,0.0,0.0,0.0,0.0,0.0,0.0,0.0,0.0,0.0,0.0,0.0,0.0,0.0,0.0,0.0,0.0,0.0,0.0,0.0,0.0,0.0,0.0,0.0,0.0,0.0,0.0,0.0,0.0,0.0,0.0,0.0,0.0,0.0,0.0,0.0,0.0,0.0,0.0,0.0,0.0,0.0,0.0,0.0,0.0,0.0,0.0,0.0,0.0,0.0,0.0,0.0,0.0,0.0,0.0,0.0,0.0,0.0,0.0,0.0,0.0,0.0,0.0,0.0,0.0,0.0,0.0,0.0,0.0,0.0,0.0,0.0,0.0,0.0,0.0,0.0,0.0,0.0,0.0,0.0,0.0,0.0,0.0,0.0,0.0,0.0,0.0,0.0,0.0,0.0,0.0,0.0,0.0,0.0,0.0,0.0,0.0,0.0,-2.7669,0.0,-3.2728,0.0,-3.1272,-2.8867,0.0,0.0,0.0,0.0,0.0,0.0,0.0,0.0,0.0,0.0,0.0,0.0,0.0,0.0,0.0,0.0,0.0,0.0,0.0,0.0,0.0,0.0,0.0,0.0,0.0,0.0,0.0,0.0,0.0,0.0,0.0,0.0,0.0,0.0,0.0,0.0,0.0,0.0,0.0,0.0,0.0,0.0,0.0,0.0,0.0,0.0,0.0,0.0,0.0,0.0,0.0,0.0,0.0,0.0,0.0,0.0,0.0,0.0,0.0,0.0,0.0,0.0,0.0,0.0,0.0,0.0,0.0,0.0,0.0,0.0,0.0,0.0,0.0,0.0,0.0,0.0,0.0,0.0,0.0,0.0,0.0,0.0,0.0,0.0,0.0,0.0,0.0,0.0,0.0,0.0,0.0,0.0,0.0,0.0,0.0,0.0,0.0,0.0,0.0,0.0,0.0,0.0,0.0,0.0,0.0,0.0,0.0,0.0,-2.7505,-3.109,-3.335,-3.3608,-3.178,-3.1532,-2.9165,0.0,0.0,0.0,0.0,0.0,0.0,0.0,0.0,0.0,0.0,0.0,0.0,0.0,0.0,0.0,0.0,0.0,0.0,0.0,0.0,0.0,0.0,0.0,0.0,0.0,0.0,0.0,0.0,0.0,0.0,0.0,0.0,0.0,0.0,0.0,0.0,0.0,0.0,0.0,0.0,0.0,0.0,0.0,0.0,0.0,0.0,0.0,0.0,0.0,0.0,0.0,0.0,0.0,0.0,0.0,0.0,0.0,0.0,0.0,0.0,0.0,0.0,0.0,0.0,0.0,0.0,0.0,0.0,0.0,0.0,0.0,0.0,0.0,0.0,0.0,0.0,0.0,0.0,0.0,0.0,0.0,0.0,0.0,0.0,0.0,0.0,0.0,0.0,0.0,0.0,0.0,0.0,0.0,0.0,0.0,0.0,0.0,0.0,0.0,0.0,0.0,0.0,0.0,0.0,0.0,0.0,0.0,0.0,0.0,-3.0399,-3.18,-3.3123,-3.4185,-3.1129,-2.9118,0.0,0.0,0.0,0.0,0.0,0.0,0.0,0.0,0.0,0.0,0.0,0.0,0.0,0.0,0.0,0.0,0.0,0.0,0.0,0.0,0.0,0.0,0.0,0.0,0.0,0.0,0.0,0.0,0.0,0.0,0.0,0.0,0.0,0.0,0.0,0.0,0.0,0.0,0.0,0.0,0.0,0.0,0.0,0.0,0.0,0.0,0.0,0.0,0.0,0.0,0.0,0.0,0.0,0.0,0.0,0.0,0.0,0.0,0.0,0.0,0.0,0.0,0.0,0.0,0.0,0.0,0.0,0.0,0.0,0.0,0.0,0.0,0.0,0.0,0.0,0.0,0.0,0.0,0.0,0.0,0.0,0.0,0.0,0.0,0.0,0.0,0.0,0.0,0.0,0.0,0.0,0.0,0.0,0.0,0.0,0.0,0.0,0.0,0.0,0.0,0.0,0.0,0.0,0.0,0.0,0.0,0.0,0.0,0.0,-3.1243,-3.2768,-3.3997,-3.4902,-3.1729,-2.9768,-2.9251,0.0,0.0,0.0,0.0,0.0,0.0,0.0,0.0,0.0,0.0,0.0,0.0,0.0,0.0,0.0,0.0,0.0,0.0,0.0,0.0,0.0,0.0,0.0,0.0,0.0,0.0,0.0,0.0,0.0,0.0,0.0,0.0,0.0,0.0,0.0,0.0,0.0,0.0,0.0,0.0,0.0,0.0,0.0,0.0,0.0,0.0,0.0,0.0,0.0,0.0,0.0,0.0,0.0,0.0,0.0,0.0,0.0,0.0,0.0,0.0,0.0,0.0,0.0,0.0,0.0,0.0,0.0,0.0,0.0,0.0,0.0,0.0,0.0,0.0,0.0,0.0,0.0,0.0,0.0,0.0,0.0,0.0,0.0,0.0,0.0,0.0,0.0,0.0,0.0,0.0,0.0,0.0,0.0,0.0,0.0,0.0,0.0,0.0,0.0,0.0,0.0,0.0,0.0,0.0,0.0,0.0,0.0,0.0,-3.3237,-3.5627,-3.5952,-3.4157,-3.3155,-3.1078,0.0,0.0,0.0,0.0,0.0,0.0,0.0,0.0,0.0,0.0,0.0,0.0,0.0,0.0,0.0,0.0,0.0,0.0,0.0,0.0,0.0,0.0,0.0,0.0,0.0,0.0,0.0,0.0,0.0,0.0,0.0,0.0,0.0,0.0,0.0,0.0,0.0,0.0,0.0,0.0,0.0,0.0,0.0,0.0,0.0,0.0,0.0,0.0,0.0,0.0,0.0,0.0,0.0,0.0,0.0,0.0,0.0,0.0,0.0,0.0,0.0,0.0,0.0,0.0,0.0,0.0,0.0,0.0,0.0,0.0,0.0,0.0,0.0,0.0,0.0,0.0,0.0,0.0,0.0,0.0,0.0,0.0,0.0,0.0,0.0,0.0,0.0,0.0,0.0,0.0,0.0,0.0,0.0,0.0,0.0,0.0,0.0,0.0,0.0,0.0,0.0,0.0,0.0,0.0,0.0,0.0,0.0,0.0,0.0,-3.4176,-3.5993,-3.6854,-3.669,-3.4128,-3.2,0.0,0.0,0.0,0.0,0.0,0.0,0.0,0.0,0.0,0.0,0.0,0.0,0.0,0.0,0.0,0.0,0.0,0.0,0.0,0.0,0.0,0.0,0.0,0.0,0.0,0.0,0.0,0.0,0.0,0.0,0.0,0.0,0.0,0.0,0.0,0.0,0.0,0.0,0.0,0.0,0.0,0.0,0.0,0.0,0.0,0.0,0.0,0.0,0.0,0.0,0.0,0.0,0.0,0.0,0.0,0.0,0.0,0.0,0.0,0.0,0.0,0.0,0.0,0.0,0.0,0.0,0.0,0.0,0.0,0.0,0.0,0.0,0.0,0.0,0.0,0.0,0.0,0.0,0.0,0.0,0.0,0.0,0.0,0.0,0.0,0.0,0.0,0.0,0.0,0.0,0.0,0.0,0.0,0.0,0.0,0.0,0.0,0.0,0.0,0.0,0.0,0.0,0.0,0.0,0.0,0.0,0.0,0.0,-3.284,-3.4546,-3.6403,-3.7268,-3.704,-3.4832,-3.2829,0.0,0.0,0.0,0.0,0.0,0.0,0.0,0.0,0.0,0.0,0.0,0.0,0.0,0.0,0.0,0.0,0.0,0.0,0.0,0.0,0.0,0.0,0.0,0.0,0.0,0.0,0.0,0.0,0.0,0.0,0.0,0.0,0.0,0.0,0.0,0.0,0.0,0.0,0.0,0.0,0.0,0.0,0.0,0.0,0.0,0.0,0.0,0.0,0.0,0.0,0.0,0.0,0.0,0.0,0.0,0.0,0.0,0.0,0.0,0.0,0.0,0.0,0.0,0.0,0.0,0.0,0.0,0.0,0.0,0.0,0.0,0.0,0.0,0.0,0.0,0.0,0.0,0.0,0.0,0.0,0.0,0.0,0.0,0.0,0.0,0.0,0.0,0.0,0.0,0.0,0.0,0.0,0.0,0.0,0.0,0.0,0.0,0.0,0.0,0.0,0.0,0.0,0.0,0.0,0.0,0.0,0.0,0.0,-3.3672,-3.4513,-3.665,-3.7206,-3.6017,-3.528,-3.3524,0.0,0.0,0.0,0.0,0.0,0.0,0.0,0.0,0.0,0.0,0.0,0.0,0.0,0.0,0.0,0.0,0.0,0.0,0.0,0.0,0.0,0.0,0.0,0.0,0.0,0.0,0.0,0.0,0.0,0.0,0.0,0.0,0.0,0.0,0.0,0.0,0.0,0.0,0.0,0.0,0.0,0.0,0.0,0.0,0.0,0.0,0.0,0.0,0.0,0.0,0.0,0.0,0.0,0.0,0.0,0.0,0.0,0.0,0.0,0.0,0.0,0.0,0.0,0.0,0.0,0.0,0.0,0.0,0.0,0.0,0.0,0.0,0.0,0.0,0.0,0.0,0.0,0.0,0.0,0.0,0.0,0.0,0.0,0.0,0.0,0.0,0.0,0.0,0.0,0.0,0.0,0.0,0.0,0.0,0.0,0.0,0.0,0.0,0.0,0.0,0.0,0.0,0.0,0.0,0.0,0.0,0.0,0.0,-3.3615,-3.448,-3.5654,-3.6158,-3.5992,-3.528,-3.3524,0.0,0.0,0.0,0.0,0.0,0.0,0.0,0.0,0.0,0.0,0.0,0.0,0.0,0.0,0.0,0.0,0.0,0.0,0.0,0.0,0.0,0.0,0.0,0.0,0.0,0.0,0.0,0.0,0.0,0.0,0.0,0.0,0.0,0.0,0.0,0.0,0.0,0.0,0.0,0.0,0.0,0.0,0.0,0.0,0.0,0.0,0.0,0.0,-3.0166,0.0,0.0,0.0,0.0,0.0,0.0,0.0,0.0,0.0,0.0,0.0,0.0,0.0,0.0,0.0,0.0,0.0,0.0,0.0,0.0,0.0,0.0,0.0,0.0,0.0,0.0,0.0,0.0,0.0,0.0,0.0,0.0,0.0,0.0,0.0,0.0,0.0,0.0,0.0,0.0,0.0,0.0,0.0,0.0,0.0,0.0,0.0,0.0,0.0,0.0,0.0,0.0,0.0,0.0,0.0,0.0,0.0,0.0,0.0,-3.3909,-3.4497,-3.5292,-3.563,-3.5479,-3.505,-3.3439,0.0,0.0,0.0,0.0,0.0,0.0,0.0,0.0,0.0,0.0,0.0,0.0,0.0,0.0,0.0,0.0,0.0,0.0,0.0,0.0,0.0,0.0,0.0,0.0,0.0,0.0,0.0,0.0,0.0,0.0,0.0,0.0,0.0,0.0,0.0,0.0,0.0,0.0,0.0,0.0,0.0,0.0,0.0,0.0,0.0,0.0,0.0,0.0,0.0,0.0,0.0,0.0,0.0,0.0,0.0,0.0,0.0,0.0,0.0,0.0,0.0,0.0,0.0,0.0,0.0,0.0,0.0,0.0,0.0,0.0,0.0,0.0,0.0,0.0,0.0,0.0,0.0,0.0,0.0,0.0,0.0,0.0,0.0,0.0,0.0,0.0,0.0,0.0,0.0,0.0,0.0,0.0,0.0,0.0,0.0,0.0,0.0,0.0,0.0,0.0,0.0,0.0,0.0,0.0,0.0,0.0,0.0,-3.2626,-3.4064,-3.4489,-3.5153,-3.5292,-3.4892,-3.478,-3.337,-3.06,0.0,0.0,0.0,0.0,0.0,0.0,0.0,0.0,0.0,0.0,0.0,0.0,0.0,0.0,0.0,0.0,0.0,0.0,0.0,0.0,0.0,0.0,0.0,0.0,0.0,0.0,0.0,0.0,0.0,0.0,0.0,0.0,0.0,0.0,0.0,0.0,0.0,0.0,-2.7285,-2.8669,0.0,0.0,0.0,0.0,0.0,0.0,0.0,0.0,-3.1435,0.0,0.0,0.0,0.0,0.0,0.0,0.0,0.0,0.0,0.0,0.0,0.0,0.0,0.0,0.0,0.0,0.0,0.0,0.0,0.0,0.0,0.0,0.0,0.0,0.0,0.0,0.0,0.0,0.0,0.0,0.0,0.0,0.0,0.0,0.0,0.0,0.0,0.0,0.0,0.0,0.0,0.0,0.0,0.0,0.0,0.0,0.0,0.0,0.0,0.0,0.0,0.0,0.0,0.0,0.0,0.0,-3.1591,-3.232,-3.3277,-3.4464,-3.483,-3.4919,-3.4715,-3.4691,-3.3324,-3.0469,0.0,0.0,0.0,0.0,0.0,0.0,0.0,0.0,0.0,0.0,0.0,0.0,0.0,0.0,0.0,0.0,0.0,0.0,0.0,0.0,0.0,0.0,0.0,0.0,0.0,0.0,0.0,0.0,0.0,0.0,0.0,0.0,0.0,0.0,0.0,0.0,0.0,0.0,0.0,-2.9847,-3.1032,0.0,0.0,0.0,0.0,0.0,0.0,0.0,0.0,-3.0893,0.0,0.0,0.0,0.0,0.0,0.0,0.0,0.0,0.0,0.0,0.0,0.0,0.0,0.0,0.0,0.0,0.0,0.0,0.0,0.0,0.0,0.0,0.0,0.0,0.0,0.0,0.0,0.0,0.0,0.0,0.0,0.0,0.0,0.0,0.0,0.0,0.0,0.0,0.0,0.0,0.0,0.0,0.0,0.0,0.0,0.0,0.0,0.0,0.0,0.0,0.0,0.0,0.0,0.0,0.0,-3.0453,-3.2039,-3.3339,-3.4341,-3.4521,-3.4594,-3.4578,-3.3439,-3.2036,0.0,0.0,0.0,0.0,0.0,0.0,0.0,0.0,0.0,0.0,0.0,0.0,0.0,0.0,0.0,0.0,0.0,0.0,0.0,0.0,0.0,0.0,0.0,0.0,0.0,0.0,0.0,0.0,0.0,0.0,0.0,0.0,0.0,0.0,0.0,0.0,0.0,0.0,0.0,0.0,-2.9658,-3.0775,-3.1832,0.0,0.0,0.0,0.0,0.0,0.0,-3.1858,-3.1848,0.0,0.0,0.0,0.0,0.0,0.0,0.0,0.0,0.0,0.0,0.0,0.0,0.0,0.0,0.0,0.0,0.0,0.0,0.0,0.0,0.0,0.0,0.0,0.0,0.0,0.0,0.0,0.0,0.0,0.0,0.0,0.0,0.0,0.0,0.0,0.0,0.0,0.0,0.0,0.0,0.0,0.0,0.0,0.0,0.0,0.0,0.0,0.0,0.0,0.0,0.0,0.0,0.0,0.0,0.0,-2.9029,-3.1407,-3.3069,-3.3885,-3.3968,-3.4018,-3.4061,-3.2199,-3.0781,0.0,0.0,0.0,0.0,0.0,0.0,0.0,0.0,0.0,0.0,0.0,0.0,0.0,0.0,0.0,0.0,0.0,0.0,0.0,0.0,0.0,0.0,0.0,0.0,0.0,0.0,0.0,0.0,0.0,0.0,0.0,0.0,0.0,0.0,0.0,0.0,0.0,0.0,0.0,0.0,0.0,-3.0879,-3.2184,-3.2293,0.0,0.0,0.0,0.0,-3.2471,-3.2698,0.0,0.0,0.0,0.0,0.0,0.0,0.0,0.0,0.0,0.0,0.0,0.0,0.0,0.0,0.0,0.0,0.0,0.0,0.0,0.0,0.0,0.0,0.0,0.0,0.0,0.0,0.0,0.0,0.0,0.0,0.0,0.0,0.0,0.0,0.0,0.0,0.0,0.0,0.0,0.0,0.0,0.0,0.0,0.0,0.0,0.0,0.0,0.0,0.0,0.0,0.0,0.0,0.0,0.0,0.0,0.0,-2.8345,-2.9943,-3.1368,-3.2625,-3.2821,-3.2821,-3.2741,-3.1972,-3.0537,0.0,0.0,0.0,0.0,0.0,0.0,0.0,0.0,0.0,0.0,0.0,0.0,0.0,0.0,0.0,0.0,0.0,0.0,0.0,0.0,0.0,0.0,0.0,0.0,0.0,0.0,0.0,0.0,0.0,0.0,0.0,0.0,0.0,0.0,0.0,0.0,0.0,0.0,0.0,0.0,0.0,-3.2898,-3.2452,-3.2363,-3.2509,0.0,0.0,-3.1985,-3.3006,-3.2736,0.0,0.0,0.0,0.0,0.0,0.0,0.0,0.0,0.0,0.0,0.0,0.0,0.0,0.0,0.0,0.0,0.0,0.0,0.0,0.0,0.0,0.0,0.0,0.0,0.0,0.0,0.0,0.0,0.0,0.0,0.0,0.0,0.0,0.0,0.0,0.0,0.0,0.0,0.0,0.0,0.0,0.0,0.0,0.0,0.0,0.0,0.0,0.0,0.0,0.0,0.0,0.0,0.0,0.0,0.0,-2.651,-2.7919,-2.9963,-3.1479,-3.2403,-3.2516,-3.2331,-3.1875,-3.0444,-2.8898,0.0,0.0,0.0,0.0,0.0,0.0,0.0,0.0,0.0,0.0,0.0,0.0,0.0,0.0,0.0,0.0,0.0,0.0,0.0,0.0,0.0,0.0,0.0,0.0,0.0,0.0,0.0,0.0,0.0,0.0,0.0,0.0,0.0,0.0,0.0,0.0,0.0,0.0,0.0,0.0,0.0,0.0,-3.2952,-3.328,0.0,0.0,0.0,-3.3124,-3.3333,0.0,0.0,0.0,0.0,0.0,0.0,0.0,0.0,0.0,0.0,0.0,0.0,0.0,0.0,0.0,0.0,0.0,0.0,0.0,0.0,0.0,0.0,0.0,0.0,0.0,0.0,0.0,0.0,0.0,0.0,0.0,0.0,0.0,0.0,0.0,0.0,0.0,0.0,0.0,0.0,0.0,0.0,0.0,0.0,0.0,0.0,0.0,0.0,0.0,0.0,0.0,0.0,0.0,0.0,0.0,0.0,0.0,-2.7184,-2.9865,-3.148,-3.1936,-3.1951,-3.163,-3.0958,-2.9258,0.0,0.0,0.0,0.0,0.0,0.0,0.0,0.0,0.0,0.0,0.0,0.0,0.0,0.0,0.0,0.0,0.0,0.0,0.0,0.0,0.0,0.0,0.0,0.0,0.0,0.0,0.0,-1.9755,0.0,0.0,0.0,0.0,0.0,0.0,0.0,0.0,0.0,0.0,0.0,0.0,0.0,0.0,-3.2381,-3.3209,-3.3674,-3.3994,0.0,0.0,-3.3883,-3.3426,-3.3352,-3.3102,0.0,0.0,0.0,0.0,0.0,0.0,0.0,0.0,0.0,0.0,0.0,0.0,0.0,0.0,0.0,0.0,0.0,0.0,0.0,0.0,0.0,0.0,0.0,0.0,0.0,0.0,0.0,0.0,0.0,0.0,0.0,0.0,0.0,0.0,0.0,0.0,0.0,0.0,0.0,0.0,0.0,0.0,0.0,0.0,0.0,0.0,0.0,0.0,0.0,0.0,0.0,0.0,0.0,0.0,0.0,-2.6057,-2.9042,-3.0673,-3.0717,-3.0717,-3.0411,-2.974,-2.9026,-2.7345,0.0,0.0,0.0,0.0,0.0,0.0,0.0,0.0,0.0,0.0,0.0,0.0,0.0,0.0,0.0,0.0,0.0,0.0,0.0,0.0,0.0,0.0,0.0,0.0,0.0,0.0,0.0,0.0,0.0,0.0,0.0,0.0,0.0,0.0,0.0,0.0,0.0,0.0,0.0,0.0,0.0,-3.3531,-3.3016,-3.2963,-3.3226,0.0,0.0,-3.3262,-3.3233,-3.3219,-3.2833,-3.176,0.0,0.0,0.0,0.0,0.0,0.0,0.0,0.0,0.0,0.0,0.0,0.0,0.0,0.0,0.0,0.0,0.0,0.0,0.0,0.0,0.0,0.0,0.0,0.0,0.0,0.0,0.0,0.0,0.0,0.0,0.0,0.0,0.0,0.0,0.0,0.0,0.0,0.0,0.0,0.0,0.0,0.0,0.0,0.0,0.0,0.0,0.0,0.0,0.0,0.0,0.0,0.0,0.0,-2.6049,-2.626,-2.8264,-2.9464,-2.9826,-2.9581,-2.9102,-2.8449,-2.8188,-2.6817,0.0,0.0,0.0,0.0,0.0,0.0,0.0,0.0,0.0,0.0,0.0,0.0,0.0,0.0,0.0,0.0,0.0,0.0,0.0,0.0,0.0,0.0,0.0,0.0,0.0,0.0,0.0,0.0,-2.1531,-2.1964,-2.3005,0.0,0.0,0.0,0.0,0.0,0.0,0.0,0.0,0.0,0.0,-3.2798,-3.3414,-3.3511,0.0,0.0,-3.3736,-3.3627,-3.3627,-3.2954,-3.2442,-3.2392,-3.1418,0.0,0.0,0.0,0.0,0.0,0.0,0.0,0.0,0.0,0.0,0.0,0.0,0.0,0.0,0.0,0.0,0.0,0.0,0.0,0.0,0.0,0.0,0.0,0.0,0.0,0.0,0.0,0.0,0.0,0.0,0.0,0.0,0.0,0.0,0.0,0.0,0.0,0.0,0.0,0.0,0.0,0.0,0.0,0.0,0.0,0.0,0.0,0.0,0.0,0.0,0.0,0.0,-2.5447,-2.5639,-2.7258,-2.8261,-2.8515,-2.8411,-2.7939,-2.7129,-2.731,-2.6234,0.0,0.0,0.0,0.0,0.0,0.0,0.0,0.0,0.0,0.0,0.0,0.0,0.0,0.0,0.0,0.0,0.0,0.0,0.0,0.0,0.0,0.0,0.0,0.0,0.0,0.0,0.0,0.0,-2.2323,-2.2601,-2.3028,0.0,0.0,0.0,0.0,0.0,0.0,0.0,0.0,0.0,0.0,-3.1861,-3.2861,-3.3213,-3.3353,-3.3353,-3.3626,-3.3722,-3.3557,-3.2787,-3.2274,-3.2563,0.0,0.0,0.0,0.0,0.0,0.0,0.0,0.0,0.0,0.0,0.0,0.0,0.0,0.0,0.0,0.0,0.0,0.0,0.0,0.0,0.0,0.0,0.0,0.0,0.0,0.0,0.0,0.0,0.0,0.0,-1.9047,0.0,0.0,0.0,0.0,0.0,0.0,0.0,0.0,0.0,0.0,0.0,0.0,0.0,0.0,0.0,0.0,0.0,0.0,0.0,0.0,0.0,0.0,0.0,-2.3642,-2.5989,-2.6988,-2.6526,-2.7148,-2.6948,-2.5817,-2.6439,-2.5605,-2.3107,0.0,0.0,0.0,0.0,0.0,0.0,0.0,0.0,0.0,0.0,0.0,0.0,0.0,0.0,0.0,0.0,0.0,0.0,0.0,0.0,0.0,0.0,0.0,0.0,0.0,0.0,-2.2211,-2.2686,-2.2987,0.0,0.0,0.0,0.0,0.0,0.0,0.0,0.0,0.0,0.0,-3.0553,-3.0906,-3.1007,-3.1636,-3.216,-3.216,-3.2966,-3.3358,-3.273,-3.2622,-3.2525,0.0,0.0,0.0,0.0,0.0,0.0,0.0,0.0,0.0,0.0,0.0,0.0,0.0,0.0,0.0,0.0,0.0,0.0,0.0,0.0,0.0,0.0,0.0,0.0,0.0,0.0,0.0,-2.1554,-2.0631,0.0,0.0,0.0,0.0,0.0,0.0,0.0,0.0,0.0,0.0,0.0,-2.2491,-2.2503,0.0,0.0,0.0,0.0,0.0,0.0,0.0,0.0,0.0,0.0,0.0,0.0,-2.4074,-2.3556,-2.4942,-2.5703,-2.5608,-2.5533,-2.531,-2.492,-2.5136,-2.4487,-2.2804,0.0,0.0,0.0,0.0,0.0,0.0,0.0,0.0,0.0,0.0,0.0,0.0,0.0,0.0,0.0,0.0,0.0,0.0,0.0,0.0,0.0,0.0,0.0,0.0,0.0,-2.3051,0.0,0.0,0.0,0.0,0.0,0.0,0.0,0.0,0.0,0.0,0.0,-2.9101,-3.019,-3.019,-3.0304,-3.082,-3.1119,-3.1304,0.0,0.0,0.0,0.0,0.0,0.0,0.0,0.0,0.0,0.0,0.0,0.0,0.0,0.0,-3.4008,-3.3171,-3.2342,-3.178,-3.1766,0.0,0.0,0.0,0.0,0.0,0.0,0.0,0.0,0.0,0.0,0.0,0.0,0.0,0.0,-2.2029,0.0,-2.109,0.0,0.0,0.0,0.0,0.0,0.0,0.0,0.0,-2.2751,-2.297,-2.2964,-2.2967,-2.2986,0.0,-2.3463,-2.3588,0.0,0.0,0.0,0.0,0.0,0.0,0.0,0.0,-2.3821,-2.3326,-2.4139,-2.4451,-2.4171,-2.4129,-2.3979,-2.3787,-2.3846,-2.3438,-2.2544,-2.2337,-2.1632,0.0,0.0,0.0,0.0,0.0,0.0,0.0,0.0,0.0,0.0,0.0,0.0,0.0,0.0,0.0,0.0,0.0,0.0,0.0,0.0,0.0,0.0,0.0,-2.3924,0.0,0.0,0.0,0.0,0.0,0.0,0.0,0.0,0.0,-2.8964,-2.8617,-2.8687,-2.9702,-2.9398,-2.925,-2.9768,0.0,0.0,0.0,0.0,0.0,0.0,0.0,-3.1342,-3.2152,-3.178,-3.1842,-3.3119,-3.3559,-3.3628,-3.3422,0.0,0.0,-3.4307,-3.3775,-3.3368,-3.3403,-3.3508,-3.3326,-3.2436,-3.2922,-3.3385,0.0,0.0,0.0,0.0,0.0,0.0,0.0,0.0,-2.2046,-2.1747,0.0,-2.1198,0.0,0.0,0.0,0.0,0.0,0.0,0.0,0.0,-2.3086,-2.3674,-2.4554,-2.373,-2.3889,-2.5041,-2.5961,-2.5678,-2.4143,-2.2776,0.0,0.0,0.0,0.0,0.0,0.0,-2.3989,-2.3043,-2.3501,-2.3276,-2.2308,-2.2919,-2.2997,-2.2451,-2.2616,-2.2604,-2.2439,-2.3022,-2.2577,-2.0966,-2.1353,0.0,0.0,0.0,0.0,0.0,0.0,0.0,0.0,0.0,0.0,0.0,0.0,0.0,0.0,0.0,0.0,0.0,0.0,0.0,0.0,-2.4208,0.0,0.0,0.0,0.0,0.0,0.0,0.0,0.0,0.0,0.0,-2.8051,-2.7957,-2.8092,-2.8598,0.0,0.0,0.0,0.0,-2.933,-2.933,-3.0164,-3.0782,-3.0782,-3.0807,-3.0857,-3.0897,0.0,0.0,-3.1718,-3.2254,-3.2502,-3.19,-3.2305,-3.3433,-3.5405,-3.5274,-3.5012,-3.5048,-3.4548,-3.3992,-3.3431,-3.3297,-3.3368,-2.3605,0.0,0.0,0.0,0.0,-2.3702,-2.3351,-2.2944,-2.2601,-2.2058,-2.149,-2.15,0.0,0.0,0.0,0.0,0.0,0.0,-2.2573,-2.2663,-2.2699,-2.2673,-2.2589,-2.2334,-2.2369,-2.2668,-2.3008,-2.2897,-2.2447,-2.2469,-2.2618,-2.2934,0.0,0.0,0.0,0.0,-2.3472,-2.2522,-2.2975,-2.2915,-2.2209,-2.242,-2.242,-2.2278,-2.2309,-2.2321,-2.2247,-2.2828,-2.2707,-2.1825,-2.1468,0.0,0.0,0.0,0.0,0.0,0.0,0.0,0.0,0.0,0.0,0.0,0.0,0.0,0.0,0.0,0.0,0.0,0.0,0.0,-2.4184,-2.3991,-2.382,0.0,0.0,0.0,0.0,0.0,0.0,0.0,0.0,0.0,-2.6726,-2.7575,-2.8455,0.0,0.0,-2.7881,-2.7881,-2.8151,-2.8327,-2.8339,0.0,0.0,0.0,-2.9238,-2.9778,-3.0206,-3.0853,-3.1061,-3.0058,-3.0509,-3.0945,-3.0739,-3.088,-3.137,-3.2355,-3.3184,-3.3776,-3.4318,-3.4315,-3.4006,-3.3459,-3.3613,-3.381,-2.274,-2.286,-2.3753,-2.4074,-2.3928,-2.3587,-2.3193,-2.2702,-2.2356,-2.2031,-2.1622,-2.1622,-2.1527,-2.1329,-2.1163,0.0,0.0,0.0,-2.2009,-2.2149,-2.2217,-2.2055,-2.1722,-2.1687,-2.1687,-2.1741,-2.2157,-2.2157,-2.1687,-2.2549,-2.2999,-2.3197,0.0,0.0,-2.2936,-2.3052,-2.2671,-2.1876,-2.2043,-2.1922,-2.138,-2.1632,-2.1757,-2.1757,-2.1757,-2.1714,-2.1702,-2.2004,-2.2087,-2.1906,-2.1492,-2.0914,0.0,0.0,0.0,0.0,0.0,0.0,0.0,0.0,0.0,0.0,0.0,-2.0529,-2.0903,0.0,0.0,0.0,-2.2015,-2.2862,-2.3392,-2.3624,0.0,0.0,0.0,0.0,0.0,0.0,0.0,-2.6086,-2.617,-2.6156,-2.6059,-2.6628,-2.7368,-2.8174,-2.7577,-2.7196,-2.7557,0.0,-2.776,-2.7748,-2.7841,-2.7881,-2.7881,-2.8299,-2.8742,-2.9084,-2.9573,-2.9621,-2.8864,-2.9055,-2.9355,-2.9342,-2.9342,-2.9559,-3.0274,-3.0971,-3.18,-3.2779,-3.3071,-3.3028,-3.2756,-3.3066,-3.3326,-2.1651,-2.1811,-2.3889,-2.419,-2.3304,-2.326,-2.2668,-2.1696,-2.1687,-2.1687,-2.1687,-2.1687,-2.152,-2.1135,-2.0735,0.0,0.0,-2.1126,-2.1328,-2.1687,-2.1659,-2.1641,-2.1641,-2.1641,-2.1641,-2.1676,-2.2698,-2.2726,-2.1776,-2.2755,-2.3001,-2.2484,-2.2654,-2.278,-2.285,-2.2236,-2.1668,-2.1191,-2.0934,-2.0577,-2.0118,-2.0677,-2.1028,-2.104,-2.0996,-2.0955,-2.0863,-2.0896,-2.107,-2.1417,-2.1424,-2.0964,-2.003,0.0,0.0,0.0,0.0,0.0,0.0,0.0,0.0,0.0,0.0,0.0,0.0,0.0,0.0,0.0,-2.1741,0.0,-2.1959,-2.3229,0.0,0.0,0.0,-2.5401,-2.5163,-2.5999,-2.6397,-2.566,0.0,0.0,0.0,0.0,-2.5315,-2.6217,-2.5955,-2.6008,-2.688,-2.7144,-2.7389,-2.7307,-2.7626,-2.7852,-2.78,-2.7852,-2.7893,-2.7916,-2.7841,-2.7933,-2.7881,-2.7881,-2.7893,-2.7909,-2.7852,-2.8082,-2.8819,-2.9,-2.9335,-3.062,-3.1177,-3.1471,-3.1659,-3.1823,-3.2164,-2.1177,-2.1212,-2.173,-2.2006,-2.2122,-2.2122,-2.1954,-2.1687,-2.1687,-2.1687,-2.1687,-2.1687,-2.1632,-2.154,-2.1449,-2.1458,-2.1575,-2.1255,-2.1328,-2.1659,-2.1401,-2.1255,-2.1264,-2.1211,-2.1255,-2.1255,-2.1497,-2.1674,-2.1722,-2.1945,-2.1907,-2.1435,-2.1216,-2.1677,-2.2822,-2.1769,-2.109,-2.0983,-2.0217,-1.9856,-1.9879,-2.0031,-2.0171,-2.0323,-2.0323,-2.0313,-2.0303,-2.0687,-2.0928,-2.1015,-2.0845,-2.0625,-2.0369,-1.9596,0.0,0.0,0.0,0.0,0.0,0.0,0.0,0.0,0.0,-2.1172,-2.0836,0.0,-2.197,0.0,-2.1298,-2.1942,-2.341,-2.3687,0.0,0.0,-2.5047,-2.5336,-2.4526,-2.5003,-2.5145,-2.4649,-2.4382,-2.4079,-2.3626,-2.3257,-2.322,-2.3871,-2.4475,-2.4882,-2.5126,-2.5757,-2.6205,-2.6287,-2.6869,-2.7353,-2.7394,-2.7353,-2.7394,-2.7353,-2.7394,-2.7394,-2.7353,-2.7365,-2.7365,-2.7353,-2.7353,-2.7464,-2.7655,-2.7644,-2.776,-2.8189,-2.945,-3.0598,-3.0645,-3.0681,-3.0844,-2.0997,-2.0997,-2.0997,-2.1141,-2.1419,-2.141,-2.1463,-2.1571,-2.1463,-2.1463,-2.1571,-2.141,-2.141,-2.1365,-2.1419,-2.1319,-2.1148,-2.0922,-2.0849,-2.0911,-2.0746,-2.068,-2.068,-2.0799,-2.0842,-2.0842,-2.0842,-2.097,-2.1156,-2.1365,-2.1255,-2.0842,-2.0406,-2.0589,-2.1222,-2.0286,-1.9706,-1.9505,-1.8909,-1.879,-1.9212,-1.9212,-1.9311,-1.9507,-1.9431,-1.9266,-1.9044,-1.9248,-1.952,-1.9772,-1.9636,-1.9646,-1.9837,-1.9279,-1.8749,0.0,0.0,0.0,0.0,0.0,0.0,0.0,0.0,0.0,0.0,0.0,-2.2138,0.0,-2.1767,0.0,-2.3865,-2.377,-2.3814,-2.426,-2.4725,-2.4823,-2.4254,-2.4253,-2.4181,-2.3898,-2.3363,-2.2876,-2.2648,-2.2272,-2.2114,-2.2441,-2.294,-2.3551,-2.437,-2.4914,-2.5368,-2.5735,-2.6268,-2.6745,-2.7108,-2.719,-2.719,-2.719,-2.719,-2.719,-2.719,-2.719,-2.719,-2.719,-2.719,-2.719,-2.719,-2.719,-2.719,-2.7342,-2.8103,-2.9018,-2.9499,-2.9692,-2.9871,-2.0538,-2.0529,-2.0529,-2.0529,-2.0529,-2.0529,-2.0871,-2.1347,-2.1096,-2.1141,-2.1347,-2.1096,-2.0997,-2.0997,-2.0944,-2.0793,-2.0491,-2.0384,-2.0171,-1.9929,-2.0012,-2.0078,-2.012,-2.028,-2.0364,-2.0397,-2.0397,-2.0424,-2.0488,-2.086,-2.0805,-2.0365,-2.0026,-1.9595,-1.9063,-1.8535,-1.809,-1.7699,-1.7511,-1.7725,-1.8307,-1.8391,-1.8492,-1.861,-1.8526,-1.8227,-1.7793,-1.764,-1.7868,-1.8478,-1.8565,-1.8776,-1.9189,-1.9208,-1.9068,0.0,-1.8788,0.0,0.0,0.0,0.0,0.0,0.0,0.0,0.0,-2.1636,-2.244,-2.2958,-2.2723,-2.2878,-2.3771,-2.368,-2.3767,-2.4156,-2.4211,-2.4211,-2.4192,-2.3785,-2.3499,-2.3499,-2.2776,-2.2327,-2.2327,-2.1934,-2.1696,-2.1776,-2.182,-2.2378,-2.3724,-2.4188,-2.4573,-2.5358,-2.5568,-2.5893,-2.6539,-2.688,-2.6974,-2.7015,-2.7097,-2.719,-2.719,-2.719,-2.719,-2.719,-2.719,-2.719,-2.719,-2.719,-2.719,-2.719,-2.7301,-2.7603,-2.8307,-2.8664,-2.9108,-1.7987,-1.7979,-1.7994,-1.7987,-1.7987,-1.7979,-1.9193,-2.1051,-2.1042,-2.1042,-2.1096,-2.1042,-2.0997,-2.097,-2.0731,-2.0553,-2.0455,-1.9816,-1.9665,-1.9911,-1.9609,-1.9466,-1.9508,-1.9508,-1.9623,-1.9779,-1.9779,-2.0034,-2.0521,-2.0594,-2.0255,-1.954,-1.9457,-1.8898,0.0,0.0,0.0,0.0,-1.7014,-1.7151,-1.7451,-1.7792,-1.7872,-1.7754,-1.8027,0.0,-1.8024,-1.7988,-1.8349,-1.9098,-1.9459,0.0,0.0,0.0,0.0,0.0,0.0,0.0,0.0,0.0,0.0,0.0,-2.1114,-2.0924,-2.0857,-2.2013,-2.2796,-2.2935,-2.3476,-2.3779,-2.3604,-2.3889,-2.411,-2.4192,-2.4211,-2.4211,-2.4192,-2.3785,-2.3499,-2.348,-2.2776,-2.2318,-2.2236,-2.1943,-2.1696,-2.1687,-2.1687,-2.182,-2.2167,-2.2887,-2.3391,-2.3617,-2.4307,-2.4787,-2.5009,-2.5631,-2.6091,-2.6133,-2.6745,-2.7097,-2.7149,-2.7149,-2.719,-2.719,-2.719,-2.719,-2.719,-2.719,-2.719,-2.719,-2.719,-2.726,-2.7452,-2.7534,-2.7644,-1.7289,0.0,-1.7289,-1.7289,0.0,-1.7289,-1.8033,-1.9193,-1.9193,-1.9185,-1.9185,-1.9185,-1.9193,-1.9123,-1.8828,-1.862,-1.8425,-1.7888,-1.7644,-1.7686,-1.7548,-1.7499,-1.7499,-1.7623,-1.7738,-1.7812,-1.7812,-1.8036,-1.8471,-1.8902,-1.885,-1.8372,-1.8574,-1.8311,-1.7513,-1.7293,-1.711,-1.6908,-1.6908,-1.7035,-1.7324,-1.7546,-1.7755,-1.7943,0.0,0.0,0.0,0.0,0.0,0.0,0.0,0.0,0.0,0.0,0.0,-2.048,-2.048,-2.0583,-2.0745,-2.0464,-2.04,-2.0837,-2.0332,-2.0508,-2.1748,-2.2483,-2.3078,-2.3519,-2.3972,-2.4119,-2.3877,-2.4082,-2.4211,-2.4211,-2.4211,-2.4137,-2.3849,-2.3395,-2.2981,-2.2753,-2.2124,-2.1662,-2.1653,-2.1608,-2.1482,-2.1374,-2.1472,-2.1517,-2.1454,-2.1926,-2.2545,-2.3008,-2.3887,-2.4488,-2.4531,-2.4829,-2.5158,-2.5253,-2.5558,-2.603,-2.6445,-2.6487,-2.6663,-2.7056,-2.719,-2.719,-2.719,-2.719,-2.719,-2.719,-2.719,-2.719,-2.719,-2.719,-2.7231,-1.6781,-1.6781,-1.6774,-1.6774,-1.6781,-1.6781,-1.6774,-1.6774,0.0,0.0,0.0,-1.7289,-1.726,-1.7186,-1.6917,-1.6595,-1.6221,-1.5949,-1.5678,-1.5394,-1.5545,-1.5621,-1.5655,-1.582,-1.5921,-1.5962,-1.5928,-1.6093,-1.6355,-1.7082,-1.7273,-1.7089,-1.7494,-1.7527,-1.7152,-1.6795,-1.6643,-1.6678,-1.6871,-1.7202,-1.7587,-1.7678,-1.7908,-1.8332,-1.8267,-1.8451,-1.8917,-1.8847,-1.9123,-1.9703,-1.9845,-2.0027,-2.0416,-2.0311,-2.0437,-2.0927,-2.0816,-2.0828,-2.1159,-2.0439,-2.0022,-2.0022,-1.9293,-1.981,-2.212,-2.2321,-2.2661,-2.3476,-2.375,-2.3895,-2.3895,-2.4102,-2.4211,-2.4211,-2.4152,-2.3947,-2.3496,-2.2894,-2.2382,-2.1977,-2.1408,-2.0997,-2.106,-2.1203,-2.1248,-2.1096,-2.1195,-2.1248,-2.1087,-2.141,-2.1945,-2.2677,-2.3333,-2.3897,-2.3983,-2.4145,-2.4231,-2.4231,-2.4413,-2.4787,-2.5368,-2.5579,-2.5883,-2.6456,-2.6798,-2.688,-2.6921,-2.7056,-2.719,-2.719,-2.719,-2.719,-2.719,-2.719,-2.719,-1.4771,-1.4723,-1.4723,-1.4717,-1.4717,-1.4717,-1.4717,-1.486,-1.6546,-1.7289,-1.7289,-1.7289,-1.7189,-1.6917,-1.6535,-1.6221,-1.5942,-1.5641,-1.5431,0.0,-1.5436,-1.5428,-1.5428,-1.5477,-1.5587,-1.573,-1.5737,-1.5854,-1.6044,-1.6167,-1.6038,-1.5753,-1.596,-1.6029,-1.5785,-1.5713,-1.5688,-1.5718,-1.6843,-1.7614,-1.799,-1.8357,-1.8403,-1.8183,-1.8458,-1.865,-1.8753,-1.9045,-1.9567,-2.031,-2.0719,-2.1096,-2.1438,-2.0722,-2.0338,-2.0344,-1.962,-1.9152,-1.9247,-1.9072,-1.9018,-1.9018,-1.888,-1.9148,-1.9808,-2.0126,-2.0435,-2.0949,-2.2021,-2.2736,-2.2778,-2.3538,-2.4003,-2.4102,-2.3945,-2.3691,-2.3196,-2.2637,-2.2102,-2.1655,-2.1291,-2.0997,-2.0952,-2.0997,-2.1042,-2.0997,-2.1006,-2.1051,-2.1051,-2.1239,-2.1517,-2.183,-2.1998,-2.2087,-2.2334,-2.2799,-2.3226,-2.327,-2.3887,-2.4327,-2.4573,-2.4606,-2.4734,-2.4882,-2.5547,-2.5966,-2.6008,-2.6704,-2.6933,-2.6974,-2.7015,-2.7108,-2.7097,-2.7138,-2.719,-1.4298,-1.4298,-1.4298,-1.4298,-1.4298,-1.4298,-1.4298,-1.4388,-1.5283,-1.5656,-1.5656,-1.5656,-1.5544,-1.5259,-1.4921,-1.463,-1.4389,-1.4061,-1.3922,-1.3922,-1.3922,-1.3964,-1.3928,-1.3964,-1.3999,-1.4077,-1.4077,-1.4203,-1.4434,-1.4696,-1.4784,-1.4714,-1.5078,-1.5218,-1.5111,-1.5104,-1.5312,-1.5646,-1.6157,-1.661,-1.7,-1.7208,-1.7544,-1.7999,-1.8232,-1.8664,-1.9326,-1.9751,-1.9978,-2.0033,-2.0465,-2.049,-2.0158,-1.9704,-1.9476,-1.9476,-1.9063,-1.8796,-1.8796,-1.8288,-1.7738,-1.7217,-1.7077,-1.7088,-1.7272,-1.8718,-1.9813,-2.0339,-2.0905,-2.1226,-2.1347,-2.1676,-2.1929,-2.1929,-2.2121,-2.2146,-2.1833,-2.1773,-2.1584,-2.116,-2.0804,-2.06,-2.0645,-2.0736,-2.0781,-2.069,-2.06,-2.069,-2.0826,-2.0925,-2.1069,-2.1275,-2.1428,-2.1517,-2.1562,-2.1945,-2.2246,-2.2211,-2.2511,-2.294,-2.3236,-2.3444,-2.3704,-2.4178,-2.4744,-2.5031,-2.5073,-2.5432,-2.5695,-2.5779,-2.6196,-2.6393,-2.6487,-2.6787,-2.719,-1.4208,-1.4208,-1.4298,-1.4298,-1.4298,-1.4298,-1.4298,-1.4298,-1.4298,-1.4298,-1.4292,-1.4238,-1.4063,-1.3803,-1.3544,-1.3278,-1.3019,-1.2801,-1.2699,-1.2705,-1.2705,-1.2705,-1.2705,-1.2705,-1.2705,-1.2705,-1.2705,-1.279,-1.3021,-1.3364,-1.366,-1.3892,-1.4231,-1.4428,-1.4468,-1.4475,-1.4757,-1.5219,-1.5108,-1.5425,-1.6213,-1.6221,-1.671,-1.76,-1.7715,-1.8183,-1.9126,-1.962,-1.966,-1.9293,-1.9687,-1.9613,-1.8888,-1.8565,-1.8465,-1.8473,-1.8234,-1.8095,-1.8002,-1.7318,-1.6534,-1.573,-1.5499,-1.5404,-1.556,-1.7246,-1.8674,-1.9174,-1.9395,-1.9643,-1.9857,-2.0038,-1.9981,-2.001,-2.0413,-2.0603,-2.0216,-2.0419,-2.0556,-2.0303,-2.0093,-2.0011,-2.0292,-2.0473,-2.0564,-2.0382,-2.0292,-2.0382,-2.0564,-2.0609,-2.069,-2.0871,-2.1105,-2.1293,-2.1302,-2.1419,-2.1508,-2.1338,-2.1383,-2.1678,-2.205,-2.2217,-2.2517,-2.3173,-2.3747,-2.4006,-2.4102,-2.4402,-2.4573,-2.4754,-2.5168,-2.5495,-2.5537,-2.6227,-2.6921,-1.3925,-1.3979,-1.4202,-1.4298,-1.4298,-1.4298,-1.4298,-1.4298,-1.4298,-1.4298,-1.428,-1.4045,-1.3803,-1.3532,-1.3284,-1.3019,-1.2759,-1.2717,-1.2705,-1.2705,-1.2705,-1.2705,-1.2705,-1.2705,-1.2705,-1.2705,-1.2705,-1.2705,-1.2747,-1.2796,-1.296,-1.3184,-1.3237,-1.3374,-1.3513,-1.3549,-1.3568,-1.3607,-1.3581,-1.4608,-1.6528,-1.6651,-1.6707,-1.6813,-1.6813,-1.687,-1.7147,-1.761,-1.7972,-1.7949,-1.8566,-1.888,-1.8696,-1.7917,-1.7419,-1.7372,-1.6622,-1.6008,-1.5818,-1.5724,-1.5547,-1.5226,-1.5172,-1.5131,-1.5131,-1.5382,-1.5621,-1.6212,-1.7367,-1.8166,-1.8295,-1.9192,-1.9664,-1.962,-1.9707,-1.9496,-1.8973,-1.8682,-1.8669,-1.896,-1.898,-1.9255,-1.992,-2.0155,-2.0292,-2.0155,-2.0246,-2.0337,-2.0337,-2.0382,-2.0382,-2.0464,-2.0736,-2.1006,-2.1051,-2.1042,-2.1087,-2.1087,-2.1042,-2.1132,-2.1221,-2.1212,-2.1248,-2.1784,-2.2262,-2.2833,-2.3096,-2.3661,-2.4327,-2.4102,-2.4317,-2.4627,-2.4701,-2.5326,-2.6133,-1.3684,-1.3684,-1.3775,-1.3823,-1.3823,-1.3823,-1.3925,-1.407,-1.4064,-1.416,-1.4244,-1.3863,-1.3616,-1.3495,-1.3242,-1.2976,-1.2711,-1.2705,-1.2705,-1.2705,-1.2705,-1.2705,-1.2705,-1.2705,-1.2705,-1.2705,-1.2705,-1.2705,-1.2705,-1.2705,-1.2747,-1.2875,-1.2875,-1.2924,-1.296,-1.296,-1.3052,-1.3228,-1.3228,-1.3724,-1.4636,-1.4887,-1.5171,-1.5662,-1.5835,-1.6206,-1.6688,-1.7339,-1.7442,-1.6955,-1.7417,-1.7444,-1.6842,-1.6298,-1.6021,-1.5974,-1.5642,-1.5363,-1.5267,-1.5267,-1.522,-1.5131,-1.4939,-1.4885,-1.4838,-1.4736,-1.4689,-1.4886,-1.5838,-1.6572,-1.6761,-1.7277,-1.7549,-1.7634,-1.7818,-1.7902,-1.7484,-1.7751,-1.7971,-1.7931,-1.7902,-1.8041,-1.8511,-1.9072,-1.9355,-1.9492,-1.9866,-2.0246,-2.0292,-2.0292,-2.0292,-2.0292,-2.0473,-2.0645,-2.0781,-2.0952,-2.0907,-2.0871,-2.0826,-2.0789,-2.0645,-2.0736,-2.0826,-2.0835,-2.1347,-2.1739,-2.1695,-2.1961,-2.2448,-2.2711,-2.3454,-2.38,-2.437,-2.4787,-2.5379,-1.3394,-1.3389,-1.3491,-1.3497,-1.3497,-1.3497,-1.3588,-1.3786,-1.3786,-1.3931,-1.41,-1.365,-1.3423,-1.3381,-1.3119,-1.2892,-1.2723,-1.2705,-1.2705,-1.2705,-1.2705,-1.2705,-1.2705,-1.2705,-1.2705,-1.2705,-1.2705,-1.2705,-1.2705,-1.2705,-1.2705,-1.2705,-1.2705,-1.2705,-1.2705,-1.2705,-1.279,-1.2966,-1.3009,-1.3052,-1.3264,-1.3398,-1.3851,-1.4517,-1.4804,-1.5267,-1.586,-1.6524,-1.6573,-1.588,-1.6195,-1.6096,-1.5452,-1.522,-1.5131,-1.5131,-1.5131,-1.5083,-1.4987,-1.4987,-1.4933,-1.4885,-1.4688,-1.4592,-1.4544,-1.4394,-1.4298,-1.4388,-1.4912,-1.5398,-1.563,-1.5737,-1.5801,-1.5908,-1.6428,-1.6549,-1.6288,-1.672,-1.6898,-1.6907,-1.6915,-1.7016,-1.7343,-1.7948,-1.8419,-1.8457,-1.9209,-1.9874,-1.9965,-2.0056,-2.0292,-2.0292,-2.0292,-2.0382,-2.0564,-2.069,-2.069,-2.0654,-2.0609,-2.0518,-2.0329,-2.0473,-2.0564,-2.06,-2.0781,-2.0907,-2.1132,-2.1087,-2.1132,-2.1419,-2.2069,-2.2843,-2.3246,-2.3757,-2.4307,-1.3104,-1.3147,-1.34,-1.3443,-1.3497,-1.3491,-1.3491,-1.3539,-1.3539,-1.3636,-1.3795,-1.3373,-1.3144,-1.3142,-1.284,-1.2717,-1.2705,-1.2705,-1.2705,-1.2705,-1.2705,-1.2705,-1.2705,-1.2705,-1.2705,-1.2705,-1.2705,-1.2705,-1.2705,-1.2705,-1.2705,-1.2705,-1.2705,-1.2705,-1.2705,-1.2705,-1.2705,-1.2747,-1.2747,-1.2747,-1.2796,-1.3009,-1.3289,-1.3521,-1.3732,-1.4028,-1.4106,-1.4514,-1.4764,-1.4731,-1.5059,-1.5172,-1.5131,-1.5077,-1.5083,-1.5083,-1.5083,-1.4981,-1.4783,-1.4736,-1.464,-1.44,-1.4394,-1.4346,-1.4352,-1.4346,-1.4298,-1.4304,-1.4552,-1.4891,-1.5157,-1.5448,-1.5644,-1.5861,-1.5921,-1.5765,-1.5263,-1.5349,-1.5469,-1.5754,-1.5893,-1.617,-1.7055,-1.7343,-1.739,-1.7529,-1.8226,-1.8842,-1.898,-1.9592,-1.9965,-2.0056,-2.0102,-2.0292,-2.0292,-2.0428,-2.0382,-2.0382,-2.0382,-2.0337,-2.0337,-2.0292,-2.0337,-2.0382,-2.0564,-2.0699,-2.0736,-2.0826,-2.0952,-2.1141,-2.1338,-2.1865,-2.2201,-2.2677,-2.3226,-1.291,-1.291,-1.3007,-1.3055,-1.3055,-1.3055,-1.3098,-1.3249,-1.3249,-1.3341,-1.3396,-1.3067,-1.283,-1.2663,-1.2366,-1.2326,-1.2491,-1.2619,-1.2705,-1.2705,-1.2705,-1.2705,-1.2705,-1.2705,-1.2705,-1.2705,-1.2705,-1.2705,-1.2705,-1.2705,-1.2705,-1.2705,-1.2705,-1.2705,-1.2705,-1.2705,-1.2705,-1.2705,-1.2705,-1.2705,-1.2735,-1.2966,-1.315,-1.32,-1.358,-1.385,-1.404,-1.4414,-1.457,-1.457,-1.4735,-1.4838,-1.4838,-1.4688,-1.4592,-1.4592,-1.4592,-1.4544,-1.4442,-1.4448,-1.4394,-1.4346,-1.4298,-1.4298,-1.4298,-1.4298,-1.4298,-1.4322,-1.4377,-1.457,-1.4871,-1.524,-1.5602,-1.5813,-1.5734,-1.5505,-1.5179,-1.4962,-1.485,-1.4865,-1.486,-1.4997,-1.5466,-1.5934,-1.6311,-1.6405,-1.7203,-1.7762,-1.7855,-1.818,-1.8503,-1.8503,-1.8934,-1.9355,-1.9355,-1.9965,-2.0292,-2.0292,-2.0292,-2.0337,-2.0292,-2.0292,-2.0337,-2.0337,-2.0428,-2.0473,-2.051,-2.0654,-2.0781,-2.0826,-2.1024,-2.115,-2.115,-2.1793,-2.2271,-1.2807,-1.2807,-1.2807,-1.2807,-1.2807,-1.2807,-1.2861,-1.3001,-1.3001,-1.3047,-1.3095,-1.2836,-1.2592,-1.2355,-1.2148,-1.2037,-1.2198,-1.2448,-1.2619,-1.2619,-1.2662,-1.2705,-1.2705,-1.2705,-1.2705,-1.2705,-1.2705,-1.2705,-1.2705,-1.2705,-1.2705,-1.2705,-1.2789,-1.2837,-1.285,-1.2922,-1.297,-1.2964,-1.2964,-1.297,-1.2994,-1.3151,-1.3296,-1.3401,-1.3676,-1.3898,-1.4104,-1.4366,-1.4503,-1.4534,-1.4547,-1.4544,-1.4544,-1.4394,-1.4298,-1.4298,-1.4298,-1.4298,-1.4298,-1.4298,-1.4298,-1.4298,-1.4298,-1.4298,-1.4298,-1.4298,-1.4298,-1.4298,-1.4304,-1.4413,-1.4696,-1.5034,-1.5354,-1.5565,-1.5481,-1.527,-1.501,-1.4829,-1.4606,-1.4419,-1.4394,-1.4346,-1.4394,-1.4902,-1.5235,-1.5324,-1.617,-1.6774,-1.6828,-1.7109,-1.7289,-1.7336,-1.7948,-1.8272,-1.8326,-1.8696,-1.9774,-1.9957,-2.0147,-2.0201,-2.0292,-2.0292,-2.0292,-2.0292,-2.0292,-2.0292,-2.0337,-2.0473,-2.0518,-2.0609,-2.0744,-2.0916,-2.0961,-2.0997,-2.1481,-1.2759,-1.2807,-1.2807,-1.2807,-1.2807,-1.2807,-1.2807,-1.2813,-1.2807,-1.2926,-1.2949,-1.2579,-1.2415,-1.2287,-1.2091,-1.1888,-1.1823,-1.216,-1.2412,-1.2454,-1.2619,-1.2705,-1.2705,-1.2705,-1.2729,-1.2753,-1.2735,-1.2741,-1.2783,-1.2795,-1.2783,-1.2795,-1.3019,-1.3121,-1.3127,-1.332,-1.3465,-1.3447,-1.3429,-1.3459,-1.3507,-1.3495,-1.3616,-1.3827,-1.391,-1.3928,-1.3958,-1.4195,-1.431,-1.4322,-1.4334,-1.4298,-1.4346,-1.4298,-1.4298,-1.4298,-1.4298,-1.4298,-1.4298,-1.4298,-1.4298,-1.4298,-1.4298,-1.4298,-1.4298,-1.4298,-1.4298,-1.4298,-1.431,-1.4407,-1.4624,-1.4727,-1.4871,-1.5071,-1.5137,-1.4998,-1.4811,-1.4714,-1.4606,-1.4364,-1.4298,-1.4298,-1.4298,-1.4442,-1.4532,-1.4675,-1.5235,-1.5798,-1.5846,-1.6358,-1.7055,-1.7109,-1.7156,-1.7242,-1.7289,-1.7436,-1.8603,-1.9538,-1.9874,-2.0056,-2.0246,-2.0292,-2.0292,-2.0292,-2.0292,-2.0292,-2.0292,-2.0382,-2.0382,-2.0428,-2.06,-2.069,-2.069,-2.0736,-2.0871,-1.2111,-1.2759,-1.2807,-1.2807,-1.2807,-1.2807,-1.2807,-1.2759,-1.2807,-1.2721,-1.2606,-1.246,-1.2216,-1.1973,-1.1816,-1.168,-1.1446,-1.178,-1.2075,-1.2375,-1.2448,-1.2583,-1.2668,-1.2711,-1.2807,-1.3,-1.3181,-1.3254,-1.3248,-1.3254,-1.3215,-1.3284,-1.3338,-1.3387,-1.3393,-1.3426,-1.3468,-1.3468,-1.3468,-1.3468,-1.3538,-1.3694,-1.3833,-1.3912,-1.4075,-1.4177,-1.4177,-1.4256,-1.4298,-1.4298,-1.4298,-1.4298,-1.4298,-1.4298,-1.4298,-1.4298,-1.4298,-1.4298,-1.4298,-1.4298,-1.4298,-1.4298,-1.4298,-1.4298,-1.4298,-1.4298,-1.4298,-1.4298,-1.4298,-1.4346,-1.4407,-1.4425,-1.463,-1.5059,-1.495,-1.4805,-1.4702,-1.4552,-1.4407,-1.4328,-1.4298,-1.4298,-1.4298,-1.4298,-1.4298,-1.4298,-1.4627,-1.4813,-1.4908,-1.5188,-1.5181,-1.5229,-1.565,-1.6264,-1.6264,-1.6499,-1.7382,-1.8319,-1.8888,-1.9355,-1.9683,-1.9866,-1.9957,-2.0192,-2.0192,-2.0292,-2.0292,-2.0292,-2.0292,-2.0292,-2.0419,-2.0419,-2.0428,-2.051,-2.0645,-1.0979,-1.158,-1.1629,-1.1629,-1.1629,-1.158,-1.1624,-1.1678,-1.2019,-1.2088,-1.2013,-1.2305,-1.2253,-1.1989,-1.1876,-1.1747,-1.1618,-1.1789,-1.2048,-1.2348,-1.2373,-1.2502,-1.2775,-1.2927,-1.3085,-1.326,-1.3435,-1.3468,-1.3468,-1.3468,-1.3468,-1.3513,-1.3604,-1.3658,-1.3676,-1.3755,-1.3803,-1.3803,-1.3815,-1.3809,-1.3839,-1.3966,-1.4045,-1.4081,-1.4214,-1.4292,-1.4298,-1.4298,-1.4298,-1.4298,-1.4298,-1.4298,-1.4298,-1.4298,-1.4298,-1.4298,-1.4298,-1.4298,-1.4298,-1.4298,-1.4298,-1.4298,-1.4298,-1.4298,-1.4298,-1.4298,-1.4298,-1.4298,-1.4298,-1.4334,-1.4425,-1.4346,-1.4515,-1.4902,-1.4714,-1.4576,-1.4539,-1.4407,-1.431,-1.4298,-1.4298,-1.4298,-1.4298,-1.4298,-1.4298,-1.4298,-1.4298,-1.4298,-1.4298,-1.4346,-1.4298,-1.4388,-1.4813,-1.5188,-1.5283,-1.5656,-1.6217,-1.6962,-1.7669,-1.8187,-1.8603,-1.8696,-1.8788,-1.9538,-1.9766,-2.0238,-2.0292,-2.0292,-2.0292,-2.0292,-2.0292,-2.0337,-2.0337,-2.0337,-2.0428,-0.9558,-0.9608,-0.9657,-0.9756,-0.9805,-0.9805,-0.9854,-0.9854,-1.0685,-1.1068,-1.1269,-1.172,-1.2141,-1.2162,-1.1914,-1.1889,-1.2073,-1.2029,-1.2155,-1.2327,-1.2396,-1.2543,-1.288,-1.3285,-1.3495,-1.3538,-1.3586,-1.3598,-1.3652,-1.364,-1.351,-1.3646,-1.3833,-1.393,-1.396,-1.4171,-1.4238,-1.422,-1.425,-1.4244,-1.4244,-1.4268,-1.428,-1.4274,-1.4286,-1.4298,-1.4298,-1.4298,-1.4298,-1.4298,-1.4298,-1.4298,-1.4298,-1.4298,-1.4298,-1.4298,-1.4298,-1.4298,-1.4298,-1.4298,-1.4298,-1.4298,-1.4298,-1.4298,-1.4298,-1.4298,-1.4298,-1.4298,-1.4298,-1.4389,-1.4533,-1.4443,-1.4449,-1.46,-1.4485,-1.4358,-1.431,-1.4304,-1.4304,-1.4298,-1.4298,-1.4298,-1.4298,-1.4298,-1.4298,-1.4298,-1.4298,-1.4298,-1.4298,-1.4298,-1.4298,-1.4394,-1.4538,-1.458,-1.4813,-1.4908,-1.5378,-1.5704,-1.6405,-1.6969,-1.7669,-1.7855,-1.7902,-1.865,-1.9392,-1.9866,-2.0192,-2.0102,-2.0192,-2.0292,-2.0292,-2.0292,-2.0292,-2.0292,-2.0292,-0.8916,-0.9558,-0.9608,-0.9608,-0.9608,-0.9608,-0.9558,-0.9608,-0.985,-0.9998,-1.0083,-1.0245,-1.0768,-1.1162,-1.1199,-1.146,-1.1872,-1.2064,-1.2094,-1.2215,-1.2349,-1.2653,-1.304,-1.3533,-1.3803,-1.3821,-1.396,-1.4087,-1.4087,-1.4051,-1.4057,-1.4093,-1.4123,-1.4183,-1.4214,-1.4262,-1.4298,-1.4298,-1.4298,-1.4298,-1.4298,-1.4298,-1.4298,-1.4298,-1.4298,-1.4298,-1.4298,-1.4298,-1.4298,-1.4298,-1.4298,-1.4298,-1.4298,-1.4298,-1.4298,-1.4298,-1.4298,-1.4298,-1.4298,-1.4298,-1.4298,-1.4298,-1.4298,-1.4298,-1.4298,-1.4298,-1.4298,-1.4298,-1.4298,-1.4334,-1.4395,-1.437,-1.437,-1.437,-1.4352,-1.4298,-1.4298,-1.4298,-1.4298,-1.4298,-1.4298,-1.4298,-1.4298,-1.4298,-1.4298,-1.4298,-1.4298,-1.4298,-1.4298,-1.4298,-1.4298,-1.4298,-1.4394,-1.4346,-1.4346,-1.4346,-1.449,-1.4627,-1.514,-1.5798,-1.6593,-1.7343,-1.7436,-1.7755,-1.8549,-1.9117,-1.9492,-1.9637,-1.9874,-1.9866,-2.0102,-2.0011,-2.0201,-2.0292,-2.0292,-0.7723,-0.8269,-0.8273,-0.8269,-0.8273,-0.8273,-0.8273,-0.8368,-0.8768,-0.8916,-0.9011,-0.946,-0.9841,-1.0277,-1.032,-1.0555,-1.1067,-1.1529,-1.1728,-1.1822,-1.2391,-1.2903,-1.3356,-1.3801,-1.4075,-1.4081,-1.422,-1.428,-1.4286,-1.4298,-1.4298,-1.428,-1.4298,-1.4298,-1.4286,-1.4298,-1.4298,-1.4298,-1.4298,-1.4298,-1.4298,-1.4298,-1.4298,-1.4298,-1.4298,-1.4298,-1.4298,-1.4298,-1.4298,-1.4298,-1.4298,-1.4298,-1.4298,-1.4298,-1.4298,-1.4298,-1.4298,-1.4298,-1.4298,-1.4298,-1.4298,-1.4298,-1.4298,-1.4298,-1.4298,-1.4298,-1.4298,-1.4298,-1.4298,-1.4413,-1.46,-1.4636,-1.4582,-1.4509,-1.437,-1.431,-1.4298,-1.4298,-1.4298,-1.4298,-1.4298,-1.4298,-1.4298,-1.4298,-1.4298,-1.4298,-1.4298,-1.4298,-1.4298,-1.4298,-1.4298,-1.4298,-1.4298,-1.4298,-1.4298,-1.4298,-1.4298,-1.4394,-1.4484,-1.5003,-1.5561,-1.6499,-1.664,-1.6868,-1.7662,-1.8226,-1.8511,-1.8657,-1.8603,-1.8742,-1.9309,-1.9683,-1.9729,-2.0292,-2.0292,-0.6387,-0.6437,-0.6437,-0.6387,-0.6487,-0.6437,-0.6634,-0.6637,-0.7478,-0.7822,-0.8021,-0.8817,-0.9099,-0.946,-0.9375,-0.9493,-0.9731,-1.0622,-1.1079,-1.156,-1.2378,-1.3225,-1.3467,-1.3909,-1.4202,-1.4262,-1.4292,-1.4298,-1.4298,-1.4298,-1.4298,-1.4298,-1.4298,-1.4298,-1.4298,-1.4298,-1.4298,-1.4298,-1.4298,-1.4298,-1.4298,-1.4298,-1.4298,-1.4298,-1.4298,-1.4298,-1.4298,-1.4298,-1.4298,-1.4298,-1.4298,-1.4298,-1.4298,-1.4298,-1.4298,-1.4298,-1.4298,-1.4298,-1.4298,-1.4298,-1.4298,-1.4298,-1.4298,-1.4298,-1.4298,-1.4298,-1.4322,-1.4389,-1.4346,-1.4588,-1.4914,-1.5046,-1.4883,-1.4672,-1.4455,-1.4322,-1.4298,-1.4298,-1.4298,-1.4298,-1.4298,-1.4298,-1.4298,-1.4298,-1.4298,-1.4298,-1.4298,-1.4298,-1.4298,-1.4298,-1.4298,-1.4298,-1.4298,-1.4298,-1.4298,-1.4298,-1.4298,-1.4346,-1.4346,-1.458,-1.4669,-1.5283,-1.5514,-1.5934,-1.6593,-1.7008,-1.7196,-1.7289,-1.7429,-1.7902,-1.865,-1.8842,-1.898,-1.992,-2.0292,-0.6387,-0.6387,-0.6387,-0.6387,-0.6387,-0.6387,-0.6387,-0.6437,-0.6634,-0.6833,-0.6833,-0.7033,-0.7627,-0.8368,-0.8368,-0.8761,-0.9357,-0.9801,-1.0342,-1.137,-1.2506,-1.3178,-1.3454,-1.3763,-1.4058,-1.4256,-1.4298,-1.4298,-1.4298,-1.4298,-1.4298,-1.4298,-1.4298,-1.4298,-1.425,-1.425,-1.4298,-1.4298,-1.4298,-1.425,-1.4298,-1.425,-1.425,-1.4298,-1.4298,-1.4298,-1.4298,-1.4298,-1.4298,-1.4298,-1.4298,-1.4298,-1.4298,-1.4298,-1.4298,-1.4298,-1.4298,-1.4298,-1.4298,-1.4298,-1.4298,-1.4298,-1.4298,-1.4298,-1.4298,-1.4316,-1.4413,-1.4552,-1.4636,-1.4787,-1.5065,-1.4926,-1.4841,-1.4727,-1.4503,-1.4316,-1.4298,-1.4298,-1.4298,-1.4298,-1.4298,-1.4298,-1.4298,-1.4298,-1.4298,-1.4298,-1.4298,-1.4298,-1.4298,-1.4298,-1.4298,-1.4298,-1.4298,-1.4298,-1.4298,-1.4298,-1.4298,-1.4298,-1.4298,-1.4298,-1.4436,-1.4484,-1.486,-1.5188,-1.552,-1.5846,-1.6123,-1.664,-1.6922,-1.7483,-1.7902,-1.8187,-1.8611,-1.9538,-2.0292,-0.6387,-0.6387,-0.6387,-0.6387,-0.6387,-0.6387,-0.6387,-0.6387,-0.6387,-0.6387,-0.6387,-0.6387,-0.6736,-0.7229,-0.7279,-0.7624,-0.812,-0.8665,-0.9406,-1.0342,-1.1175,-1.1819,-1.2603,-1.2942,-1.3377,-1.4106,-1.4298,-1.4298,-1.4298,-1.4298,-1.4298,-1.4298,-1.4298,-1.3956,-1.3757,-1.3998,-1.3956,-1.3559,-1.3559,-1.3757,-1.4196,-1.3757,-1.3902,-1.4202,-1.4298,-1.4298,-1.4298,-1.4298,-1.4298,-1.4298,-1.4298,-1.4298,-1.4298,-1.4298,-1.4298,-1.4298,-1.4298,-1.4298,-1.4298,-1.4298,-1.4298,-1.4304,-1.4304,-1.4389,-1.4455,-1.4497,-1.4624,-1.4823,-1.492,-1.5004,-1.5246,-1.5203,-1.5052,-1.4871,-1.466,-1.4455,-1.434,-1.4304,-1.4298,-1.4298,-1.4298,-1.4298,-1.4298,-1.4298,-1.4298,-1.4298,-1.4298,-1.4298,-1.4298,-1.4298,-1.4298,-1.4298,-1.4298,-1.4298,-1.4298,-1.4298,-1.4298,-1.4298,-1.4298,-1.4298,-1.4346,-1.4346,-1.4394,-1.4675,-1.5003,-1.4908,-1.5188,-1.5798,-1.6082,-1.5988,-1.6358,-1.7296,-1.8141,-1.8796,-1.9592,-0.6387,-0.6387,-0.6387,-0.6387,-0.6387,-0.6387,-0.6387,-0.6387,-0.6387,-0.6387,-0.6387,-0.6387,-0.6487,-0.6437,-0.6487,-0.6437,-0.6783,-0.7627,-0.8711,-0.9308,-0.9801,-1.0538,-1.1272,-1.176,-1.249,-1.3902,-1.4196,-1.4298,-1.4298,-1.4298,-1.4298,-1.4298,-1.4052,-1.3607,-1.3119,-1.3264,-1.327,-1.2587,-1.2484,-1.278,-1.3366,-1.2829,-1.2926,-1.3366,-1.3565,-1.3516,-1.3511,-1.3565,-1.3667,-1.3811,-1.3854,-1.3902,-1.41,-1.425,-1.4298,-1.4298,-1.4298,-1.4298,-1.4298,-1.4304,-1.431,-1.4334,-1.437,-1.4509,-1.4702,-1.4793,-1.4914,-1.5089,-1.5228,-1.5342,-1.5523,-1.5451,-1.5354,-1.5179,-1.4932,-1.4684,-1.4491,-1.4395,-1.4377,-1.4298,-1.4298,-1.4298,-1.4298,-1.4298,-1.4298,-1.4298,-1.4298,-1.4298,-1.4298,-1.4298,-1.4298,-1.4298,-1.4298,-1.4298,-1.4298,-1.4298,-1.4298,-1.4298,-1.4298,-1.4298,-1.4298,-1.4298,-1.4298,-1.4298,-1.4442,-1.4436,-1.4484,-1.486,-1.4908,-1.4484,-1.5188,-1.6452,-1.7296,-1.7956,-1.875,-0.6387,-0.6387,-0.6387,-0.6387,-0.6387,-0.6387,-0.6387,-0.6387,-0.6387,-0.6387,-0.6387,-0.6387,-0.6387,-0.6387,-0.6387,-0.6387,-0.6634,-0.7378,-0.7971,-0.8418,-0.8913,-0.9702,-1.0141,-1.0534,-1.1365,-1.263,-1.3463,-1.4004,-1.4202,-1.4298,-1.3956,-1.4004,-1.3366,-1.2727,-1.2387,-1.2145,-1.1853,-1.1512,-1.1414,-1.1658,-1.1853,-1.1809,-1.1712,-1.2047,-1.2096,-1.2047,-1.1901,-1.1804,-1.1707,-1.1707,-1.1707,-1.2198,-1.2905,-1.3738,-1.4136,-1.4334,-1.434,-1.4358,-1.4389,-1.4346,-1.4443,-1.457,-1.4642,-1.4769,-1.4962,-1.5052,-1.5173,-1.539,-1.5602,-1.5753,-1.5807,-1.565,-1.5505,-1.5366,-1.5209,-1.501,-1.4914,-1.4763,-1.4545,-1.4395,-1.4346,-1.4298,-1.4298,-1.4298,-1.4298,-1.4298,-1.4298,-1.4298,-1.4298,-1.4298,-1.4298,-1.4298,-1.4298,-1.4298,-1.4298,-1.4298,-1.4298,-1.4298,-1.4298,-1.4298,-1.4298,-1.4298,-1.4298,-1.4298,-1.4298,-1.4346,-1.4346,-1.4298,-1.4346,-1.4394,-1.5092,-1.5798,-1.6452,-1.7109,-1.749,-0.6387,-0.6387,-0.6387,-0.6387,-0.6387,-0.6387,-0.6387,-0.6387,-0.6387,-0.6387,-0.6387,-0.6387,-0.6387,-0.6387,-0.6387,-0.6387,-0.6587,-0.6833,-0.7179,-0.7329,-0.7726,-0.8368,-0.8913,-0.9255,-1.0186,-1.1165,-1.2096,-1.2877,-1.3318,-1.2834,-1.2829,-1.2587,-1.2096,-1.1658,-1.1317,-1.1219,-1.0783,-1.0538,-1.0391,-1.0636,-1.1121,-1.1121,-1.117,-1.117,-1.117,-1.1219,-1.1219,-1.1219,-1.1219,-1.1219,-1.1219,-1.1526,-1.1988,-1.2571,-1.3319,-1.4174,-1.4467,-1.4533,-1.4635,-1.4721,-1.4799,-1.4883,-1.492,-1.5046,-1.5228,-1.5336,-1.5433,-1.5644,-1.5759,-1.5885,-1.5873,-1.5753,-1.565,-1.5505,-1.5378,-1.5264,-1.5137,-1.5004,-1.4799,-1.4552,-1.4425,-1.4364,-1.4298,-1.4298,-1.4298,-1.4298,-1.4298,-1.4298,-1.4298,-1.4298,-1.4298,-1.4298,-1.4298,-1.4298,-1.4298,-1.4298,-1.4298,-1.4298,-1.4298,-1.4298,-1.4298,-1.4298,-1.4298,-1.4298,-1.4298,-1.4298,-1.4298,-1.4298,-1.4298,-1.4298,-1.4723,-1.5188,-1.5704,-1.6217,-1.6546,-0.6387,-0.6387,-0.6387,-0.6387,-0.6387,-0.6387,-0.6387,-0.6387,-0.6387,-0.6387,-0.6387,-0.6387,-0.6387,-0.6387,-0.6387,-0.6387,-0.6387,-0.6437,-0.6484,-0.6534,-0.6587,-0.6983,-0.7528,-0.8074,-0.8814,-0.9989,-1.0043,-1.097,-1.2052,-1.1804,-1.1365,-1.1321,-1.1175,-1.0538,-1.0051,-1.0145,-0.9953,-0.9608,-0.9312,-0.9805,-1.0342,-1.0538,-1.0538,-1.0538,-1.0534,-1.044,-1.0293,-1.0293,-1.0332,-1.0358,-1.0483,-1.069,-1.1052,-1.1143,-1.2077,-1.3735,-1.4263,-1.4462,-1.4342,-1.502,-1.4907,-1.4702,-1.5032,-1.5279,-1.5493,-1.5596,-1.5662,-1.5843,-1.5885,-1.5885,-1.5885,-1.5879,-1.5783,-1.5668,-1.5584,-1.5517,-1.5372,-1.5246,-1.5137,-1.4883,-1.4612,-1.4443,-1.4383,-1.4298,-1.4298,-1.4298,-1.4298,-1.4298,-1.4298,-1.4298,-1.4298,-1.4298,-1.4298,-1.4298,-1.4298,-1.4298,-1.4298,-1.4298,-1.4298,-1.4298,-1.4298,-1.4298,-1.4298,-1.4298,-1.4298,-1.4298,-1.4298,-1.4298,-1.4298,-1.4298,-1.4298,-1.4532,-1.5051,-1.533,-1.5561,-0.6387,-0.6387,-0.6387,-0.6387,-0.6387,-0.6387,-0.6387,-0.6387,-0.6387,-0.6387,-0.6387,-0.6387,-0.6387,-0.6387,-0.6387,-0.6387,-0.6387,-0.6387,-0.6387,-0.6387,-0.6437,-0.6487,-0.6686,-0.6842,-0.7776,-0.8711,-0.8425,-0.9361,-1.0636,-1.0925,-1.1028,-1.0832,-1.0096,-0.9657,-0.941,-0.9069,-0.8333,-0.8233,-0.8233,-0.8333,-0.8482,-0.8581,-0.8581,-0.8577,-0.8592,-0.8702,-0.8812,-0.8877,-0.8825,-0.8885,-0.8794,-0.9225,-1.0019,-1.0263,-1.0984,-1.2125,-1.2874,-1.3109,-1.2761,-1.3786,-1.4545,-1.4197,-1.4659,-1.5439,-1.5341,-1.5417,-1.5441,-1.5861,-1.5832,-1.5885,-1.5832,-1.5885,-1.5861,-1.5837,-1.5783,-1.5789,-1.5716,-1.5511,-1.5396,-1.5264,-1.5004,-1.4678,-1.4479,-1.4383,-1.4298,-1.4298,-1.4304,-1.4322,-1.4316,-1.4322,-1.4304,-1.4298,-1.4298,-1.4298,-1.4298,-1.4298,-1.4298,-1.4298,-1.4298,-1.4298,-1.4298,-1.4298,-1.4298,-1.4298,-1.4298,-1.4298,-1.4298,-1.4298,-1.4298,-1.4298,-1.4298,-1.4298,-1.4394,-1.458,-1.4813,-0.6289,-0.6387,-0.6387,-0.6387,-0.6387,-0.6387,-0.6387,-0.6387,-0.6387,-0.6387,-0.6387,-0.6387,-0.6387,-0.6387,-0.6387,-0.6387,-0.6387,-0.6387,-0.6387,-0.6387,-0.6387,-0.6387,-0.6437,-0.6539,-0.7083,-0.7481,-0.7584,-0.7885,-0.9015,-0.9361,-0.941,-0.9414,-0.9019,-0.8676,-0.8821,-0.8283,-0.8088,-0.8038,-0.8038,-0.7988,-0.7988,-0.7992,-0.7992,-0.7998,-0.8126,-0.816,-0.818,-0.8262,-0.8309,-0.8439,-0.8443,-0.8668,-0.9146,-0.936,-0.9686,-1.0159,-1.1295,-1.1887,-1.2206,-1.3034,-1.3249,-1.3252,-1.3459,-1.3671,-1.3863,-1.404,-1.4369,-1.4863,-1.4917,-1.5185,-1.5725,-1.5885,-1.5885,-1.5885,-1.5885,-1.5885,-1.5873,-1.5813,-1.5668,-1.5535,-1.539,-1.5083,-1.4835,-1.4805,-1.4739,-1.4672,-1.4624,-1.457,-1.4485,-1.4389,-1.4352,-1.4298,-1.4298,-1.4298,-1.4298,-1.4298,-1.4298,-1.4298,-1.4298,-1.4298,-1.4298,-1.4298,-1.431,-1.4304,-1.4298,-1.4298,-1.4304,-1.4298,-1.4298,-1.4298,-1.4298,-1.4298,-1.4298,-1.4346,-1.4532,-0.5989,-0.6287,-0.6387,-0.6387,-0.6387,-0.6387,-0.6387,-0.6387,-0.6387,-0.6387,-0.6387,-0.6387,-0.6387,-0.6387,-0.6387,-0.6387,-0.6387,-0.6387,-0.6387,-0.6387,-0.6387,-0.6387,-0.6437,-0.6439,-0.6589,-0.6795,-0.7089,-0.7441,-0.7693,-0.7939,-0.8134,-0.7988,-0.8233,-0.8088,-0.8038,-0.8045,-0.8005,-0.8116,-0.8113,-0.8083,-0.8116,-0.817,-0.8167,-0.8197,-0.8255,-0.8323,-0.8391,-0.8456,-0.8465,-0.8537,-0.854,-0.8664,-0.8841,-0.8933,-0.8968,-0.9332,-1.0026,-1.0572,-1.1218,-1.1928,-1.2141,-1.2141,-1.2363,-1.2719,-1.2625,-1.2413,-1.263,-1.3722,-1.3722,-1.4374,-1.5137,-1.5405,-1.5565,-1.5725,-1.5885,-1.5885,-1.5879,-1.5837,-1.5813,-1.5728,-1.562,-1.5553,-1.5366,-1.5324,-1.5234,-1.5089,-1.4974,-1.4841,-1.4714,-1.4582,-1.4527,-1.4497,-1.4467,-1.4425,-1.431,-1.431,-1.4304,-1.4322,-1.4322,-1.4328,-1.434,-1.434,-1.4346,-1.4334,-1.4364,-1.4389,-1.4449,-1.437,-1.4298,-1.4298,-1.4298,-1.4298,-1.4298,-1.4298,-1.4298,-0.5541,-0.6042,-0.6289,-0.6387,-0.6387,-0.6387,-0.6387,-0.6387,-0.6387,-0.6387,-0.6387,-0.6387,-0.6387,-0.6387,-0.6387,-0.6387,-0.6387,-0.6387,-0.6387,-0.6387,-0.6387,-0.6387,-0.6387,-0.6437,-0.6539,-0.6742,-0.6892,-0.7144,-0.7447,-0.7543,-0.7793,-0.7992,-0.7992,-0.7988,-0.7998,-0.8019,-0.813,-0.8201,-0.8238,-0.8313,-0.8374,-0.8408,-0.8411,-0.8425,-0.8501,-0.8518,-0.8469,-0.8513,-0.8581,-0.8686,-0.8696,-0.874,-0.8852,-0.8879,-0.8854,-0.8978,-0.9099,-0.9478,-0.9915,-1.095,-1.1546,-1.1437,-1.1492,-1.1873,-1.1764,-1.2146,-1.2417,-1.2472,-1.2526,-1.3122,-1.3835,-1.4385,-1.4643,-1.497,-1.5185,-1.5458,-1.5565,-1.5885,-1.5867,-1.5867,-1.5813,-1.5722,-1.5698,-1.5614,-1.5517,-1.5372,-1.5203,-1.5071,-1.5004,-1.489,-1.4823,-1.4775,-1.4714,-1.4594,-1.4364,-1.4346,-1.4413,-1.4425,-1.4425,-1.4413,-1.4413,-1.4419,-1.4539,-1.4558,-1.4618,-1.4606,-1.4564,-1.4491,-1.4419,-1.4334,-1.4298,-1.4298,-1.4298,-1.4298,-1.4298,-0.5491,-0.5992,-0.6139,-0.6239,-0.6387,-0.6387,-0.6387,-0.6387,-0.6387,-0.6387,-0.6387,-0.6387,-0.6387,-0.6387,-0.6387,-0.6387,-0.6387,-0.6387,-0.6387,-0.6387,-0.6387,-0.6387,-0.6387,-0.6437,-0.6439,-0.6589,-0.6692,-0.6845,-0.7045,-0.7294,-0.7494,-0.7693,-0.7902,-0.7992,-0.8005,-0.8123,-0.8214,-0.8279,-0.8408,-0.8494,-0.8507,-0.8535,-0.8535,-0.8535,-0.8598,-0.8615,-0.8638,-0.872,-0.8784,-0.8828,-0.8842,-0.8882,-0.8865,-0.8933,-0.8937,-0.8937,-0.8937,-0.8937,-0.8937,-0.9809,-0.997,-0.986,-1.0025,-1.0355,-1.0515,-1.0355,-1.0731,-1.1,-1.1378,-1.1873,-1.2797,-1.3073,-1.3285,-1.383,-1.4266,-1.4696,-1.497,-1.5185,-1.5618,-1.55,-1.5719,-1.5843,-1.5849,-1.5855,-1.5753,-1.5638,-1.5463,-1.5312,-1.5258,-1.5185,-1.5113,-1.504,-1.498,-1.4835,-1.4612,-1.457,-1.4558,-1.4552,-1.4558,-1.4594,-1.4642,-1.4805,-1.4902,-1.4896,-1.4859,-1.4829,-1.4763,-1.4642,-1.4533,-1.4425,-1.4346,-1.4298,-1.4298,-1.4352,-1.4389,-0.534,-0.5741,-0.5792,-0.6039,-0.6387,-0.6387,-0.6387,-0.6387,-0.6387,-0.6387,-0.6387,-0.6387,-0.6387,-0.6387,-0.6387,-0.6387,-0.6387,-0.6387,-0.6387,-0.6387,-0.6387,-0.6387,-0.6387,-0.6387,-0.6437,-0.6439,-0.6539,-0.6692,-0.6845,-0.6992,-0.7294,-0.7603,-0.7832,-0.7942,-0.8022,-0.8187,-0.8357,-0.8463,-0.8482,-0.8587,-0.8608,-0.8632,-0.8635,-0.8648,-0.874,-0.8774,-0.8798,-0.8797,-0.8896,-0.8916,-0.8923,-0.893,-0.8937,-0.8937,-0.8937,-0.8937,-0.8937,-0.8937,-0.8937,-0.8937,-0.8937,-0.9099,-0.9044,-0.9099,-0.8937,-0.8937,-0.9588,-1.0021,-1.0241,-1.0625,-1.1719,-1.1923,-1.2304,-1.2847,-1.3285,-1.3668,-1.3776,-1.3992,-1.4643,-1.5072,-1.5292,-1.5405,-1.5891,-1.5891,-1.5796,-1.5771,-1.5704,-1.5584,-1.5535,-1.5463,-1.5384,-1.5306,-1.5234,-1.5065,-1.489,-1.4859,-1.4829,-1.4829,-1.4841,-1.489,-1.4974,-1.5119,-1.5203,-1.5191,-1.5137,-1.5065,-1.5004,-1.4938,-1.4727,-1.4497,-1.4503,-1.4576,-1.4642,-1.4708,-1.4666,-0.4987,-0.519,-0.524,-0.5689,-0.6337,-0.6387,-0.6387,-0.6387,-0.6387,-0.6387,-0.6387,-0.6387,-0.6387,-0.6387,-0.6387,-0.6387,-0.6387,-0.6387,-0.6387,-0.6387,-0.6387,-0.6387,-0.6387,-0.6387,-0.6387,-0.6387,-0.6489,-0.6589,-0.6745,-0.6792,-0.7095,-0.7507,-0.7775,-0.7954,-0.8029,-0.8201,-0.8418,-0.8648,-0.8682,-0.8774,-0.8838,-0.8859,-0.8855,-0.8804,-0.8876,-0.8834,-0.8848,-0.8858,-0.8937,-0.8937,-0.8937,-0.8937,-0.8937,-0.8937,-0.8937,-0.8937,-0.8937,-0.8937,-0.8937,-0.8937,-0.8937,-0.8937,-0.8937,-0.8937,-0.8885,-0.8947,-0.8967,-0.9484,-0.9325,-0.9684,-1.0319,-1.0798,-1.1303,-1.1651,-1.2037,-1.2472,-1.258,-1.3068,-1.3722,-1.4261,-1.4379,-1.46,-1.541,-1.5838,-1.5832,-1.582,-1.5879,-1.5837,-1.5759,-1.5704,-1.5608,-1.5565,-1.5487,-1.5336,-1.5185,-1.5131,-1.5101,-1.5101,-1.5125,-1.5179,-1.5221,-1.53,-1.5372,-1.5433,-1.5409,-1.5336,-1.53,-1.5264,-1.5046,-1.4871,-1.4914,-1.4974,-1.5034,-1.5016,-1.492,-0.4935,-0.519,-0.519,-0.5541,-0.6089,-0.6139,-0.6239,-0.6387,-0.6387,-0.6387,-0.6387,-0.6387,-0.6387,-0.6387,-0.6387,-0.6387,-0.6387,-0.6387,-0.6387,-0.6387,-0.6387,-0.6387,-0.6387,-0.6387,-0.6387,-0.6387,-0.6387,-0.6437,-0.6539,-0.6603,-0.681,-0.7181,-0.7711,-0.8063,-0.8284,-0.8476,-0.8642,-0.8716,-0.8794,-0.8834,-0.8933,-0.8937,-0.8937,-0.8937,-0.8937,-0.8937,-0.8937,-0.8937,-0.8937,-0.8937,-0.8937,-0.8937,-0.8937,-0.8937,-0.8937,-0.8937,-0.8937,-0.8937,-0.8937,-0.8937,-0.8937,-0.8937,-0.8937,-0.8937,-0.8888,-0.9039,-0.9066,-0.9103,-0.9154,-0.9476,-0.9669,-0.976,-1.001,-1.0052,-1.046,-1.1055,-1.1487,-1.22,-1.2852,-1.3231,-1.3506,-1.4374,-1.5185,-1.497,-1.4857,-1.5238,-1.5238,-1.5725,-1.5778,-1.5831,-1.5789,-1.5789,-1.5728,-1.559,-1.5475,-1.5196,-1.5108,-1.5056,-1.5253,-1.5475,-1.5511,-1.5309,-1.5537,-1.5628,-1.5644,-1.5608,-1.5529,-1.5451,-1.5384,-1.5306,-1.5288,-1.5228,-1.5203,-1.5149,-1.5059,-0.4885,-0.5087,-0.5037,-0.5288,-0.5741,-0.5942,-0.6139,-0.6387,-0.6387,-0.6387,-0.6387,-0.6387,-0.6387,-0.6387,-0.6387,-0.6387,-0.6387,-0.6387,-0.6387,-0.6387,-0.6387,-0.6387,-0.6387,-0.6387,-0.6387,-0.6387,-0.6387,-0.6437,-0.6442,-0.6483,-0.6753,-0.7212,-0.7669,-0.8052,-0.8358,-0.8588,-0.873,-0.8798,-0.8834,-0.8868,-0.8937,-0.8937,-0.8937,-0.8937,-0.8937,-0.8937,-0.8937,-0.8937,-0.8937,-0.8937,-0.8937,-0.8937,-0.8937,-0.8937,-0.8937,-0.8937,-0.8937,-0.8937,-0.8937,-0.8937,-0.8937,-0.8937,-0.8937,-0.8964,-0.9005,-0.9096,-0.9231,-0.9296,-0.9395,-0.9371,-0.9313,-0.9292,-0.9301,-0.9356,-0.9583,-1.0243,-1.0433,-1.1156,-1.1514,-1.1946,-1.2363,-1.3501,-1.453,-1.4099,-1.3722,-1.4153,-1.4583,-1.5072,-1.5565,-1.5559,-1.5618,-1.5666,-1.5713,-1.5541,-1.5311,-1.5077,-1.5001,-1.5053,-1.4971,-1.483,-1.5093,-1.4828,-1.5346,-1.5832,-1.5754,-1.5734,-1.5686,-1.562,-1.559,-1.5565,-1.5547,-1.5475,-1.5384,-1.5342,-1.53,-0.4782,-0.4782,-0.4782,-0.4987,-0.529,-0.5792,-0.6142,-0.6387,-0.6387,-0.6387,-0.6387,-0.6387,-0.6387,-0.6387,-0.6387,-0.6387,-0.6387,-0.6387,-0.6387,-0.6387,-0.6387,-0.6387,-0.6387,-0.6387,-0.6387,-0.6387,-0.6392,-0.6403,-0.6408,-0.6605,-0.6934,-0.7282,-0.7606,-0.7943,-0.8259,-0.8532,-0.8706,-0.8828,-0.8861,-0.8937,-0.8937,-0.8937,-0.8937,-0.8937,-0.8937,-0.8937,-0.8937,-0.8937,-0.8937,-0.8937,-0.8937,-0.8937,-0.8937,-0.8937,-0.8937,-0.8937,-0.8937,-0.8937,-0.8937,-0.8937,-0.8937,-0.894,-0.8964,-0.9028,-0.9117,-0.9248,-0.9303,-0.9378,-0.9452,-0.9425,-0.9391,-0.9384,-0.9429,-0.9344,-0.9325,-0.9461,-0.9366,-0.97,-0.999,-1.0331,-1.0633,-1.1551,-1.2743,-1.2743,-1.258,-1.3122,-1.3555,-1.3992,-1.4422,-1.4857,-1.4965,-1.5345,-1.5345,-1.5399,-1.5091,-1.4399,-1.418,-1.3981,-1.3526,-1.3391,-1.3771,-1.4326,-1.4815,-1.5244,-1.5731,-1.5849,-1.5789,-1.5795,-1.5825,-1.5801,-1.5722,-1.5716,-1.562,-1.5686,-1.5692,-0.4782,-0.4782,-0.4782,-0.4935,-0.524,-0.5741,-0.6139,-0.6387,-0.6387,-0.6387,-0.6387,-0.6387,-0.6387,-0.6387,-0.6387,-0.6387,-0.6387,-0.6387,-0.6387,-0.6387,-0.6387,-0.6387,-0.6387,-0.6387,-0.6387,-0.6389,-0.6398,-0.6491,-0.66,-0.6749,-0.6872,-0.7137,-0.7494,-0.7726,-0.8014,-0.8336,-0.8575,-0.8809,-0.8881,-0.8937,-0.8937,-0.8937,-0.8937,-0.8937,-0.8937,-0.8937,-0.8937,-0.8937,-0.8937,-0.8937,-0.8885,-0.8885,-0.8937,-0.8937,-0.8937,-0.8937,-0.8937,-0.8937,-0.8937,-0.894,-0.8957,-0.9001,-0.9049,-0.9096,-0.9255,-0.9388,-0.9466,-0.953,-0.9591,-0.9591,-0.9557,-0.9537,-0.9507,-0.9439,-0.9371,-0.933,-0.9283,-0.9312,-0.956,-0.9574,-0.988,-1.0402,-1.1485,-1.1437,-1.1383,-1.2037,-1.2472,-1.2797,-1.3285,-1.3717,-1.4099,-1.4482,-1.4369,-1.4207,-1.3717,-1.3038,-1.2999,-1.2842,-1.2309,-1.2146,-1.2797,-1.3398,-1.411,-1.4869,-1.5512,-1.5832,-1.5873,-1.5885,-1.5885,-1.5885,-1.5831,-1.5861,-1.5885,-1.5897,-1.5891,-0.4782,-0.4782,-0.4782,-0.5037,-0.5386,-0.5687,-0.6037,-0.6337,-0.6387,-0.6387,-0.6387,-0.6387,-0.6387,-0.6387,-0.6387,-0.6387,-0.6387,-0.6387,-0.6387,-0.6387,-0.6387,-0.6387,-0.6387,-0.6387,-0.6387,-0.6398,-0.6438,-0.6554,-0.6679,-0.6853,-0.6994,-0.7119,-0.736,-0.7485,-0.7657,-0.7983,-0.8208,-0.8491,-0.8716,-0.8881,-0.8881,-0.8881,-0.8937,-0.8937,-0.8937,-0.8937,-0.8937,-0.8937,-0.8937,-0.8957,-0.8971,-0.9025,-0.9025,-0.9025,-0.9025,-0.9032,-0.9032,-0.9035,-0.9049,-0.9106,-0.9106,-0.9147,-0.9235,-0.9323,-0.9381,-0.949,-0.9595,-0.9683,-0.9744,-0.9781,-0.9734,-0.9686,-0.9629,-0.9574,-0.9527,-0.9479,-0.9405,-0.9323,-0.933,-0.9286,-0.955,-0.9898,-1.0168,-1.0059,-1.0076,-1.0406,-1.0789,-1.1109,-1.1819,-1.263,-1.3014,-1.3398,-1.3068,-1.2797,-1.2254,-1.1873,-1.1764,-1.1492,-1.0844,-1.0954,-1.1714,-1.2703,-1.3591,-1.4557,-1.5506,-1.5755,-1.5922,-1.5903,-1.5885,-1.5922,-1.5976,-1.5994,-1.5988,-1.5946,-1.5928,-0.4634,-0.4632,-0.4782,-0.5085,-0.5534,-0.5636,-0.5937,-0.6387,-0.6387,-0.6387,-0.6387,-0.6387,-0.6387,-0.6387,-0.6387,-0.6387,-0.6387,-0.6387,-0.6387,-0.6387,-0.6387,-0.6387,-0.6387,-0.6387,-0.6387,-0.6427,-0.6495,-0.6627,-0.6717,-0.6893,-0.7128,-0.7207,-0.721,-0.7324,-0.7493,-0.7662,-0.7881,-0.8048,-0.8436,-0.8716,-0.8826,-0.8881,-0.8937,-0.8937,-0.8937,-0.8937,-0.8937,-0.8937,-0.8937,-0.8984,-0.9052,-0.9187,-0.9224,-0.9228,-0.9171,-0.9228,-0.9228,-0.9228,-0.9195,-0.9252,-0.931,-0.9388,-0.9513,-0.9534,-0.9554,-0.9612,-0.9707,-0.9754,-0.9802,-0.9812,-0.9774,-0.9761,-0.9727,-0.9693,-0.9659,-0.9632,-0.9591,-0.949,-0.9388,-0.9337,-0.9373,-0.9674,-0.9588,-0.9601,-0.9628,-0.9369,-0.9473,-0.9857,-1.039,-1.1381,-1.1873,-1.2196,-1.1669,-1.1286,-1.1219,-1.084,-1.0621,-1.0241,-0.9713,-0.9747,-1.0548,-1.1795,-1.3138,-1.426,-1.5292,-1.5754,-1.5971,-1.6037,-1.6127,-1.6121,-1.6157,-1.6145,-1.6121,-1.6067,-1.606,-0.3575,-0.3677,-0.4481,-0.5085,-0.5584,-0.5584,-0.5934,-0.6387,-0.6387,-0.6387,-0.6387,-0.6387,-0.6387,-0.6387,-0.6387,-0.6387,-0.6387,-0.6387,-0.6387,-0.6387,-0.6387,-0.6387,-0.6392,-0.6403,-0.6398,-0.6425,-0.6564,-0.6733,-0.688,-0.7029,-0.7174,-0.7207,-0.721,-0.7268,-0.7324,-0.7438,-0.7604,-0.7715,-0.8048,-0.838,-0.8598,-0.8768,-0.8937,-0.8937,-0.8937,-0.8937,-0.8937,-0.8937,-0.8937,-0.896,-0.9079,-0.9198,-0.9317,-0.9323,-0.9327,-0.9384,-0.9381,-0.9384,-0.9344,-0.9388,-0.9425,-0.9452,-0.9523,-0.9578,-0.9639,-0.972,-0.9774,-0.9805,-0.9819,-0.9819,-0.9819,-0.9819,-0.9819,-0.9798,-0.9785,-0.9771,-0.9761,-0.9642,-0.9513,-0.9439,-0.9422,-0.934,-0.9255,-0.92,-0.9113,-0.9159,-0.9219,-0.9412,-0.9557,-1.0194,-1.0655,-1.0834,-1.0067,-0.9772,-0.9894,-1.0097,-0.9969,-0.9724,-0.9346,-0.9377,-0.9644,-1.0911,-1.2413,-1.3918,-1.5054,-1.5216,-1.558,-1.6384,-1.6452,-1.5951,-1.6117,-1.5963,-1.6206,-1.6236,-1.6264,-0.2771,-0.3324,-0.4331,-0.5085,-0.5534,-0.5584,-0.5887,-0.6337,-0.6387,-0.6387,-0.6387,-0.6387,-0.6387,-0.6387,-0.6387,-0.6387,-0.6387,-0.6387,-0.6387,-0.6387,-0.6387,-0.6387,-0.6398,-0.6438,-0.6524,-0.6556,-0.6717,-0.6891,-0.7095,-0.7158,-0.7204,-0.721,-0.721,-0.721,-0.721,-0.7379,-0.7438,-0.7438,-0.7715,-0.7989,-0.8263,-0.8546,-0.8823,-0.8826,-0.8937,-0.8937,-0.8937,-0.8937,-0.8937,-0.9008,-0.9144,-0.9388,-0.95,-0.952,-0.9486,-0.9483,-0.9483,-0.9483,-0.9496,-0.9523,-0.9551,-0.9591,-0.9625,-0.9717,-0.9543,-0.961,-0.9734,-0.9819,-0.9819,-0.9819,-0.9819,-0.9819,-0.9819,-0.9808,-0.9805,-0.9798,-0.9791,-0.9744,-0.9676,-0.9649,-0.9568,-0.9473,-0.9388,-0.9303,-0.9276,-0.9256,-0.9256,-0.9323,-0.9354,-0.9439,-0.976,-0.9887,-0.9437,-0.919,-0.9518,-0.9585,-0.9468,-0.921,-0.9103,-0.9628,-1.0102,-1.0681,-1.1716,-1.3127,-1.4039,-1.4076,-1.4657,-1.5563,-1.5281,-1.4475,-1.503,-1.5727,-1.5931,-1.6069,-1.6084,-0.2016,-0.3073,-0.413,-0.4885,-0.5336,-0.5534,-0.5884,-0.6289,-0.6387,-0.6387,-0.6387,-0.6387,-0.6387,-0.6387,-0.6387,-0.6387,-0.6387,-0.6387,-0.6387,-0.6387,-0.6387,-0.6416,-0.6462,-0.6508,-0.6619,-0.6719,-0.6866,-0.7051,-0.7188,-0.721,-0.721,-0.721,-0.721,-0.721,-0.721,-0.721,-0.7268,-0.7268,-0.749,-0.7712,-0.7989,-0.8322,-0.8602,-0.8823,-0.8937,-0.8937,-0.8937,-0.8937,-0.8937,-0.9045,-0.9205,-0.9476,-0.9649,-0.9676,-0.9652,-0.9632,-0.9632,-0.9632,-0.9652,-0.9713,-0.9758,-0.9802,-0.9819,-0.9697,-0.9451,-0.9511,-0.9697,-0.9697,-0.9697,-0.9819,-0.9819,-0.9819,-0.9819,-0.9819,-0.9819,-0.9819,-0.9819,-0.9815,-0.9808,-0.9798,-0.9727,-0.9632,-0.9547,-0.9462,-0.9439,-0.9418,-0.9415,-0.9425,-0.9459,-0.9534,-0.969,-0.9824,-0.9562,-0.9435,-0.9384,-0.9347,-0.9317,-0.9293,-0.9316,-0.9972,-1.0461,-1.0544,-1.1098,-1.2218,-1.2894,-1.3086,-1.3606,-1.4415,-1.3816,-1.3308,-1.4091,-1.4887,-1.4919,-1.5151,-1.5505,-0.0907,-0.2016,-0.3073,-0.3677,-0.413,-0.5083,-0.5789,-0.6089,-0.6289,-0.6387,-0.6387,-0.6387,-0.6387,-0.6387,-0.6387,-0.6387,-0.6387,-0.6387,-0.6387,-0.6387,-0.6387,-0.6446,-0.6524,-0.6649,-0.6749,-0.6869,-0.6975,-0.7043,-0.7196,-0.721,-0.721,-0.721,-0.721,-0.721,-0.721,-0.721,-0.721,-0.7213,-0.7265,-0.7487,-0.7934,-0.8266,-0.8598,-0.8768,-0.8937,-0.8937,-0.8937,-0.8937,-0.8937,-0.9025,-0.9218,-0.9513,-0.9693,-0.9781,-0.9761,-0.9684,-0.9687,-0.969,-0.9654,-0.9674,-0.964,-0.964,-0.964,-0.9518,-0.9457,-0.9515,-0.9579,-0.9457,-0.9518,-0.9758,-0.9758,-0.9819,-0.9819,-0.9819,-0.9819,-0.9819,-0.9819,-0.9819,-0.9815,-0.9812,-0.9791,-0.9703,-0.9622,-0.9578,-0.9578,-0.9564,-0.9564,-0.9581,-0.9649,-0.9686,-0.9703,-0.9693,-0.968,-0.9561,-0.9435,-0.9439,-0.9418,-0.9401,-0.9477,-0.9838,-1.0048,-0.9929,-1.0595,-1.1469,-1.1984,-1.2269,-1.2853,-1.3121,-1.3285,-1.2981,-1.3469,-1.395,-1.395,-1.4045,-1.4365]},{"header":{"parameterUnit":"m.s-1","parameterCategory":1,"la1":31.0,"la2":29.5877,"lo1":-88.7671,"lo2":-86.6584,"dy":0.0162,"dx":0.0185,"nx":115,"ny":88,"refTime":"2024-09-20T12:00:00:Z","depth":0,"parameterNumber":3,"parameterNumberName":"V-component_of_WINDS"},"data":[0.0,0.0,0.0,0.0,0.0,0.0,0.0,0.0,0.0,0.0,0.0,0.0,0.0,0.0,0.0,0.0,0.0,0.0,0.0,0.0,0.0,0.0,0.0,0.0,0.0,0.0,0.0,0.0,0.0,0.0,0.0,0.0,0.0,0.0,0.0,0.0,0.0,0.0,0.0,0.0,0.0,0.0,0.0,0.0,0.0,0.0,0.0,0.0,0.0,0.0,0.0,0.0,0.0,0.0,0.0,0.0,0.0,0.0,0.0,0.0,0.0,0.0,0.0,0.0,0.0,0.0,0.0,0.0,0.0,0.0,0.0,0.0,0.0,0.0,0.0,0.0,0.0,0.0,0.0,0.0,0.0,0.0,0.0,0.0,0.0,0.0,0.0,0.0,0.0,0.0,0.0,0.0,0.0,0.0,0.0,0.0,0.0,0.0,0.0,0.0,0.0,0.0,0.0,0.0,0.0,0.0,0.0,0.0,0.0,0.0,0.0,0.0,0.0,0.0,0.0,0.0,0.0,0.0,0.0,0.0,0.0,0.0,0.0,0.0,0.0,0.0,0.0,0.0,0.0,0.0,0.0,0.0,0.0,0.0,0.0,0.0,0.0,0.0,0.0,0.0,0.0,0.0,0.0,0.0,0.0,0.0,0.0,0.0,0.0,0.0,0.0,0.0,0.0,0.0,0.0,0.0,0.0,0.0,0.0,0.0,0.0,0.0,0.0,0.0,0.0,0.0,0.0,0.0,0.0,0.0,0.0,0.0,0.0,0.0,0.0,0.0,0.0,0.0,0.0,0.0,0.0,0.0,0.0,0.0,0.0,0.0,0.0,0.0,0.0,0.0,0.0,0.0,0.0,0.0,0.0,0.0,0.0,0.0,0.0,0.0,0.0,0.0,0.0,0.0,0.0,0.0,0.0,0.0,0.0,0.0,0.0,0.0,0.0,0.0,0.0,0.0,0.0,0.0,0.0,0.0,0.0,0.0,0.0,0.0,0.0,0.0,0.0,0.0,0.0,0.0,0.0,0.0,0.0,0.0,0.0,0.0,0.0,0.0,0.0,0.0,0.0,0.0,0.0,0.0,0.0,0.0,0.0,0.0,0.0,0.0,0.0,0.0,0.0,0.0,0.0,0.0,0.0,0.0,0.0,0.0,0.0,0.0,0.0,0.0,0.0,0.0,0.0,0.0,0.0,0.0,0.0,0.0,0.0,0.0,0.0,0.0,0.0,0.0,0.0,0.0,0.0,0.0,0.0,0.0,0.0,0.0,0.0,0.0,0.0,0.0,0.0,0.0,0.0,0.0,0.0,0.0,0.0,0.0,0.0,0.0,0.0,0.0,0.0,0.0,0.0,0.0,0.0,0.0,0.0,0.0,0.0,0.0,0.0,0.0,0.0,0.0,0.0,0.0,0.0,0.0,0.0,0.0,0.0,0.0,0.0,0.0,0.0,0.0,0.0,0.0,0.0,0.0,0.0,0.0,0.0,0.0,0.0,0.0,0.0,0.0,0.0,0.0,0.0,0.0,0.0,0.0,0.0,0.0,0.0,0.0,0.0,0.0,0.0,0.0,0.0,0.0,0.0,0.0,0.0,0.0,0.0,0.0,0.0,0.0,0.0,0.0,0.0,0.0,0.0,0.0,0.0,0.0,0.0,0.0,0.0,0.0,0.0,0.0,0.0,0.0,0.0,0.0,0.0,0.0,0.0,0.0,0.0,0.0,0.0,0.0,0.0,0.0,0.0,0.0,0.0,0.0,0.0,0.0,0.0,0.0,0.0,0.0,0.0,0.0,0.0,0.0,0.0,0.0,0.0,0.0,0.0,0.0,0.0,0.0,0.0,0.0,0.0,0.0,0.0,0.0,0.0,0.0,0.0,0.0,0.0,0.0,0.0,0.0,0.0,0.0,0.0,0.0,0.0,0.0,0.0,0.0,0.0,0.0,0.0,0.0,0.0,0.0,0.0,0.0,0.0,0.0,0.0,0.0,0.0,0.0,0.0,0.0,0.0,0.0,0.0,0.0,0.0,0.0,0.0,0.0,0.0,0.0,0.0,0.0,0.0,0.0,0.0,0.0,0.0,0.0,0.0,0.0,0.0,0.0,0.0,0.0,0.0,0.0,0.0,0.0,0.0,0.0,0.0,0.0,0.0,0.0,0.0,0.0,0.0,0.0,0.0,0.0,0.0,0.0,0.0,0.0,0.0,0.0,0.0,0.0,0.0,0.0,0.0,0.0,0.0,0.0,0.0,0.0,0.0,0.0,0.0,0.0,0.0,0.0,0.0,0.0,0.0,0.0,0.0,0.0,0.0,0.0,0.0,0.0,0.0,0.0,0.0,0.0,0.0,0.0,0.0,0.0,0.0,0.0,0.0,0.0,0.0,0.0,0.0,0.0,0.0,0.0,0.0,0.0,0.0,0.0,0.0,0.0,0.0,0.0,0.0,0.0,0.0,0.0,0.0,0.0,0.0,0.0,0.0,0.0,0.0,0.0,0.0,0.0,0.0,0.0,0.0,0.0,0.0,0.0,0.0,0.0,0.0,0.0,0.0,0.0,0.0,0.0,0.0,0.0,0.0,0.0,0.0,0.0,0.0,0.0,0.0,0.0,0.0,0.0,0.0,0.0,0.0,0.0,0.0,0.0,0.0,0.0,0.0,0.0,0.0,0.0,0.0,0.0,0.0,0.0,0.0,0.0,0.0,0.0,0.0,0.0,0.0,0.0,0.0,0.0,0.0,0.0,0.0,0.0,0.0,0.0,0.0,0.0,0.0,0.0,0.0,0.0,0.0,0.0,0.0,0.0,0.0,0.0,0.0,0.0,0.0,0.0,0.0,0.0,0.0,0.0,0.0,0.0,0.0,0.0,0.0,0.0,0.0,0.0,0.0,0.0,0.0,0.0,0.0,0.0,0.0,0.0,0.0,0.0,0.0,0.0,0.0,0.0,0.0,0.0,0.0,0.0,0.0,0.0,0.0,0.0,0.0,0.0,0.0,0.0,0.0,0.0,0.0,0.0,0.0,0.0,0.0,0.0,0.0,0.0,0.0,0.0,0.0,0.0,0.0,0.0,0.0,0.0,0.0,0.0,0.0,0.0,0.0,0.0,0.0,0.0,0.0,0.0,0.0,0.0,0.0,0.0,0.0,0.0,0.0,0.0,0.0,0.0,0.0,0.0,0.0,0.0,0.0,0.0,0.0,0.0,0.0,0.0,0.0,0.0,0.0,0.0,0.0,0.0,0.0,0.0,0.0,0.0,0.0,0.0,0.0,0.0,0.0,0.0,0.0,0.0,0.0,0.0,0.0,0.0,0.0,0.0,0.0,0.0,0.0,0.0,0.0,0.0,0.0,0.0,0.0,0.0,0.0,0.0,0.0,0.0,0.0,0.0,0.0,0.0,0.0,0.0,0.0,0.0,0.0,0.0,0.0,0.0,0.0,0.0,0.0,0.0,0.0,0.0,0.0,0.0,0.0,0.0,0.0,0.0,0.0,0.0,0.0,0.0,0.0,0.0,0.0,0.0,0.0,0.0,0.0,0.0,0.0,0.0,0.0,0.0,0.0,0.0,0.0,0.0,0.0,0.0,0.0,0.0,0.0,0.0,0.0,0.0,0.0,0.0,0.0,0.0,0.0,0.0,0.0,0.0,0.0,0.0,0.0,0.0,0.0,0.0,0.0,0.0,0.0,0.0,0.0,0.0,0.0,0.0,0.0,0.0,0.0,0.0,0.0,0.0,0.0,0.0,0.0,0.0,0.0,0.0,0.0,0.0,0.0,0.0,0.0,0.0,0.0,0.0,0.0,0.0,0.0,0.0,0.0,0.0,0.0,0.0,0.0,0.0,0.0,0.0,0.0,0.0,0.0,0.0,0.0,0.0,0.0,0.0,0.0,0.0,0.0,0.0,0.0,0.0,0.0,0.0,0.0,0.0,0.0,0.0,0.0,0.0,0.0,0.0,0.0,0.0,0.0,0.0,0.0,0.0,0.0,0.0,0.0,0.0,0.0,0.0,0.0,0.0,0.0,0.0,0.0,0.0,0.0,0.0,0.0,0.0,0.0,0.0,0.0,0.0,0.0,0.0,0.0,0.0,0.0,0.0,0.0,0.0,0.0,0.0,0.0,0.0,0.0,0.0,0.0,0.0,0.0,0.0,0.0,0.0,0.0,0.0,0.0,0.0,0.0,0.0,0.0,0.0,0.0,0.0,0.0,0.0,0.0,0.0,0.0,0.0,0.0,0.0,0.0,0.0,0.0,0.0,0.0,0.0,0.0,0.0,0.0,0.0,1.6079,0.0,0.0,0.0,0.0,0.0,0.0,0.0,0.0,0.0,0.0,0.0,0.0,0.0,0.0,0.0,0.0,0.0,0.0,0.0,0.0,0.0,0.0,0.0,0.0,0.0,0.0,0.0,0.0,0.0,0.0,0.0,0.0,0.0,0.0,0.0,0.0,0.0,0.0,0.0,0.0,0.0,0.0,0.0,0.0,0.0,0.0,0.0,0.0,0.0,0.0,0.0,0.0,0.0,0.0,0.0,0.0,0.0,0.0,0.0,0.0,0.0,0.0,0.0,0.0,0.0,0.0,0.0,0.0,0.0,0.0,0.0,0.0,0.0,0.0,0.0,0.0,0.0,0.0,0.0,0.0,0.0,0.0,0.0,0.0,0.0,0.0,0.0,0.0,0.0,0.0,0.0,0.0,0.0,0.0,0.0,0.0,0.0,0.0,0.0,0.0,0.0,0.0,0.0,0.0,0.0,0.0,0.0,0.0,0.0,0.0,1.7694,1.7343,1.7605,1.7212,1.6033,0.0,0.0,0.0,0.0,0.0,0.0,0.0,0.0,0.0,0.0,0.0,0.0,0.0,0.0,0.0,0.0,0.0,0.0,0.0,0.0,0.0,0.0,0.0,0.0,0.0,0.0,0.0,0.0,0.0,0.0,0.0,0.0,0.0,0.0,0.0,0.0,0.0,0.0,0.0,0.0,0.0,0.0,0.0,0.0,0.0,0.0,0.0,0.0,0.0,0.0,0.0,0.0,0.0,0.0,0.0,0.0,0.0,0.0,0.0,0.0,0.0,0.0,0.0,0.0,0.0,0.0,0.0,0.0,0.0,0.0,0.0,0.0,0.0,0.0,0.0,0.0,0.0,0.0,0.0,0.0,0.0,0.0,0.0,0.0,0.0,0.0,0.0,0.0,0.0,0.0,0.0,0.0,0.0,0.0,0.0,0.0,0.0,0.0,0.0,0.0,0.0,0.0,0.0,0.0,0.0,0.0,0.0,0.0,0.0,0.0,0.0,0.0,1.8187,1.7746,1.6248,0.0,0.0,0.0,0.0,0.0,0.0,0.0,0.0,0.0,0.0,0.0,0.0,0.0,0.0,0.0,0.0,0.0,0.0,0.0,0.0,0.0,0.0,0.0,0.0,0.0,0.0,0.0,0.0,0.0,0.0,0.0,0.0,0.0,0.0,0.0,0.0,0.0,0.0,0.0,0.0,0.0,0.0,0.0,0.0,0.0,0.0,0.0,0.0,0.0,0.0,0.0,0.0,0.0,0.0,0.0,0.0,0.0,0.0,0.0,0.0,0.0,0.0,0.0,0.0,0.0,0.0,0.0,0.0,0.0,0.0,0.0,0.0,0.0,0.0,0.0,0.0,0.0,0.0,0.0,0.0,0.0,0.0,0.0,0.0,0.0,0.0,0.0,0.0,0.0,0.0,0.0,0.0,0.0,0.0,0.0,0.0,0.0,0.0,0.0,0.0,0.0,0.0,0.0,0.0,0.0,0.0,0.0,0.0,0.0,0.0,1.8796,1.9682,1.9745,0.0,1.7223,0.0,0.0,0.0,0.0,0.0,0.0,0.0,0.0,0.0,0.0,0.0,0.0,0.0,0.0,0.0,0.0,0.0,0.0,0.0,0.0,0.0,0.0,0.0,0.0,0.0,0.0,0.0,0.0,0.0,0.0,0.0,0.0,0.0,0.0,0.0,0.0,0.0,0.0,0.0,0.0,0.0,0.0,0.0,0.0,0.0,0.0,0.0,0.0,0.0,0.0,0.0,0.0,0.0,0.0,0.0,0.0,0.0,0.0,0.0,0.0,0.0,0.0,0.0,0.0,0.0,0.0,0.0,0.0,0.0,0.0,0.0,0.0,0.0,0.0,0.0,0.0,0.0,0.0,0.0,0.0,0.0,0.0,0.0,0.0,0.0,0.0,0.0,0.0,0.0,0.0,0.0,0.0,0.0,0.0,0.0,0.0,0.0,0.0,0.0,0.0,0.0,0.0,0.0,0.0,0.0,0.0,0.0,0.0,0.0,0.0,0.0,1.9489,1.8935,1.8197,0.0,0.0,0.0,0.0,0.0,0.0,0.0,0.0,0.0,0.0,0.0,0.0,0.0,0.0,0.0,0.0,0.0,0.0,0.0,0.0,0.0,0.0,0.0,0.0,0.0,0.0,0.0,0.0,0.0,0.0,0.0,0.0,0.0,0.0,0.0,0.0,0.0,0.0,0.0,0.0,0.0,0.0,0.0,0.0,0.0,0.0,0.0,0.0,0.0,0.0,0.0,0.0,0.0,0.0,0.0,0.0,0.0,0.0,0.0,0.0,0.0,0.0,0.0,0.0,0.0,0.0,0.0,0.0,0.0,0.0,0.0,0.0,0.0,0.0,0.0,0.0,0.0,0.0,0.0,0.0,0.0,0.0,0.0,0.0,0.0,0.0,0.0,0.0,0.0,0.0,0.0,0.0,0.0,0.0,0.0,0.0,0.0,0.0,0.0,0.0,0.0,0.0,0.0,0.0,0.0,0.0,0.0,0.0,0.0,0.0,1.9041,0.0,1.9606,1.9079,1.8249,1.7205,0.0,0.0,0.0,0.0,0.0,0.0,0.0,0.0,0.0,0.0,0.0,0.0,0.0,0.0,0.0,0.0,0.0,0.0,0.0,0.0,0.0,0.0,0.0,0.0,0.0,0.0,0.0,0.0,0.0,0.0,0.0,0.0,0.0,0.0,0.0,0.0,0.0,0.0,0.0,0.0,0.0,0.0,0.0,0.0,0.0,0.0,0.0,0.0,0.0,0.0,0.0,0.0,0.0,0.0,0.0,0.0,0.0,0.0,0.0,0.0,0.0,0.0,0.0,0.0,0.0,0.0,0.0,0.0,0.0,0.0,0.0,0.0,0.0,0.0,0.0,0.0,0.0,0.0,0.0,0.0,0.0,0.0,0.0,0.0,0.0,0.0,0.0,0.0,0.0,0.0,0.0,0.0,0.0,0.0,0.0,0.0,0.0,0.0,0.0,0.0,0.0,0.0,0.0,0.0,0.0,0.0,0.0,0.0,0.0,1.9876,1.9994,2.0959,2.1209,1.9978,0.0,0.0,0.0,0.0,0.0,0.0,0.0,0.0,0.0,0.0,0.0,0.0,0.0,0.0,0.0,0.0,0.0,0.0,0.0,0.0,0.0,0.0,0.0,0.0,0.0,0.0,0.0,0.0,0.0,0.0,0.0,0.0,0.0,0.0,0.0,0.0,0.0,0.0,0.0,0.0,0.0,0.0,0.0,0.0,0.0,0.0,0.0,0.0,0.0,0.0,0.0,0.0,0.0,0.0,0.0,0.0,0.0,0.0,0.0,0.0,0.0,0.0,0.0,0.0,0.0,0.0,0.0,0.0,0.0,0.0,0.0,0.0,0.0,0.0,0.0,0.0,0.0,0.0,0.0,0.0,0.0,0.0,0.0,0.0,0.0,0.0,0.0,0.0,0.0,0.0,0.0,0.0,0.0,0.0,0.0,0.0,0.0,0.0,0.0,0.0,0.0,0.0,0.0,0.0,0.0,0.0,0.0,0.0,0.0,1.8266,1.8879,2.0146,2.1838,2.0107,1.8717,0.0,0.0,0.0,0.0,0.0,0.0,0.0,0.0,0.0,0.0,0.0,0.0,0.0,0.0,0.0,0.0,0.0,0.0,0.0,0.0,0.0,0.0,0.0,0.0,0.0,0.0,0.0,0.0,0.0,0.0,0.0,0.0,0.0,0.0,0.0,0.0,0.0,0.0,0.0,0.0,0.0,0.0,0.0,0.0,0.0,0.0,0.0,0.0,0.0,0.0,0.0,0.0,0.0,0.0,0.0,0.0,0.0,0.0,0.0,0.0,0.0,0.0,0.0,0.0,0.0,0.0,0.0,0.0,0.0,0.0,0.0,0.0,0.0,0.0,0.0,0.0,0.0,0.0,0.0,0.0,0.0,0.0,0.0,0.0,0.0,0.0,0.0,0.0,0.0,0.0,0.0,0.0,0.0,0.0,0.0,0.0,0.0,0.0,0.0,0.0,0.0,0.0,0.0,0.0,0.0,0.0,0.0,0.0,0.0,1.7926,0.0,2.06,0.0,1.9541,1.8082,0.0,0.0,0.0,0.0,0.0,0.0,0.0,0.0,0.0,0.0,0.0,0.0,0.0,0.0,0.0,0.0,0.0,0.0,0.0,0.0,0.0,0.0,0.0,0.0,0.0,0.0,0.0,0.0,0.0,0.0,0.0,0.0,0.0,0.0,0.0,0.0,0.0,0.0,0.0,0.0,0.0,0.0,0.0,0.0,0.0,0.0,0.0,0.0,0.0,0.0,0.0,0.0,0.0,0.0,0.0,0.0,0.0,0.0,0.0,0.0,0.0,0.0,0.0,0.0,0.0,0.0,0.0,0.0,0.0,0.0,0.0,0.0,0.0,0.0,0.0,0.0,0.0,0.0,0.0,0.0,0.0,0.0,0.0,0.0,0.0,0.0,0.0,0.0,0.0,0.0,0.0,0.0,0.0,0.0,0.0,0.0,0.0,0.0,0.0,0.0,0.0,0.0,0.0,0.0,0.0,0.0,0.0,0.0,1.8248,2.0046,2.1297,2.1256,1.9907,1.9751,1.8268,0.0,0.0,0.0,0.0,0.0,0.0,0.0,0.0,0.0,0.0,0.0,0.0,0.0,0.0,0.0,0.0,0.0,0.0,0.0,0.0,0.0,0.0,0.0,0.0,0.0,0.0,0.0,0.0,0.0,0.0,0.0,0.0,0.0,0.0,0.0,0.0,0.0,0.0,0.0,0.0,0.0,0.0,0.0,0.0,0.0,0.0,0.0,0.0,0.0,0.0,0.0,0.0,0.0,0.0,0.0,0.0,0.0,0.0,0.0,0.0,0.0,0.0,0.0,0.0,0.0,0.0,0.0,0.0,0.0,0.0,0.0,0.0,0.0,0.0,0.0,0.0,0.0,0.0,0.0,0.0,0.0,0.0,0.0,0.0,0.0,0.0,0.0,0.0,0.0,0.0,0.0,0.0,0.0,0.0,0.0,0.0,0.0,0.0,0.0,0.0,0.0,0.0,0.0,0.0,0.0,0.0,0.0,0.0,0.0,1.8311,1.9727,2.0447,2.0237,1.9029,1.8195,0.0,0.0,0.0,0.0,0.0,0.0,0.0,0.0,0.0,0.0,0.0,0.0,0.0,0.0,0.0,0.0,0.0,0.0,0.0,0.0,0.0,0.0,0.0,0.0,0.0,0.0,0.0,0.0,0.0,0.0,0.0,0.0,0.0,0.0,0.0,0.0,0.0,0.0,0.0,0.0,0.0,0.0,0.0,0.0,0.0,0.0,0.0,0.0,0.0,0.0,0.0,0.0,0.0,0.0,0.0,0.0,0.0,0.0,0.0,0.0,0.0,0.0,0.0,0.0,0.0,0.0,0.0,0.0,0.0,0.0,0.0,0.0,0.0,0.0,0.0,0.0,0.0,0.0,0.0,0.0,0.0,0.0,0.0,0.0,0.0,0.0,0.0,0.0,0.0,0.0,0.0,0.0,0.0,0.0,0.0,0.0,0.0,0.0,0.0,0.0,0.0,0.0,0.0,0.0,0.0,0.0,0.0,0.0,0.0,1.8266,2.0129,2.1038,2.0713,1.9396,1.8556,1.8278,0.0,0.0,0.0,0.0,0.0,0.0,0.0,0.0,0.0,0.0,0.0,0.0,0.0,0.0,0.0,0.0,0.0,0.0,0.0,0.0,0.0,0.0,0.0,0.0,0.0,0.0,0.0,0.0,0.0,0.0,0.0,0.0,0.0,0.0,0.0,0.0,0.0,0.0,0.0,0.0,0.0,0.0,0.0,0.0,0.0,0.0,0.0,0.0,0.0,0.0,0.0,0.0,0.0,0.0,0.0,0.0,0.0,0.0,0.0,0.0,0.0,0.0,0.0,0.0,0.0,0.0,0.0,0.0,0.0,0.0,0.0,0.0,0.0,0.0,0.0,0.0,0.0,0.0,0.0,0.0,0.0,0.0,0.0,0.0,0.0,0.0,0.0,0.0,0.0,0.0,0.0,0.0,0.0,0.0,0.0,0.0,0.0,0.0,0.0,0.0,0.0,0.0,0.0,0.0,0.0,0.0,0.0,0.0,1.9578,2.2154,2.2739,2.1189,2.0617,1.9372,0.0,0.0,0.0,0.0,0.0,0.0,0.0,0.0,0.0,0.0,0.0,0.0,0.0,0.0,0.0,0.0,0.0,0.0,0.0,0.0,0.0,0.0,0.0,0.0,0.0,0.0,0.0,0.0,0.0,0.0,0.0,0.0,0.0,0.0,0.0,0.0,0.0,0.0,0.0,0.0,0.0,0.0,0.0,0.0,0.0,0.0,0.0,0.0,0.0,0.0,0.0,0.0,0.0,0.0,0.0,0.0,0.0,0.0,0.0,0.0,0.0,0.0,0.0,0.0,0.0,0.0,0.0,0.0,0.0,0.0,0.0,0.0,0.0,0.0,0.0,0.0,0.0,0.0,0.0,0.0,0.0,0.0,0.0,0.0,0.0,0.0,0.0,0.0,0.0,0.0,0.0,0.0,0.0,0.0,0.0,0.0,0.0,0.0,0.0,0.0,0.0,0.0,0.0,0.0,0.0,0.0,0.0,0.0,0.0,2.1563,2.282,2.2917,2.172,2.0863,1.9996,0.0,0.0,0.0,0.0,0.0,0.0,0.0,0.0,0.0,0.0,0.0,0.0,0.0,0.0,0.0,0.0,0.0,0.0,0.0,0.0,0.0,0.0,0.0,0.0,0.0,0.0,0.0,0.0,0.0,0.0,0.0,0.0,0.0,0.0,0.0,0.0,0.0,0.0,0.0,0.0,0.0,0.0,0.0,0.0,0.0,0.0,0.0,0.0,0.0,0.0,0.0,0.0,0.0,0.0,0.0,0.0,0.0,0.0,0.0,0.0,0.0,0.0,0.0,0.0,0.0,0.0,0.0,0.0,0.0,0.0,0.0,0.0,0.0,0.0,0.0,0.0,0.0,0.0,0.0,0.0,0.0,0.0,0.0,0.0,0.0,0.0,0.0,0.0,0.0,0.0,0.0,0.0,0.0,0.0,0.0,0.0,0.0,0.0,0.0,0.0,0.0,0.0,0.0,0.0,0.0,0.0,0.0,0.0,2.1582,2.2327,2.3303,2.3287,2.2201,2.1397,2.0514,0.0,0.0,0.0,0.0,0.0,0.0,0.0,0.0,0.0,0.0,0.0,0.0,0.0,0.0,0.0,0.0,0.0,0.0,0.0,0.0,0.0,0.0,0.0,0.0,0.0,0.0,0.0,0.0,0.0,0.0,0.0,0.0,0.0,0.0,0.0,0.0,0.0,0.0,0.0,0.0,0.0,0.0,0.0,0.0,0.0,0.0,0.0,0.0,0.0,0.0,0.0,0.0,0.0,0.0,0.0,0.0,0.0,0.0,0.0,0.0,0.0,0.0,0.0,0.0,0.0,0.0,0.0,0.0,0.0,0.0,0.0,0.0,0.0,0.0,0.0,0.0,0.0,0.0,0.0,0.0,0.0,0.0,0.0,0.0,0.0,0.0,0.0,0.0,0.0,0.0,0.0,0.0,0.0,0.0,0.0,0.0,0.0,0.0,0.0,0.0,0.0,0.0,0.0,0.0,0.0,0.0,0.0,0.0,2.2129,2.2413,2.3461,2.3532,2.2561,2.2045,2.0948,0.0,0.0,0.0,0.0,0.0,0.0,0.0,0.0,0.0,0.0,0.0,0.0,0.0,0.0,0.0,0.0,0.0,0.0,0.0,0.0,0.0,0.0,0.0,0.0,0.0,0.0,0.0,0.0,0.0,0.0,0.0,0.0,0.0,0.0,0.0,0.0,0.0,0.0,0.0,0.0,0.0,0.0,0.0,0.0,0.0,0.0,0.0,0.0,0.0,0.0,0.0,0.0,0.0,0.0,0.0,0.0,0.0,0.0,0.0,0.0,0.0,0.0,0.0,0.0,0.0,0.0,0.0,0.0,0.0,0.0,0.0,0.0,0.0,0.0,0.0,0.0,0.0,0.0,0.0,0.0,0.0,0.0,0.0,0.0,0.0,0.0,0.0,0.0,0.0,0.0,0.0,0.0,0.0,0.0,0.0,0.0,0.0,0.0,0.0,0.0,0.0,0.0,0.0,0.0,0.0,0.0,0.0,0.0,2.2144,2.2392,2.2879,2.2924,2.249,2.2045,2.0948,0.0,0.0,0.0,0.0,0.0,0.0,0.0,0.0,0.0,0.0,0.0,0.0,0.0,0.0,0.0,0.0,0.0,0.0,0.0,0.0,0.0,0.0,0.0,0.0,0.0,0.0,0.0,0.0,0.0,0.0,0.0,0.0,0.0,0.0,0.0,0.0,0.0,0.0,0.0,0.0,0.0,0.0,0.0,0.0,0.0,0.0,0.0,0.0,2.0347,0.0,0.0,0.0,0.0,0.0,0.0,0.0,0.0,0.0,0.0,0.0,0.0,0.0,0.0,0.0,0.0,0.0,0.0,0.0,0.0,0.0,0.0,0.0,0.0,0.0,0.0,0.0,0.0,0.0,0.0,0.0,0.0,0.0,0.0,0.0,0.0,0.0,0.0,0.0,0.0,0.0,0.0,0.0,0.0,0.0,0.0,0.0,0.0,0.0,0.0,0.0,0.0,0.0,0.0,0.0,0.0,0.0,0.0,0.0,2.2444,2.2402,2.2755,2.2699,2.217,2.2008,2.1048,0.0,0.0,0.0,0.0,0.0,0.0,0.0,0.0,0.0,0.0,0.0,0.0,0.0,0.0,0.0,0.0,0.0,0.0,0.0,0.0,0.0,0.0,0.0,0.0,0.0,0.0,0.0,0.0,0.0,0.0,0.0,0.0,0.0,0.0,0.0,0.0,0.0,0.0,0.0,0.0,0.0,0.0,0.0,0.0,0.0,0.0,0.0,0.0,0.0,0.0,0.0,0.0,0.0,0.0,0.0,0.0,0.0,0.0,0.0,0.0,0.0,0.0,0.0,0.0,0.0,0.0,0.0,0.0,0.0,0.0,0.0,0.0,0.0,0.0,0.0,0.0,0.0,0.0,0.0,0.0,0.0,0.0,0.0,0.0,0.0,0.0,0.0,0.0,0.0,0.0,0.0,0.0,0.0,0.0,0.0,0.0,0.0,0.0,0.0,0.0,0.0,0.0,0.0,0.0,0.0,0.0,0.0,2.1903,2.26,2.2451,2.2719,2.2538,2.1856,2.1997,2.1157,1.9214,0.0,0.0,0.0,0.0,0.0,0.0,0.0,0.0,0.0,0.0,0.0,0.0,0.0,0.0,0.0,0.0,0.0,0.0,0.0,0.0,0.0,0.0,0.0,0.0,0.0,0.0,0.0,0.0,0.0,0.0,0.0,0.0,0.0,0.0,0.0,0.0,0.0,0.0,2.2046,2.2754,0.0,0.0,0.0,0.0,0.0,0.0,0.0,0.0,2.1504,0.0,0.0,0.0,0.0,0.0,0.0,0.0,0.0,0.0,0.0,0.0,0.0,0.0,0.0,0.0,0.0,0.0,0.0,0.0,0.0,0.0,0.0,0.0,0.0,0.0,0.0,0.0,0.0,0.0,0.0,0.0,0.0,0.0,0.0,0.0,0.0,0.0,0.0,0.0,0.0,0.0,0.0,0.0,0.0,0.0,0.0,0.0,0.0,0.0,0.0,0.0,0.0,0.0,0.0,0.0,0.0,2.1308,2.1341,2.1662,2.2381,2.2136,2.2032,2.2063,2.2101,2.123,1.9458,0.0,0.0,0.0,0.0,0.0,0.0,0.0,0.0,0.0,0.0,0.0,0.0,0.0,0.0,0.0,0.0,0.0,0.0,0.0,0.0,0.0,0.0,0.0,0.0,0.0,0.0,0.0,0.0,0.0,0.0,0.0,0.0,0.0,0.0,0.0,0.0,0.0,0.0,0.0,2.4713,2.43,0.0,0.0,0.0,0.0,0.0,0.0,0.0,0.0,2.2342,0.0,0.0,0.0,0.0,0.0,0.0,0.0,0.0,0.0,0.0,0.0,0.0,0.0,0.0,0.0,0.0,0.0,0.0,0.0,0.0,0.0,0.0,0.0,0.0,0.0,0.0,0.0,0.0,0.0,0.0,0.0,0.0,0.0,0.0,0.0,0.0,0.0,0.0,0.0,0.0,0.0,0.0,0.0,0.0,0.0,0.0,0.0,0.0,0.0,0.0,0.0,0.0,0.0,0.0,0.0,2.1274,2.2175,2.2593,2.2569,2.2365,2.2252,2.2241,2.1664,2.0705,0.0,0.0,0.0,0.0,0.0,0.0,0.0,0.0,0.0,0.0,0.0,0.0,0.0,0.0,0.0,0.0,0.0,0.0,0.0,0.0,0.0,0.0,0.0,0.0,0.0,0.0,0.0,0.0,0.0,0.0,0.0,0.0,0.0,0.0,0.0,0.0,0.0,0.0,0.0,0.0,2.5781,2.5766,2.5834,0.0,0.0,0.0,0.0,0.0,0.0,2.3306,2.3352,0.0,0.0,0.0,0.0,0.0,0.0,0.0,0.0,0.0,0.0,0.0,0.0,0.0,0.0,0.0,0.0,0.0,0.0,0.0,0.0,0.0,0.0,0.0,0.0,0.0,0.0,0.0,0.0,0.0,0.0,0.0,0.0,0.0,0.0,0.0,0.0,0.0,0.0,0.0,0.0,0.0,0.0,0.0,0.0,0.0,0.0,0.0,0.0,0.0,0.0,0.0,0.0,0.0,0.0,0.0,2.1285,2.3029,2.3697,2.318,2.3128,2.3054,2.292,2.1872,2.0762,0.0,0.0,0.0,0.0,0.0,0.0,0.0,0.0,0.0,0.0,0.0,0.0,0.0,0.0,0.0,0.0,0.0,0.0,0.0,0.0,0.0,0.0,0.0,0.0,0.0,0.0,0.0,0.0,0.0,0.0,0.0,0.0,0.0,0.0,0.0,0.0,0.0,0.0,0.0,0.0,0.0,2.738,2.7306,2.6443,0.0,0.0,0.0,0.0,2.4413,2.4696,0.0,0.0,0.0,0.0,0.0,0.0,0.0,0.0,0.0,0.0,0.0,0.0,0.0,0.0,0.0,0.0,0.0,0.0,0.0,0.0,0.0,0.0,0.0,0.0,0.0,0.0,0.0,0.0,0.0,0.0,0.0,0.0,0.0,0.0,0.0,0.0,0.0,0.0,0.0,0.0,0.0,0.0,0.0,0.0,0.0,0.0,0.0,0.0,0.0,0.0,0.0,0.0,0.0,0.0,0.0,0.0,2.1997,2.3028,2.3961,2.4696,2.4565,2.4565,2.4672,2.4038,2.2596,0.0,0.0,0.0,0.0,0.0,0.0,0.0,0.0,0.0,0.0,0.0,0.0,0.0,0.0,0.0,0.0,0.0,0.0,0.0,0.0,0.0,0.0,0.0,0.0,0.0,0.0,0.0,0.0,0.0,0.0,0.0,0.0,0.0,0.0,0.0,0.0,0.0,0.0,0.0,0.0,0.0,2.9106,2.7533,2.7216,2.6918,0.0,0.0,2.6602,2.7573,2.7347,0.0,0.0,0.0,0.0,0.0,0.0,0.0,0.0,0.0,0.0,0.0,0.0,0.0,0.0,0.0,0.0,0.0,0.0,0.0,0.0,0.0,0.0,0.0,0.0,0.0,0.0,0.0,0.0,0.0,0.0,0.0,0.0,0.0,0.0,0.0,0.0,0.0,0.0,0.0,0.0,0.0,0.0,0.0,0.0,0.0,0.0,0.0,0.0,0.0,0.0,0.0,0.0,0.0,0.0,0.0,2.2642,2.2659,2.4263,2.5152,2.5146,2.5063,2.492,2.468,2.3625,2.2175,0.0,0.0,0.0,0.0,0.0,0.0,0.0,0.0,0.0,0.0,0.0,0.0,0.0,0.0,0.0,0.0,0.0,0.0,0.0,0.0,0.0,0.0,0.0,0.0,0.0,0.0,0.0,0.0,0.0,0.0,0.0,0.0,0.0,0.0,0.0,0.0,0.0,0.0,0.0,0.0,0.0,0.0,2.8898,2.8549,0.0,0.0,0.0,2.7979,2.8156,0.0,0.0,0.0,0.0,0.0,0.0,0.0,0.0,0.0,0.0,0.0,0.0,0.0,0.0,0.0,0.0,0.0,0.0,0.0,0.0,0.0,0.0,0.0,0.0,0.0,0.0,0.0,0.0,0.0,0.0,0.0,0.0,0.0,0.0,0.0,0.0,0.0,0.0,0.0,0.0,0.0,0.0,0.0,0.0,0.0,0.0,0.0,0.0,0.0,0.0,0.0,0.0,0.0,0.0,0.0,0.0,0.0,2.3115,2.5451,2.6414,2.5861,2.5873,2.5556,2.4958,2.3799,0.0,0.0,0.0,0.0,0.0,0.0,0.0,0.0,0.0,0.0,0.0,0.0,0.0,0.0,0.0,0.0,0.0,0.0,0.0,0.0,0.0,0.0,0.0,0.0,0.0,0.0,0.0,2.0726,0.0,0.0,0.0,0.0,0.0,0.0,0.0,0.0,0.0,0.0,0.0,0.0,0.0,0.0,2.9478,3.0165,2.9792,2.9486,0.0,0.0,2.9196,2.8738,2.8675,2.8397,0.0,0.0,0.0,0.0,0.0,0.0,0.0,0.0,0.0,0.0,0.0,0.0,0.0,0.0,0.0,0.0,0.0,0.0,0.0,0.0,0.0,0.0,0.0,0.0,0.0,0.0,0.0,0.0,0.0,0.0,0.0,0.0,0.0,0.0,0.0,0.0,0.0,0.0,0.0,0.0,0.0,0.0,0.0,0.0,0.0,0.0,0.0,0.0,0.0,0.0,0.0,0.0,0.0,0.0,0.0,2.3308,2.5978,2.7377,2.7356,2.7356,2.7083,2.6544,2.5907,2.4034,0.0,0.0,0.0,0.0,0.0,0.0,0.0,0.0,0.0,0.0,0.0,0.0,0.0,0.0,0.0,0.0,0.0,0.0,0.0,0.0,0.0,0.0,0.0,0.0,0.0,0.0,0.0,0.0,0.0,0.0,0.0,0.0,0.0,0.0,0.0,0.0,0.0,0.0,0.0,0.0,0.0,3.1199,3.072,3.0605,3.0781,0.0,0.0,3.028,3.0253,3.024,2.9823,2.8534,0.0,0.0,0.0,0.0,0.0,0.0,0.0,0.0,0.0,0.0,0.0,0.0,0.0,0.0,0.0,0.0,0.0,0.0,0.0,0.0,0.0,0.0,0.0,0.0,0.0,0.0,0.0,0.0,0.0,0.0,0.0,0.0,0.0,0.0,0.0,0.0,0.0,0.0,0.0,0.0,0.0,0.0,0.0,0.0,0.0,0.0,0.0,0.0,0.0,0.0,0.0,0.0,0.0,2.387,2.3958,2.5673,2.6763,2.7092,2.6693,2.6203,2.5672,2.5437,2.4041,0.0,0.0,0.0,0.0,0.0,0.0,0.0,0.0,0.0,0.0,0.0,0.0,0.0,0.0,0.0,0.0,0.0,0.0,0.0,0.0,0.0,0.0,0.0,0.0,0.0,0.0,0.0,0.0,2.5888,2.6468,2.6817,0.0,0.0,0.0,0.0,0.0,0.0,0.0,0.0,0.0,0.0,3.1604,3.1296,3.1249,0.0,0.0,3.1322,3.1153,3.1153,3.0529,2.9989,2.9812,2.9169,0.0,0.0,0.0,0.0,0.0,0.0,0.0,0.0,0.0,0.0,0.0,0.0,0.0,0.0,0.0,0.0,0.0,0.0,0.0,0.0,0.0,0.0,0.0,0.0,0.0,0.0,0.0,0.0,0.0,0.0,0.0,0.0,0.0,0.0,0.0,0.0,0.0,0.0,0.0,0.0,0.0,0.0,0.0,0.0,0.0,0.0,0.0,0.0,0.0,0.0,0.0,0.0,2.4736,2.4706,2.6151,2.6995,2.7238,2.6494,2.594,2.5577,2.5356,2.4304,0.0,0.0,0.0,0.0,0.0,0.0,0.0,0.0,0.0,0.0,0.0,0.0,0.0,0.0,0.0,0.0,0.0,0.0,0.0,0.0,0.0,0.0,0.0,0.0,0.0,0.0,0.0,0.0,2.8064,2.8541,2.8122,0.0,0.0,0.0,0.0,0.0,0.0,0.0,0.0,0.0,0.0,3.2493,3.2434,3.2214,3.2069,3.2069,3.184,3.1653,3.1429,3.0708,3.0228,3.0432,0.0,0.0,0.0,0.0,0.0,0.0,0.0,0.0,0.0,0.0,0.0,0.0,0.0,0.0,0.0,0.0,0.0,0.0,0.0,0.0,0.0,0.0,0.0,0.0,0.0,0.0,0.0,0.0,0.0,0.0,2.4379,0.0,0.0,0.0,0.0,0.0,0.0,0.0,0.0,0.0,0.0,0.0,0.0,0.0,0.0,0.0,0.0,0.0,0.0,0.0,0.0,0.0,0.0,0.0,2.5409,2.7627,2.8564,2.7952,2.7266,2.6831,2.6793,2.6152,2.5217,2.4033,0.0,0.0,0.0,0.0,0.0,0.0,0.0,0.0,0.0,0.0,0.0,0.0,0.0,0.0,0.0,0.0,0.0,0.0,0.0,0.0,0.0,0.0,0.0,0.0,0.0,0.0,2.8301,2.8972,2.9356,0.0,0.0,0.0,0.0,0.0,0.0,0.0,0.0,0.0,0.0,3.3858,3.425,3.4211,3.363,3.3157,3.3157,3.2467,3.1725,3.1195,3.1025,3.073,0.0,0.0,0.0,0.0,0.0,0.0,0.0,0.0,0.0,0.0,0.0,0.0,0.0,0.0,0.0,0.0,0.0,0.0,0.0,0.0,0.0,0.0,0.0,0.0,0.0,0.0,0.0,2.9872,2.8923,0.0,0.0,0.0,0.0,0.0,0.0,0.0,0.0,0.0,0.0,0.0,3.3266,3.3917,0.0,0.0,0.0,0.0,0.0,0.0,0.0,0.0,0.0,0.0,0.0,0.0,2.6445,2.5595,2.716,2.7866,2.7582,2.6848,2.644,2.6433,2.6201,2.5524,2.4401,0.0,0.0,0.0,0.0,0.0,0.0,0.0,0.0,0.0,0.0,0.0,0.0,0.0,0.0,0.0,0.0,0.0,0.0,0.0,0.0,0.0,0.0,0.0,0.0,0.0,2.9504,0.0,0.0,0.0,0.0,0.0,0.0,0.0,0.0,0.0,0.0,0.0,3.4375,3.5269,3.5192,3.4861,3.438,3.4109,3.3939,0.0,0.0,0.0,0.0,0.0,0.0,0.0,0.0,0.0,0.0,0.0,0.0,0.0,0.0,3.2769,3.2033,3.1232,3.069,3.0676,0.0,0.0,0.0,0.0,0.0,0.0,0.0,0.0,0.0,0.0,0.0,0.0,0.0,0.0,3.2659,0.0,3.1713,0.0,0.0,0.0,0.0,0.0,0.0,0.0,0.0,3.4619,3.5456,3.6133,3.6754,3.6696,0.0,3.5787,3.4481,0.0,0.0,0.0,0.0,0.0,0.0,0.0,0.0,2.7891,2.6952,2.7953,2.8252,2.7745,2.6974,2.6689,2.6886,2.6834,2.6491,2.582,2.5248,2.4776,0.0,0.0,0.0,0.0,0.0,0.0,0.0,0.0,0.0,0.0,0.0,0.0,0.0,0.0,0.0,0.0,0.0,0.0,0.0,0.0,0.0,0.0,0.0,3.0829,0.0,0.0,0.0,0.0,0.0,0.0,0.0,0.0,0.0,3.6008,3.5735,3.5904,3.6843,3.6385,3.58,3.532,0.0,0.0,0.0,0.0,0.0,0.0,0.0,3.3317,3.403,3.3709,3.3408,3.3776,3.4001,3.4071,3.3862,0.0,0.0,3.3275,3.2616,3.2223,3.2186,3.2359,3.2182,3.105,3.1447,3.1612,0.0,0.0,0.0,0.0,0.0,0.0,0.0,0.0,3.4772,3.4383,0.0,3.376,0.0,0.0,0.0,0.0,0.0,0.0,0.0,0.0,3.89,3.9595,3.9009,3.9493,3.9465,3.8745,3.804,3.7713,3.7535,3.3687,0.0,0.0,0.0,0.0,0.0,0.0,3.0705,2.9362,2.9945,2.9725,2.8424,2.768,2.759,2.8162,2.8054,2.8039,2.8146,2.762,2.7025,2.6298,2.5731,0.0,0.0,0.0,0.0,0.0,0.0,0.0,0.0,0.0,0.0,0.0,0.0,0.0,0.0,0.0,0.0,0.0,0.0,0.0,0.0,3.1054,0.0,0.0,0.0,0.0,0.0,0.0,0.0,0.0,0.0,0.0,3.714,3.7016,3.728,3.7951,0.0,0.0,0.0,0.0,3.5659,3.5659,3.493,3.4413,3.4413,3.4365,3.4346,3.439,0.0,0.0,3.5227,3.5664,3.5782,3.5273,3.5565,3.5774,3.4945,3.4213,3.381,3.3772,3.3363,3.2898,3.2354,3.2155,3.2223,3.7322,0.0,0.0,0.0,0.0,3.598,3.6743,3.8279,3.7802,3.7261,3.6666,3.6683,0.0,0.0,0.0,0.0,0.0,0.0,3.6745,3.8378,3.8923,3.957,4.0336,4.05,4.0458,4.0269,4.0053,3.996,3.9878,3.7767,3.5334,3.2677,0.0,0.0,0.0,0.0,3.0043,2.8827,2.9341,2.9264,2.8427,2.8186,2.8186,2.8323,2.8299,2.8314,2.8348,2.8635,2.8482,2.781,2.7914,0.0,0.0,0.0,0.0,0.0,0.0,0.0,0.0,0.0,0.0,0.0,0.0,0.0,0.0,0.0,0.0,0.0,0.0,0.0,3.1023,3.2275,3.3318,0.0,0.0,0.0,0.0,0.0,0.0,0.0,0.0,0.0,3.9904,3.8748,3.8106,0.0,0.0,3.6999,3.6999,3.677,3.6585,3.66,0.0,0.0,0.0,3.5785,3.5567,3.5998,3.5807,3.5575,3.5663,3.5407,3.5131,3.4974,3.5058,3.5224,3.5387,3.4665,3.3924,3.3431,3.321,3.2911,3.2381,3.2531,3.2721,3.9486,3.8329,3.7737,3.788,3.8479,3.8116,3.8791,4.0228,3.9817,3.944,3.9108,3.9108,3.8244,3.685,3.6563,0.0,0.0,0.0,3.8217,3.9754,3.9671,4.0096,4.0853,4.0894,4.0894,4.0888,4.0597,4.0597,4.0894,3.9753,3.7995,3.5635,0.0,0.0,3.1861,3.1584,3.0919,2.9903,2.9926,2.9626,2.8959,2.8771,2.8677,2.8677,2.8677,2.8881,2.9328,2.9736,2.9917,2.9808,3.0061,2.9799,0.0,0.0,0.0,0.0,0.0,0.0,0.0,0.0,0.0,0.0,0.0,2.9592,2.8969,0.0,0.0,0.0,3.1222,3.2274,3.4355,3.5024,0.0,0.0,0.0,0.0,0.0,0.0,0.0,4.1045,4.1477,4.1555,4.1201,3.9946,3.9086,3.9136,3.8218,3.7433,3.7241,0.0,3.709,3.7075,3.703,3.6999,3.6999,3.6631,3.6459,3.6811,3.652,3.6254,3.6287,3.5959,3.5689,3.5674,3.5674,3.5699,3.5762,3.5238,3.4704,3.4242,3.4096,3.3756,3.2899,3.2922,3.2964,4.0935,4.0806,3.9465,3.9282,3.9859,3.9885,4.0269,4.0912,4.0894,4.0894,4.0894,4.0894,4.0474,3.975,3.91,0.0,0.0,3.9733,4.0112,4.0894,4.0843,4.0808,4.0808,4.0808,4.0808,4.0767,4.0118,4.0169,4.0847,4.022,3.9539,3.8845,3.6787,3.5671,3.544,3.3835,3.2736,3.2092,3.1183,3.0435,2.9826,2.9393,2.9143,2.9159,2.9166,2.9651,3.0642,3.0762,3.1092,3.1753,3.1913,3.1375,3.019,0.0,0.0,0.0,0.0,0.0,0.0,0.0,0.0,0.0,0.0,0.0,0.0,0.0,0.0,0.0,3.4457,0.0,3.901,3.8564,0.0,0.0,0.0,4.0161,4.0564,4.1607,4.2142,4.1771,0.0,0.0,0.0,0.0,4.0122,3.9516,3.8845,3.8197,3.7685,3.7447,3.7268,3.7328,3.7165,3.7045,3.706,3.7045,3.7015,3.7046,3.703,3.6984,3.6999,3.6999,3.7015,3.6953,3.7045,3.6847,3.6149,3.6053,3.5984,3.5852,3.5551,3.5029,3.3876,3.3534,3.3234,4.1117,4.1076,4.0761,4.0635,4.0638,4.0638,4.0752,4.0894,4.0894,4.0894,4.0894,4.0894,4.0791,4.0618,4.0446,4.0463,4.0578,3.9974,4.0112,4.0843,4.025,3.9974,3.9991,3.9997,3.9974,3.9974,3.98,4.0126,4.0853,4.0734,4.0244,3.9478,3.8373,3.7077,3.5481,3.3441,3.2321,3.2158,3.0909,3.0141,2.9892,2.9767,2.9695,2.9639,2.9639,2.9764,3.003,3.0526,3.0881,3.1082,3.1945,3.2296,3.1973,3.0983,0.0,0.0,0.0,0.0,0.0,0.0,0.0,0.0,0.0,3.4465,3.2161,0.0,3.6563,0.0,3.7454,3.8391,3.8202,3.9519,0.0,0.0,4.1276,4.1855,4.3907,4.3525,4.3443,4.4353,4.4099,4.3552,4.2843,4.2065,4.1146,4.0024,3.9358,3.8963,3.8783,3.8367,3.8039,3.7982,3.7669,3.7391,3.7361,3.7391,3.7361,3.7391,3.7361,3.7361,3.7391,3.7407,3.7407,3.7391,3.7391,3.7285,3.7119,3.7104,3.709,3.6986,3.5965,3.489,3.4562,3.4451,3.4331,4.1209,4.1209,4.1209,4.1157,4.1035,4.1018,4.1012,4.1,4.1012,4.1012,4.1,4.1018,4.1018,4.1041,4.1035,4.0845,4.0516,4.0083,3.9945,3.9956,3.9536,3.9306,3.9306,3.9221,3.9198,3.9198,3.9198,3.9439,3.9894,4.0181,3.9974,3.9198,3.8479,3.7336,3.5849,3.3929,3.2797,3.2462,3.1316,3.0588,3.0302,3.0302,3.0239,3.0182,3.0208,3.0314,3.0477,3.0879,3.1239,3.1565,3.22,3.2696,3.3014,3.2324,3.207,0.0,0.0,0.0,0.0,0.0,0.0,0.0,0.0,0.0,0.0,0.0,3.8931,0.0,3.9986,0.0,4.0617,4.18,4.2851,4.3541,4.3369,4.3763,4.5258,4.4437,4.4076,4.4828,4.394,4.3138,4.2706,4.1999,4.1264,4.0485,4.0137,3.9782,3.9286,3.892,3.8601,3.8334,3.8042,3.7756,3.7569,3.751,3.751,3.751,3.751,3.751,3.751,3.751,3.751,3.751,3.751,3.751,3.751,3.751,3.751,3.7375,3.6708,3.5914,3.5469,3.5307,3.5207,4.1418,4.1401,4.1401,4.1401,4.1401,4.1401,4.1295,4.1117,4.118,4.1157,4.1117,4.118,4.1209,4.1209,4.1105,4.0699,4.0108,3.9899,3.9482,3.8903,3.8751,3.8673,3.8651,3.8545,3.8501,3.8461,3.8461,3.8513,3.8634,3.9232,3.9129,3.8301,3.7663,3.6853,3.5852,3.4496,3.3404,3.2683,3.1918,3.1329,3.0925,3.0989,3.0929,3.0744,3.0908,3.1176,3.1448,3.1579,3.1988,3.2743,3.2897,3.3271,3.4002,3.4036,3.4048,0.0,3.4069,0.0,0.0,0.0,0.0,0.0,0.0,0.0,0.0,4.0057,4.1221,4.1739,4.2179,4.2915,4.401,4.4303,4.4699,4.5311,4.5414,4.5414,4.538,4.4734,4.4311,4.4311,4.2948,4.1992,4.1992,4.136,4.0912,4.0847,4.0823,4.0476,3.9679,3.9375,3.9135,3.8585,3.8446,3.8298,3.7902,3.7685,3.7642,3.7612,3.7553,3.751,3.751,3.751,3.751,3.751,3.751,3.751,3.751,3.751,3.751,3.751,3.7405,3.7134,3.6477,3.6197,3.5866,4.2503,4.2485,4.2521,4.2503,4.2503,4.2485,4.1994,4.1203,4.1186,4.1186,4.118,4.1186,4.1209,4.1157,4.0577,4.0229,4.0038,3.8786,3.849,3.8868,3.8277,3.7999,3.7978,3.7978,3.7897,3.7793,3.7793,3.8079,3.8594,3.8732,3.8094,3.6749,3.6594,3.5542,0.0,0.0,0.0,0.0,3.1832,3.167,3.1483,3.2098,3.2076,3.138,3.1944,0.0,3.2349,3.2369,3.3017,3.4366,3.5015,0.0,0.0,0.0,0.0,0.0,0.0,0.0,0.0,0.0,0.0,0.0,3.9296,3.9043,3.8614,4.1075,4.276,4.2907,4.4035,4.4604,4.4277,4.4811,4.5225,4.538,4.5414,4.5414,4.538,4.4734,4.4311,4.4276,4.2948,4.1974,4.193,4.1378,4.0912,4.0894,4.0894,4.0823,4.0614,4.0145,3.9808,3.9697,3.9279,3.9001,3.8882,3.8451,3.8141,3.8112,3.7756,3.7553,3.7539,3.7539,3.751,3.751,3.751,3.751,3.751,3.751,3.751,3.751,3.751,3.7435,3.727,3.721,3.7104,4.2792,0.0,4.2792,4.2792,0.0,4.2792,4.2483,4.1994,4.1994,4.1976,4.1976,4.1976,4.1994,4.1961,4.1194,4.0623,4.0197,3.9025,3.8493,3.8473,3.8064,3.785,3.785,3.7792,3.7717,3.766,3.766,3.7813,3.8081,3.7912,3.7195,3.6058,3.5492,3.4438,3.2938,3.2524,3.2179,3.18,3.18,3.1954,3.2242,3.2655,3.2786,3.2706,0.0,0.0,0.0,0.0,0.0,0.0,0.0,0.0,0.0,0.0,0.0,3.7818,3.7818,3.8007,3.8408,3.9,3.9715,4.0457,4.0779,4.0909,4.0795,4.2285,4.3517,4.4234,4.4966,4.5242,4.4906,4.5173,4.5414,4.5414,4.5414,4.5276,4.4854,4.4233,4.3679,4.3247,4.2275,4.1613,4.1596,4.1289,4.1047,4.1059,4.1029,4.1006,4.0995,4.07,4.036,4.0053,3.9558,3.9189,3.9162,3.8974,3.8739,3.8701,3.8523,3.823,3.7943,3.7915,3.7815,3.7583,3.751,3.751,3.751,3.751,3.751,3.751,3.751,3.751,3.751,3.751,3.748,4.3014,4.3014,4.2996,4.2996,4.3014,4.3014,4.2996,4.2996,0.0,0.0,0.0,4.2792,4.2719,4.2538,4.1741,4.0945,4.0148,3.9352,3.8682,3.8101,3.7998,3.7946,3.7911,3.7842,3.7736,3.7718,3.7754,3.7684,3.7614,3.7268,3.6727,3.5928,3.4992,3.4121,3.3303,3.2697,3.2401,3.2383,3.2151,3.2352,3.3076,3.3248,3.3503,3.394,3.4174,3.4519,3.5022,3.526,3.5776,3.6573,3.6741,3.7175,3.7897,3.7998,3.8639,3.9882,4.0094,4.044,4.1082,4.1445,4.1626,4.1626,4.1969,4.2483,4.3179,4.3339,4.3999,4.5337,4.5503,4.5537,4.5537,4.545,4.5414,4.5414,4.5423,4.5156,4.4423,4.3746,4.311,4.233,4.1679,4.1209,4.1221,4.1169,4.1146,4.118,4.1152,4.1146,4.1163,4.1018,4.0734,4.0286,3.991,3.9575,3.9523,3.9401,3.9348,3.9348,3.9259,3.9001,3.8601,3.8463,3.8282,3.796,3.7743,3.7685,3.7655,3.7583,3.751,3.751,3.751,3.751,3.751,3.751,3.751,4.3828,4.3844,4.3844,4.3825,4.3825,4.3825,4.3825,4.3777,4.3105,4.2792,4.2792,4.2792,4.2411,4.1741,4.0926,4.0148,3.9334,3.8591,3.8192,0.0,3.8085,3.8066,3.8066,3.8068,3.7981,3.7858,3.7876,3.7807,3.7684,3.7631,3.7219,3.6555,3.6273,3.5687,3.494,3.4779,3.4726,3.4691,3.3417,3.3128,3.3923,3.4525,3.4611,3.4108,3.4714,3.5076,3.5177,3.5818,3.6801,3.8198,3.8865,3.9572,4.0319,4.0669,4.1016,4.1253,4.1601,4.1905,4.199,4.2092,4.2095,4.2095,4.2157,4.2507,4.3215,4.3908,4.4711,4.5572,4.591,4.6105,4.6062,4.5701,4.5502,4.545,4.5511,4.5269,4.4558,4.3836,4.3145,4.2386,4.1673,4.1209,4.1232,4.1209,4.1186,4.1209,4.1226,4.1203,4.1203,4.1129,4.1006,4.084,4.0728,4.068,4.05,4.0195,3.9927,3.9902,3.9558,3.9312,3.9135,3.9092,3.9011,3.8963,3.8507,3.8226,3.8197,3.7786,3.7671,3.7642,3.7612,3.7569,3.7553,3.7524,3.751,4.4005,4.4005,4.4005,4.4005,4.4005,4.4005,4.4005,4.3955,4.361,4.3457,4.3457,4.3457,4.2999,4.2209,4.1417,4.0609,3.9803,3.9029,3.8643,3.8643,3.8643,3.8628,3.8661,3.8628,3.8594,3.8545,3.8545,3.8499,3.835,3.779,3.7293,3.688,3.6289,3.5743,3.5385,3.5367,3.5533,3.5877,3.4748,3.4533,3.5343,3.5676,3.5773,3.5612,3.5976,3.6238,3.6443,3.7146,3.8174,3.953,4.0274,4.0984,4.1561,4.1778,4.1885,4.1885,4.2074,4.2216,4.2216,4.2438,4.2692,4.2884,4.294,4.3104,4.343,4.3699,4.4371,4.5548,4.5871,4.6175,4.6571,4.6484,4.6365,4.6365,4.5862,4.5155,4.4394,4.3552,4.2707,4.198,4.1613,4.1431,4.1408,4.1363,4.134,4.1386,4.1431,4.1386,4.1318,4.129,4.1238,4.1088,4.1053,4.1006,4.0982,4.0734,4.0549,4.059,4.0402,4.0137,3.9944,3.98,3.9645,3.9358,3.9028,3.8821,3.8794,3.8606,3.8455,3.8399,3.8116,3.7956,3.7915,3.7727,3.751,4.4055,4.4055,4.4005,4.4005,4.4005,4.4005,4.4005,4.4005,4.4005,4.4005,4.3986,4.3819,4.328,4.2482,4.1683,4.0866,4.0067,3.9398,3.9082,3.9101,3.9101,3.9101,3.9101,3.9101,3.9101,3.9101,3.9101,3.9073,3.8915,3.8136,3.7658,3.7531,3.6713,3.6279,3.6263,3.6282,3.6526,3.697,3.6361,3.6228,3.6631,3.6649,3.6772,3.7004,3.7036,3.7178,3.7537,3.8403,3.9324,4.0222,4.1159,4.1821,4.2175,4.2318,4.234,4.2358,4.244,4.25,4.2539,4.2864,4.3214,4.3513,4.3617,4.3651,4.3637,4.3503,4.3994,4.5309,4.5831,4.6277,4.678,4.7064,4.7216,4.714,4.6391,4.5472,4.4489,4.3665,4.2735,4.1859,4.1657,4.1719,4.1604,4.1515,4.1471,4.156,4.1604,4.156,4.1471,4.1448,4.1386,4.1295,4.1198,4.1123,4.114,4.1035,4.0989,4.1099,4.1076,4.0877,4.0611,4.0497,4.0309,3.9935,3.962,3.9463,3.9428,3.9242,3.9135,3.9044,3.8756,3.8518,3.849,3.8071,3.7655,4.4165,4.4169,4.4036,4.4005,4.4005,4.4005,4.4005,4.4005,4.4005,4.4005,4.3949,4.3225,4.2482,4.1646,4.0884,4.0067,3.9268,3.9138,3.9101,3.9101,3.9101,3.9101,3.9101,3.9101,3.9101,3.9101,3.9101,3.9101,3.9087,3.8948,3.8873,3.8839,3.8718,3.8567,3.856,3.8527,3.8582,3.8693,3.8619,3.818,3.7452,3.7398,3.7416,3.7433,3.7433,3.745,3.7517,3.898,3.9781,3.9963,4.1334,4.2157,4.2239,4.2596,4.2844,4.2863,4.316,4.3391,4.3461,4.3495,4.36,4.3754,4.3753,4.3788,4.3788,4.3741,4.4113,4.5001,4.599,4.6562,4.6743,4.7057,4.7327,4.7367,4.714,4.6636,4.5245,4.4965,4.425,4.2335,4.2133,4.2008,4.1762,4.167,4.1604,4.167,4.1626,4.1582,4.1582,4.156,4.156,4.1498,4.1363,4.1226,4.1203,4.1186,4.1163,4.1163,4.1186,4.114,4.1094,4.1076,4.1036,4.0754,4.0473,4.0153,4.0003,3.9671,3.9312,3.9428,3.9295,3.9125,3.9055,3.8629,3.8112,4.424,4.424,4.4192,4.4177,4.4177,4.4177,4.4165,4.4119,4.4101,4.407,4.3838,4.2667,4.1906,4.1534,4.0754,3.9937,3.912,3.9101,3.9101,3.9101,3.9101,3.9101,3.9101,3.9101,3.9101,3.9101,3.9101,3.9101,3.9101,3.9101,3.9087,3.9045,3.9045,3.905,3.9017,3.9017,3.9007,3.8968,3.8968,3.8755,3.8378,3.8281,3.8148,3.7929,3.7878,3.7721,3.7702,3.9059,3.9995,4.031,4.1789,4.2771,4.3032,4.3304,4.3428,4.3445,4.3566,4.3686,4.3719,4.3719,4.3736,4.3788,4.3853,4.3851,4.3867,4.3881,4.4061,4.449,4.5672,4.6635,4.7169,4.7793,4.8214,4.8121,4.7657,4.679,4.5695,4.492,4.3927,4.276,4.256,4.2501,4.232,4.2092,4.1984,4.192,4.1766,4.1626,4.1604,4.1604,4.1604,4.1604,4.1515,4.1408,4.134,4.1232,4.1255,4.1295,4.1318,4.1358,4.1408,4.1363,4.1318,4.1335,4.1007,4.0778,4.0802,4.0659,4.0392,4.0245,3.9817,3.961,3.9286,3.9001,3.8618,4.4329,4.431,4.43,4.4318,4.4318,4.4318,4.427,4.4229,4.4229,4.4184,4.3884,4.2326,4.1619,4.1489,4.0527,3.9677,3.9157,3.9101,3.9101,3.9101,3.9101,3.9101,3.9101,3.9101,3.9101,3.9101,3.9101,3.9101,3.9101,3.9101,3.9101,3.9101,3.9101,3.9101,3.9101,3.9101,3.9073,3.9036,3.9021,3.9007,3.8935,3.891,3.871,3.8444,3.8565,3.851,3.829,3.977,4.0764,4.1101,4.2466,4.3338,4.3634,4.3736,4.3788,4.3788,4.3788,4.3804,4.3837,4.3837,4.3835,4.3851,4.3897,4.3929,4.3945,4.3974,4.4005,4.4119,4.5222,4.6357,4.7227,4.8076,4.863,4.878,4.805,4.7223,4.6156,4.5169,4.4309,4.3196,4.2941,4.2922,4.2791,4.2541,4.236,4.2322,4.2029,4.1784,4.174,4.1697,4.1604,4.1604,4.1604,4.156,4.1471,4.1386,4.1386,4.1426,4.1448,4.1493,4.1565,4.1515,4.1471,4.1431,4.134,4.1255,4.114,4.1163,4.114,4.1035,4.0645,4.017,3.9961,3.9636,3.9279,4.4416,4.4383,4.4348,4.4314,4.4318,4.43,4.43,4.4285,4.4285,4.4255,4.3919,4.2414,4.1688,4.1524,3.9961,3.9138,3.9101,3.9101,3.9101,3.9101,3.9101,3.9101,3.9101,3.9101,3.9101,3.9101,3.9101,3.9101,3.9101,3.9101,3.9101,3.9101,3.9101,3.9101,3.9101,3.9101,3.9101,3.9087,3.9087,3.9087,3.9092,3.9021,3.9009,3.8992,3.9601,3.989,4.0111,4.1562,4.2426,4.2479,4.3275,4.3753,4.3788,4.3786,4.3804,4.3804,4.3804,4.3818,4.3865,4.3881,4.3913,4.3992,4.3974,4.3989,4.4008,4.3989,4.4005,4.4023,4.4785,4.566,4.6477,4.7369,4.8147,4.8816,4.8817,4.7984,4.6628,4.6209,4.5406,4.3879,4.3371,4.3248,4.2885,4.2791,4.2772,4.2715,4.2422,4.2195,4.2133,4.1895,4.174,4.1697,4.1675,4.1604,4.1604,4.1538,4.156,4.156,4.156,4.1582,4.1582,4.1604,4.1582,4.156,4.1471,4.1403,4.1363,4.1318,4.1232,4.1157,4.1099,4.0799,4.0573,4.0286,3.9927,4.4473,4.4473,4.4444,4.443,4.443,4.443,4.4397,4.4373,4.4373,4.3978,4.3308,4.2244,4.1479,4.0938,3.9823,3.9242,3.917,3.9129,3.9101,3.9101,3.9101,3.9101,3.9101,3.9101,3.9101,3.9101,3.9101,3.9101,3.9101,3.9101,3.9101,3.9101,3.9101,3.9101,3.9101,3.9101,3.9101,3.9101,3.9101,3.9101,3.9194,3.9611,3.988,3.9884,4.0004,4.0366,4.092,4.201,4.2617,4.2617,4.3407,4.3867,4.3867,4.3897,4.3929,4.3929,4.3929,4.3945,4.3958,4.3976,4.3974,4.3989,4.4005,4.4005,4.4005,4.4005,4.4005,4.4079,4.4246,4.4841,4.5769,4.6903,4.8017,4.8667,4.8426,4.772,4.6717,4.6048,4.5201,4.4105,4.3777,4.371,4.3525,4.3335,4.3195,4.3159,4.2847,4.2619,4.258,4.2442,4.2302,4.2302,4.2154,4.1984,4.1984,4.174,4.1604,4.1604,4.1604,4.1582,4.1604,4.1604,4.1582,4.1582,4.1538,4.1515,4.1475,4.1426,4.134,4.1318,4.1261,4.1175,4.1175,4.0772,4.049,4.4482,4.4482,4.4482,4.4482,4.4482,4.4482,4.4487,4.4426,4.4426,4.4046,4.3338,4.2315,4.1511,4.0889,3.989,3.9373,3.9283,3.9183,3.9129,3.9129,3.9115,3.9101,3.9101,3.9101,3.9101,3.9101,3.9101,3.9101,3.9101,3.9101,3.9101,3.9101,3.9361,3.951,3.9547,3.977,3.9918,3.99,3.99,3.9918,3.9993,4.0476,4.0921,4.1092,4.1022,4.1237,4.1847,4.2625,4.3032,4.3124,4.3635,4.3945,4.3945,4.3974,4.4005,4.4005,4.4005,4.4005,4.4005,4.4005,4.4005,4.4005,4.4005,4.4005,4.4005,4.4005,4.4005,4.4005,4.4023,4.4358,4.5231,4.6271,4.7256,4.7906,4.7646,4.6995,4.6197,4.5639,4.4952,4.4212,4.3974,4.3989,4.3974,4.3742,4.3627,4.3575,4.3248,4.2996,4.2996,4.2885,4.2792,4.2773,4.2541,4.2402,4.24,4.2239,4.1809,4.1723,4.1653,4.1648,4.1604,4.1604,4.1604,4.1604,4.1604,4.1604,4.1582,4.1515,4.1493,4.1448,4.138,4.1272,4.1249,4.1209,4.0937,4.4496,4.4482,4.4482,4.4482,4.4482,4.4482,4.4482,4.4501,4.4482,4.4346,4.3891,4.2636,4.1911,4.148,4.0173,3.95,3.9438,3.9315,3.9215,3.9202,3.9129,3.9101,3.9101,3.9101,3.9175,3.925,3.9194,3.9212,3.9342,3.938,3.9342,3.938,4.0067,4.0383,4.0401,4.0996,4.1441,4.1386,4.133,4.1423,4.1571,4.1534,4.1906,4.2556,4.2652,4.2708,4.2801,4.3525,4.3878,4.3915,4.3952,4.4005,4.3989,4.4005,4.4005,4.4005,4.4005,4.4005,4.4005,4.4005,4.4005,4.4005,4.4005,4.4005,4.4005,4.4005,4.4005,4.4005,4.4042,4.4339,4.5008,4.5324,4.5769,4.6382,4.6587,4.616,4.5584,4.5287,4.4952,4.4209,4.4005,4.4005,4.4005,4.3958,4.3908,4.386,4.3627,4.3406,4.3388,4.3177,4.2885,4.2885,4.2866,4.281,4.2792,4.2753,4.2279,4.1899,4.1784,4.1697,4.1626,4.1604,4.1604,4.1604,4.1604,4.1604,4.1604,4.156,4.156,4.1538,4.1431,4.1386,4.1386,4.1363,4.1295,4.4616,4.4496,4.4482,4.4482,4.4482,4.4482,4.4482,4.4496,4.4482,4.4182,4.3605,4.3098,4.2254,4.1246,4.054,4.0071,3.959,3.9451,3.9341,3.9248,3.9183,3.9161,3.9133,3.912,3.9417,4.0011,4.0568,4.0791,4.0773,4.0791,4.0824,4.0884,4.1051,4.12,4.1219,4.1475,4.1605,4.1605,4.1605,4.1605,4.1664,4.2147,4.2575,4.2816,4.3318,4.3633,4.3633,4.3875,4.4005,4.4005,4.4005,4.4005,4.4005,4.4005,4.4005,4.4005,4.4005,4.4005,4.4005,4.4005,4.4005,4.4005,4.4005,4.4005,4.4005,4.4005,4.4005,4.4005,4.4005,4.4153,4.4339,4.4395,4.5026,4.6345,4.6011,4.5565,4.5249,4.4785,4.4339,4.4098,4.4005,4.4005,4.4005,4.4005,4.4005,4.4005,4.3876,4.3793,4.3761,4.3644,4.3625,4.3609,4.3439,4.3212,4.3212,4.3123,4.2754,4.2382,4.2175,4.1984,4.1852,4.1766,4.1723,4.1631,4.1631,4.1604,4.1604,4.1604,4.1604,4.1604,4.152,4.152,4.1538,4.1475,4.1408,4.4868,4.4777,4.4764,4.4764,4.4764,4.4777,4.4745,4.4751,4.4661,4.4339,4.3873,4.3447,4.2731,4.1811,4.1417,4.0966,4.0516,4.0446,4.0349,4.0074,3.9392,3.9351,3.9612,3.9932,4.0271,4.081,4.1349,4.1605,4.1605,4.1605,4.1605,4.159,4.1869,4.2036,4.2092,4.2333,4.2482,4.2482,4.2519,4.25,4.2593,4.2983,4.3225,4.3336,4.3745,4.3986,4.4005,4.4005,4.4005,4.4005,4.4005,4.4005,4.4005,4.4005,4.4005,4.4005,4.4005,4.4005,4.4005,4.4005,4.4005,4.4005,4.4005,4.4005,4.4005,4.4005,4.4005,4.4005,4.4005,4.4116,4.4395,4.4153,4.4674,4.5862,4.5287,4.4859,4.4748,4.4339,4.4042,4.4005,4.4005,4.4005,4.4005,4.4005,4.4005,4.4005,4.4005,4.4005,4.4005,4.3989,4.4005,4.3955,4.3793,4.3644,4.361,4.3457,4.323,4.2922,4.2657,4.246,4.2279,4.2239,4.2198,4.1899,4.1792,4.1609,4.1604,4.1604,4.1604,4.1604,4.1604,4.1582,4.1582,4.1582,4.1538,4.5211,4.5201,4.5191,4.5169,4.5159,4.5159,4.5148,4.5148,4.4938,4.4806,4.4574,4.3932,4.3412,4.3122,4.2421,4.1982,4.1929,4.1779,4.1702,4.1285,4.0387,3.9932,4.0542,4.1192,4.1534,4.1664,4.1813,4.185,4.2017,4.198,4.1735,4.1999,4.2575,4.2872,4.2965,4.3615,4.3819,4.3763,4.3856,4.3838,4.3838,4.3912,4.3949,4.3931,4.3968,4.4005,4.4005,4.4005,4.4005,4.4005,4.4005,4.4005,4.4005,4.4005,4.4005,4.4005,4.4005,4.4005,4.4005,4.4005,4.4005,4.4005,4.4005,4.4005,4.4005,4.4005,4.4005,4.4005,4.4005,4.4283,4.4729,4.4451,4.4469,4.4934,4.4581,4.4191,4.4042,4.4023,4.4023,4.4005,4.4005,4.4005,4.4005,4.4005,4.4005,4.4005,4.4005,4.4005,4.4005,4.4005,4.4005,4.3974,4.3926,4.3892,4.3793,4.3761,4.3577,4.344,4.3159,4.2941,4.2657,4.258,4.256,4.2259,4.1945,4.1766,4.1631,4.1675,4.1631,4.1604,4.1604,4.1604,4.1604,4.1604,4.1604,4.5342,4.5211,4.5201,4.5201,4.5201,4.5201,4.5211,4.5201,4.5129,4.5096,4.5017,4.4821,4.4215,4.3553,4.3302,4.2769,4.2271,4.2074,4.2004,4.1908,4.1523,4.1227,4.1516,4.2118,4.2482,4.2537,4.2965,4.3355,4.3355,4.3243,4.3262,4.3373,4.3466,4.3652,4.3745,4.3893,4.4005,4.4005,4.4005,4.4005,4.4005,4.4005,4.4005,4.4005,4.4005,4.4005,4.4005,4.4005,4.4005,4.4005,4.4005,4.4005,4.4005,4.4005,4.4005,4.4005,4.4005,4.4005,4.4005,4.4005,4.4005,4.4005,4.4005,4.4005,4.4005,4.4005,4.4005,4.4005,4.4005,4.4116,4.4302,4.4228,4.4228,4.4228,4.4172,4.4005,4.4005,4.4005,4.4005,4.4005,4.4005,4.4005,4.4005,4.4005,4.4005,4.4005,4.4005,4.4005,4.4005,4.4005,4.4005,4.4005,4.3974,4.3989,4.3989,4.3989,4.3942,4.3876,4.366,4.3406,4.3087,4.2791,4.2753,4.26,4.2282,4.2071,4.192,4.1874,4.1784,4.1766,4.1675,4.1719,4.1648,4.1604,4.1604,4.5541,4.5445,4.5464,4.5445,4.5464,4.5464,4.5464,4.5427,4.5371,4.5342,4.5304,4.5232,4.4851,4.4292,4.4262,4.3965,4.3376,4.3215,4.3202,4.3176,4.3037,4.2703,4.2522,4.2954,4.3318,4.3336,4.3763,4.3949,4.3968,4.4005,4.4005,4.3949,4.4005,4.4005,4.3968,4.4005,4.4005,4.4005,4.4005,4.4005,4.4005,4.4005,4.4005,4.4005,4.4005,4.4005,4.4005,4.4005,4.4005,4.4005,4.4005,4.4005,4.4005,4.4005,4.4005,4.4005,4.4005,4.4005,4.4005,4.4005,4.4005,4.4005,4.4005,4.4005,4.4005,4.4005,4.4005,4.4005,4.4005,4.4358,4.4934,4.5045,4.4878,4.4655,4.4228,4.4042,4.4005,4.4005,4.4005,4.4005,4.4005,4.4005,4.4005,4.4005,4.4005,4.4005,4.4005,4.4005,4.4005,4.4005,4.4005,4.4005,4.4005,4.4005,4.4005,4.4005,4.4005,4.3974,4.3923,4.3728,4.3491,4.3123,4.3069,4.2959,4.2639,4.2422,4.232,4.2277,4.2279,4.2218,4.2005,4.1852,4.1831,4.1604,4.1604,4.5807,4.58,4.58,4.5807,4.5793,4.58,4.5752,4.5771,4.5602,4.5524,4.549,4.5362,4.5227,4.5232,4.507,4.5145,4.5055,4.4672,4.4642,4.4499,4.4259,4.3768,4.3204,4.3617,4.3872,4.3893,4.3986,4.4005,4.4005,4.4005,4.4005,4.4005,4.4005,4.4005,4.4005,4.4005,4.4005,4.4005,4.4005,4.4005,4.4005,4.4005,4.4005,4.4005,4.4005,4.4005,4.4005,4.4005,4.4005,4.4005,4.4005,4.4005,4.4005,4.4005,4.4005,4.4005,4.4005,4.4005,4.4005,4.4005,4.4005,4.4005,4.4005,4.4005,4.4005,4.4005,4.4079,4.4283,4.4153,4.4896,4.59,4.6308,4.5807,4.5157,4.4488,4.4079,4.4005,4.4005,4.4005,4.4005,4.4005,4.4005,4.4005,4.4005,4.4005,4.4005,4.4005,4.4005,4.4005,4.4005,4.4005,4.4005,4.4005,4.4005,4.4005,4.4005,4.4005,4.3989,4.3989,4.3892,4.3841,4.361,4.3508,4.3335,4.3087,4.2904,4.2829,4.2792,4.2735,4.256,4.2259,4.2195,4.2133,4.1762,4.1604,4.5807,4.5807,4.5807,4.5807,4.5807,4.5807,4.5807,4.58,4.5752,4.5723,4.5723,4.5692,4.5577,4.5427,4.5427,4.5333,4.5234,4.514,4.5019,4.477,4.4527,4.4312,4.4005,4.4155,4.4082,4.4039,4.4005,4.4005,4.4005,4.4005,4.4005,4.4005,4.4005,4.4005,4.402,4.402,4.4005,4.4005,4.4005,4.402,4.4005,4.402,4.402,4.4005,4.4005,4.4005,4.4005,4.4005,4.4005,4.4005,4.4005,4.4005,4.4005,4.4005,4.4005,4.4005,4.4005,4.4005,4.4005,4.4005,4.4005,4.4005,4.4005,4.4005,4.4005,4.4061,4.4358,4.4785,4.5045,4.5509,4.6364,4.5937,4.5677,4.5324,4.4636,4.4061,4.4005,4.4005,4.4005,4.4005,4.4005,4.4005,4.4005,4.4005,4.4005,4.4005,4.4005,4.4005,4.4005,4.4005,4.4005,4.4005,4.4005,4.4005,4.4005,4.4005,4.4005,4.4005,4.4005,4.4005,4.3939,4.3923,4.3777,4.3644,4.3526,4.3388,4.3265,4.3069,4.2959,4.2734,4.256,4.246,4.2297,4.1899,4.1604,4.5807,4.5807,4.5807,4.5807,4.5807,4.5807,4.5807,4.5807,4.5807,4.5807,4.5807,4.5807,4.5757,4.5642,4.5634,4.5558,4.5472,4.5371,4.5223,4.5019,4.4819,4.4694,4.45,4.4402,4.4273,4.4067,4.4005,4.4005,4.4005,4.4005,4.4005,4.4005,4.4005,4.4094,4.4136,4.406,4.4094,4.4177,4.4177,4.4136,4.4017,4.4136,4.4091,4.4036,4.4005,4.4005,4.4005,4.4005,4.4005,4.4005,4.4005,4.4005,4.4005,4.4005,4.4005,4.4005,4.4005,4.4005,4.4005,4.4005,4.4005,4.4023,4.4023,4.4283,4.4488,4.4618,4.5008,4.5621,4.5918,4.6178,4.6921,4.6791,4.6327,4.5769,4.5119,4.4488,4.4135,4.4023,4.4005,4.4005,4.4005,4.4005,4.4005,4.4005,4.4005,4.4005,4.4005,4.4005,4.4005,4.4005,4.4005,4.4005,4.4005,4.4005,4.4005,4.4005,4.4005,4.4005,4.4005,4.4005,4.3989,4.3989,4.3974,4.386,4.3728,4.3761,4.3644,4.3406,4.3301,4.3336,4.3177,4.281,4.248,4.2216,4.1895,4.5807,4.5807,4.5807,4.5807,4.5807,4.5807,4.5807,4.5807,4.5807,4.5807,4.5807,4.5807,4.5793,4.58,4.5793,4.58,4.573,4.5577,4.5343,4.5244,4.514,4.4973,4.4795,4.4669,4.4471,4.4091,4.4017,4.4005,4.4005,4.4005,4.4005,4.4005,4.4064,4.4162,4.4289,4.4246,4.4265,4.4443,4.4452,4.4388,4.4236,4.4374,4.4346,4.4236,4.4196,4.421,4.4192,4.4196,4.4185,4.414,4.4106,4.4091,4.4048,4.402,4.4005,4.4005,4.4005,4.4005,4.4005,4.4023,4.4042,4.4116,4.4228,4.4655,4.5249,4.5528,4.59,4.6438,4.6865,4.7218,4.7776,4.7553,4.7256,4.6717,4.5955,4.5194,4.4599,4.4302,4.4246,4.4005,4.4005,4.4005,4.4005,4.4005,4.4005,4.4005,4.4005,4.4005,4.4005,4.4005,4.4005,4.4005,4.4005,4.4005,4.4005,4.4005,4.4005,4.4005,4.4005,4.4005,4.4005,4.4005,4.4005,4.4005,4.3958,4.3939,4.3923,4.3777,4.3761,4.3923,4.3644,4.3141,4.281,4.2559,4.2236,4.5807,4.5807,4.5807,4.5807,4.5807,4.5807,4.5807,4.5807,4.5807,4.5807,4.5807,4.5807,4.5807,4.5807,4.5807,4.5807,4.5752,4.5618,4.5498,4.5418,4.5323,4.5161,4.5044,4.4954,4.4751,4.4411,4.4206,4.4079,4.4036,4.4005,4.4094,4.4079,4.4236,4.4383,4.4479,4.4546,4.4624,4.4714,4.4739,4.4676,4.4624,4.4656,4.4682,4.4572,4.4559,4.4572,4.4612,4.4637,4.4663,4.4663,4.4663,4.4552,4.4454,4.4244,4.416,4.4116,4.4135,4.4191,4.4283,4.4153,4.4451,4.4841,4.5064,4.5454,4.6048,4.6327,4.6698,4.7367,4.8017,4.8481,4.8649,4.8166,4.772,4.7293,4.681,4.6197,4.59,4.5435,4.4766,4.4302,4.4153,4.4005,4.4005,4.4005,4.4005,4.4005,4.4005,4.4005,4.4005,4.4005,4.4005,4.4005,4.4005,4.4005,4.4005,4.4005,4.4005,4.4005,4.4005,4.4005,4.4005,4.4005,4.4005,4.4005,4.4005,4.3989,4.3989,4.4005,4.3989,4.3974,4.3677,4.3406,4.3141,4.2885,4.2752,4.5807,4.5807,4.5807,4.5807,4.5807,4.5807,4.5807,4.5807,4.5807,4.5807,4.5807,4.5807,4.5807,4.5807,4.5807,4.5807,4.5778,4.5723,4.565,4.5626,4.556,4.5427,4.5323,4.5235,4.5014,4.4781,4.4559,4.436,4.425,4.4393,4.4374,4.4443,4.4559,4.4676,4.4763,4.4788,4.4915,4.4973,4.5007,4.495,4.4812,4.4812,4.48,4.48,4.48,4.4788,4.4788,4.4788,4.4788,4.4788,4.4788,4.4972,4.5134,4.5138,4.4963,4.4783,4.4689,4.4894,4.521,4.5305,4.5547,4.5807,4.5918,4.6308,4.6865,4.72,4.7497,4.8147,4.85,4.889,4.8853,4.8481,4.8166,4.772,4.733,4.6977,4.6587,4.6178,4.5547,4.4785,4.4395,4.4209,4.4005,4.4005,4.4005,4.4005,4.4005,4.4005,4.4005,4.4005,4.4005,4.4005,4.4005,4.4005,4.4005,4.4005,4.4005,4.4005,4.4005,4.4005,4.4005,4.4005,4.4005,4.4005,4.4005,4.4005,4.4005,4.4005,4.4005,4.4005,4.3844,4.3644,4.344,4.323,4.3105,4.5807,4.5807,4.5807,4.5807,4.5807,4.5807,4.5807,4.5807,4.5807,4.5807,4.5807,4.5807,4.5807,4.5807,4.5807,4.5807,4.5807,4.58,4.5773,4.5766,4.5778,4.57,4.5594,4.55,4.5343,4.5058,4.5066,4.483,4.4591,4.4637,4.4751,4.4782,4.4819,4.4973,4.5105,4.5063,4.5126,4.5201,4.5263,4.5159,4.5019,4.4973,4.4973,4.4973,4.4954,4.4996,4.503,4.503,4.5201,4.5316,4.5407,4.562,4.6257,4.6415,4.6282,4.6001,4.5758,4.6044,4.6368,4.6399,4.6394,4.6808,4.6785,4.7198,4.7683,4.7999,4.8203,4.876,4.889,4.889,4.889,4.8872,4.8574,4.8221,4.7961,4.7757,4.7311,4.6921,4.6587,4.5807,4.4971,4.4451,4.4265,4.4005,4.4005,4.4005,4.4005,4.4005,4.4005,4.4005,4.4005,4.4005,4.4005,4.4005,4.4005,4.4005,4.4005,4.4005,4.4005,4.4005,4.4005,4.4005,4.4005,4.4005,4.4005,4.4005,4.4005,4.4005,4.4005,4.4005,4.4005,4.3908,4.3712,4.3594,4.3491,4.5807,4.5807,4.5807,4.5807,4.5807,4.5807,4.5807,4.5807,4.5807,4.5807,4.5807,4.5807,4.5807,4.5807,4.5807,4.5807,4.5807,4.5807,4.5807,4.5807,4.58,4.5793,4.5764,4.5781,4.5552,4.5343,4.5456,4.5253,4.495,4.4861,4.4856,4.4903,4.5074,4.5191,4.5243,4.5332,4.5513,4.5531,4.5531,4.5513,4.5485,4.5467,4.5467,4.5448,4.5524,4.5563,4.5602,4.5669,4.5937,4.6522,4.6599,4.6914,4.739,4.7518,4.7817,4.7742,4.7424,4.6873,4.7212,4.7106,4.7204,4.7738,4.7762,4.8049,4.847,4.8712,4.8787,4.8816,4.8907,4.889,4.8907,4.889,4.8816,4.8742,4.8574,4.8593,4.837,4.7738,4.7386,4.6977,4.6178,4.5175,4.4562,4.4265,4.4005,4.4005,4.4023,4.4079,4.4061,4.4079,4.4023,4.4005,4.4005,4.4005,4.4005,4.4005,4.4005,4.4005,4.4005,4.4005,4.4005,4.4005,4.4005,4.4005,4.4005,4.4005,4.4005,4.4005,4.4005,4.4005,4.4005,4.4005,4.3974,4.3892,4.3793,4.584,4.5807,4.5807,4.5807,4.5807,4.5807,4.5807,4.5807,4.5807,4.5807,4.5807,4.5807,4.5807,4.5807,4.5807,4.5807,4.5807,4.5807,4.5807,4.5807,4.5807,4.5807,4.58,4.5805,4.5685,4.5621,4.5624,4.5593,4.5323,4.5253,4.5243,4.5262,4.5342,4.5429,4.5381,4.5522,4.5577,4.5586,4.5586,4.5594,4.5594,4.5614,4.5614,4.5652,4.6086,4.6278,4.6394,4.6855,4.7124,4.7558,4.7577,4.7933,4.8461,4.8718,4.8973,4.9655,4.9168,4.8808,4.8729,4.8433,4.8597,4.8819,4.8945,4.9089,4.936,4.937,4.9296,4.919,4.9174,4.9092,4.8942,4.889,4.889,4.889,4.889,4.889,4.8853,4.8667,4.8221,4.7813,4.7367,4.642,4.5658,4.5565,4.5361,4.5157,4.5008,4.4841,4.4581,4.4283,4.4172,4.4005,4.4005,4.4005,4.4005,4.4005,4.4005,4.4005,4.4005,4.4005,4.4005,4.4005,4.4042,4.4023,4.4005,4.4005,4.4023,4.4005,4.4005,4.4005,4.4005,4.4005,4.4005,4.3989,4.3908,4.588,4.5821,4.5807,4.5807,4.5807,4.5807,4.5807,4.5807,4.5807,4.5807,4.5807,4.5807,4.5807,4.5807,4.5807,4.5807,4.5807,4.5807,4.5807,4.5807,4.5807,4.5807,4.58,4.5819,4.5798,4.5807,4.5723,4.5687,4.5665,4.5603,4.5549,4.5594,4.5531,4.5577,4.5586,4.5624,4.5691,4.6028,4.6009,4.6133,4.6326,4.6336,4.6317,4.649,4.6817,4.7201,4.7288,4.7654,4.8009,4.8413,4.8432,4.8827,4.951,4.9711,4.9904,5.0353,5.012,5.0008,4.9827,4.9682,4.9851,4.9851,4.9817,4.9626,4.9711,4.9784,4.973,4.948,4.948,4.9315,4.9127,4.9044,4.8993,4.8942,4.889,4.889,4.8872,4.8742,4.8667,4.8407,4.8073,4.7868,4.7293,4.7163,4.6884,4.6438,4.6085,4.5677,4.5287,4.4878,4.4711,4.4618,4.4525,4.4395,4.4042,4.4042,4.4023,4.4079,4.4079,4.4098,4.4135,4.4135,4.4153,4.4116,4.4209,4.4283,4.4469,4.4228,4.4005,4.4005,4.4005,4.4005,4.4005,4.4005,4.4005,4.5956,4.5893,4.584,4.5807,4.5807,4.5807,4.5807,4.5807,4.5807,4.5807,4.5807,4.5807,4.5807,4.5807,4.5807,4.5807,4.5807,4.5807,4.5807,4.5807,4.5807,4.5807,4.5807,4.58,4.5805,4.5795,4.5773,4.5754,4.5726,4.569,4.5648,4.5614,4.5614,4.5594,4.5652,4.5768,4.6105,4.6509,4.6721,4.7144,4.749,4.7682,4.7702,4.7778,4.7904,4.8,4.8029,4.8279,4.8663,4.926,4.9317,4.9567,5.0202,5.0356,5.0539,5.0596,5.0634,5.0525,5.0421,5.0166,5.0012,5.0038,5.0025,4.9936,4.9962,4.987,4.9803,4.979,4.9776,4.9622,4.9469,4.9352,4.9236,4.9158,4.9092,4.9027,4.8993,4.889,4.8834,4.8834,4.8667,4.8389,4.8314,4.8054,4.7757,4.7311,4.6791,4.6382,4.6178,4.5825,4.5621,4.5472,4.5287,4.4915,4.4209,4.4153,4.4358,4.4395,4.4395,4.4358,4.4358,4.4376,4.4748,4.4804,4.4989,4.4952,4.4822,4.4599,4.4376,4.4116,4.4005,4.4005,4.4005,4.4005,4.4005,4.5962,4.59,4.586,4.5847,4.5807,4.5807,4.5807,4.5807,4.5807,4.5807,4.5807,4.5807,4.5807,4.5807,4.5807,4.5807,4.5807,4.5807,4.5807,4.5807,4.5807,4.5807,4.5807,4.58,4.5819,4.5798,4.5803,4.58,4.577,4.573,4.5698,4.5665,4.5689,4.5614,4.5691,4.6067,4.6586,4.6951,4.7385,4.7865,4.7942,4.8096,4.8096,4.8096,4.8759,4.8856,4.899,4.9452,4.9817,5.0067,5.0144,5.0375,5.0596,5.0664,5.0683,5.0683,5.0683,5.0683,5.0683,5.0462,5.041,5.0432,5.0399,5.0333,5.0279,5.0333,5.0214,5.0135,5.0031,4.9936,4.9707,4.9655,4.9579,4.945,4.9346,4.922,4.9158,4.9092,4.8976,4.8973,4.8923,4.876,4.8779,4.8797,4.8481,4.8129,4.759,4.7125,4.6958,4.6735,4.6513,4.629,4.6104,4.5658,4.4971,4.4841,4.4804,4.4785,4.4804,4.4915,4.5064,4.5565,4.5862,4.5844,4.5732,4.5639,4.5435,4.5064,4.4729,4.4395,4.4153,4.4005,4.4005,4.4172,4.4283,4.598,4.5932,4.5925,4.5874,4.5807,4.5807,4.5807,4.5807,4.5807,4.5807,4.5807,4.5807,4.5807,4.5807,4.5807,4.5807,4.5807,4.5807,4.5807,4.5807,4.5807,4.5807,4.5807,4.5807,4.58,4.5819,4.5805,4.5803,4.58,4.5758,4.573,4.574,4.5879,4.592,4.5787,4.6432,4.7096,4.7692,4.8105,4.8702,4.8817,4.8952,4.8971,4.9048,4.9567,4.976,4.9894,5.0212,5.0452,5.0567,5.0606,5.0644,5.0683,5.0683,5.0683,5.0683,5.0683,5.0683,5.0683,5.0683,5.0683,5.0634,5.0644,5.0634,5.0683,5.0683,5.0504,5.038,5.0336,5.0256,5.0012,4.9904,4.9811,4.9674,4.9579,4.9495,4.9465,4.9404,4.9236,4.9106,4.9059,4.9044,4.8909,4.8909,4.8796,4.8537,4.8333,4.7961,4.7813,4.759,4.7348,4.7107,4.6884,4.6364,4.5825,4.5732,4.5639,4.5639,4.5677,4.5825,4.6085,4.6531,4.6791,4.6754,4.6587,4.6364,4.6178,4.5974,4.5324,4.4618,4.4636,4.4859,4.5064,4.5268,4.5138,4.6,4.5997,4.5991,4.5918,4.5814,4.5807,4.5807,4.5807,4.5807,4.5807,4.5807,4.5807,4.5807,4.5807,4.5807,4.5807,4.5807,4.5807,4.5807,4.5807,4.5807,4.5807,4.5807,4.5807,4.5807,4.5807,4.5812,4.5798,4.5815,4.5788,4.5762,4.6092,4.6463,4.6592,4.5825,4.6509,4.774,4.9048,4.924,4.976,5.0125,5.024,5.0221,5.025,5.0337,5.0423,5.05,5.0558,5.0683,5.0683,5.0683,5.0683,5.0683,5.0683,5.0683,5.0683,5.0683,5.0683,5.0683,5.0683,5.0683,5.0683,5.0683,5.0683,5.0712,5.0741,5.0856,5.0861,5.0931,5.0705,5.0439,5.0259,5.0208,4.9968,4.9897,4.979,4.9762,4.9637,4.948,4.9327,4.9334,4.9289,4.9062,4.8926,4.8907,4.887,4.8872,4.8742,4.85,4.8333,4.8036,4.7906,4.7664,4.72,4.6735,4.6568,4.6475,4.6475,4.655,4.6717,4.6847,4.7088,4.7311,4.7497,4.7423,4.72,4.7088,4.6977,4.6308,4.5769,4.59,4.6085,4.6271,4.6215,4.5918,4.5986,4.5997,4.5997,4.5956,4.5867,4.586,4.5847,4.5807,4.5807,4.5807,4.5807,4.5807,4.5807,4.5807,4.5807,4.5807,4.5807,4.5807,4.5807,4.5807,4.5807,4.5807,4.5807,4.5807,4.5807,4.5807,4.5807,4.58,4.5805,4.5894,4.6259,4.6658,4.7345,4.7544,4.7585,4.8067,4.9009,4.9433,4.9875,5.0423,5.0664,5.0683,5.0683,5.0683,5.0683,5.0683,5.0683,5.0683,5.0683,5.0683,5.0683,5.0683,5.0683,5.0683,5.0683,5.0683,5.0683,5.0683,5.0683,5.0683,5.0683,5.0683,5.0683,5.0683,5.0731,5.126,5.1414,5.1625,5.1914,5.1757,5.1542,5.1406,5.1198,5.0533,5.0291,5.0123,5.0006,4.9857,4.9693,4.9594,4.9539,4.9315,4.9092,4.9158,4.9171,4.9075,4.9075,4.8942,4.874,4.8723,4.8593,4.8593,4.8407,4.798,4.7627,4.7471,4.7376,4.7392,4.7473,4.7627,4.7738,4.7824,4.7997,4.8276,4.8147,4.8036,4.7794,4.7553,4.7348,4.7107,4.7051,4.6865,4.6791,4.6624,4.6345,4.5991,4.5989,4.5994,4.5966,4.5932,4.5906,4.586,4.5807,4.5807,4.5807,4.5807,4.5807,4.5807,4.5807,4.5807,4.5807,4.5807,4.5807,4.5807,4.5807,4.5807,4.5807,4.5807,4.5807,4.5807,4.5807,4.5807,4.58,4.5838,4.6129,4.6938,4.7898,4.842,4.8773,4.896,4.9336,4.951,4.9894,5.0423,5.0616,5.0683,5.0683,5.0683,5.0683,5.0683,5.0683,5.0683,5.0683,5.0683,5.0683,5.0683,5.0683,5.0683,5.0683,5.0683,5.0683,5.0683,5.0683,5.0683,5.0683,5.0683,5.0683,5.0683,5.0837,5.1068,5.1587,5.2019,5.2385,5.2942,5.2808,5.2481,5.2365,5.2086,5.1421,5.1081,5.0913,5.0715,5.0581,5.012,4.9999,4.9817,4.9521,4.9249,4.9374,4.948,4.9358,4.9233,4.9106,4.8993,4.8974,4.8976,4.894,4.8905,4.855,4.8377,4.8369,4.831,4.8294,4.8401,4.8506,4.8609,4.8691,4.8857,4.8907,4.8666,4.8426,4.8277,4.8073,4.798,4.7906,4.785,4.7627,4.7348,4.7218,4.7088,4.5982,4.5982,4.5982,4.6,4.5986,4.5925,4.588,4.5807,4.5807,4.5807,4.5807,4.5807,4.5807,4.5807,4.5807,4.5807,4.5807,4.5807,4.5807,4.5807,4.5807,4.5807,4.5807,4.5807,4.5807,4.5807,4.5845,4.5923,4.5962,4.6999,4.8195,4.9092,4.9418,4.98,5.0026,4.998,5.001,5.0385,5.0577,5.0683,5.0683,5.0683,5.0683,5.0683,5.0683,5.0683,5.0683,5.0683,5.0683,5.0683,5.0683,5.0683,5.0683,5.0683,5.0683,5.0683,5.0683,5.0683,5.0683,5.0683,5.0683,5.0702,5.0837,5.1202,5.1702,5.2115,5.276,5.3183,5.3606,5.3453,5.326,5.3222,5.3135,5.2654,5.2221,5.1998,5.1797,5.1397,5.0804,5.0497,5.0294,5.0032,4.9721,4.9721,4.9762,4.9622,4.9506,4.9404,4.928,4.9171,4.9139,4.9042,4.9042,4.9025,4.8978,4.9002,4.9046,4.8961,4.919,4.9328,4.9446,4.9349,4.9225,4.9094,4.896,4.8779,4.8593,4.8612,4.8704,4.863,4.8389,4.837,4.8073,4.8277,4.8296,4.5982,4.5982,4.5982,4.5986,4.5991,4.5932,4.586,4.5807,4.5807,4.5807,4.5807,4.5807,4.5807,4.5807,4.5807,4.5807,4.5807,4.5807,4.5807,4.5807,4.5807,4.5807,4.5807,4.5807,4.5807,4.5826,4.5884,4.6187,4.696,4.8024,4.8894,4.9606,5.0146,5.0565,5.06,5.0488,5.0567,5.0606,5.0693,5.0683,5.0683,5.0683,5.0683,5.0683,5.0683,5.0683,5.0683,5.0683,5.0683,5.0683,5.0712,5.0712,5.0683,5.0683,5.0683,5.0683,5.0683,5.0683,5.0683,5.0702,5.0798,5.1048,5.1318,5.1587,5.2154,5.2904,5.3683,5.4049,5.4395,5.4395,5.4203,5.4087,5.3914,5.353,5.3145,5.2914,5.2645,5.2144,5.1582,5.1341,5.1124,5.0562,5.0247,5.0038,5.005,4.9897,4.979,4.9707,4.9579,4.9461,4.9374,4.9283,4.9296,4.9343,4.9461,4.9523,4.9594,4.9655,4.983,4.987,4.9707,4.9569,4.9411,4.9209,4.901,4.8907,4.8853,4.889,4.889,4.889,4.8723,4.8816,4.889,4.8927,4.8909,4.5982,4.5982,4.5982,4.5994,4.5935,4.5899,4.5854,4.5814,4.5807,4.5807,4.5807,4.5807,4.5807,4.5807,4.5807,4.5807,4.5807,4.5807,4.5807,4.5807,4.5807,4.5807,4.5807,4.5807,4.5807,4.5884,4.6174,4.6631,4.7521,4.8759,4.9765,5.026,5.0758,5.0839,5.0852,5.0763,5.0747,5.074,5.0721,5.0693,5.0693,5.0693,5.0683,5.0683,5.0683,5.0683,5.0683,5.0683,5.0683,5.0798,5.0875,5.1183,5.1183,5.1183,5.1183,5.1221,5.1221,5.1241,5.1318,5.1645,5.1645,5.1875,5.2375,5.2876,5.3203,5.3818,5.4414,5.4914,5.5261,5.5472,5.5203,5.4934,5.4607,5.4299,5.403,5.376,5.3337,5.2876,5.2577,5.2327,5.1842,5.122,5.0829,5.0572,5.0369,5.0302,5.0221,5.0111,4.9949,4.973,4.9651,4.9569,4.9637,4.9707,4.9844,4.9936,4.9962,5.0025,5.0209,5.0186,4.9993,4.9792,4.9638,4.9343,4.8991,4.9035,4.9186,4.8946,4.889,4.9002,4.9169,4.9224,4.9206,4.9076,4.902,4.6017,4.5998,4.5982,4.5969,4.5898,4.5905,4.5867,4.5807,4.5807,4.5807,4.5807,4.5807,4.5807,4.5807,4.5807,4.5807,4.5807,4.5807,4.5807,4.5807,4.5807,4.5807,4.5807,4.5807,4.5807,4.6097,4.6581,4.7154,4.7792,4.9049,5.0318,5.0879,5.0898,5.0901,5.0897,5.0891,5.0838,5.0812,5.0749,5.0721,5.0702,5.0693,5.0683,5.0683,5.0683,5.0683,5.0683,5.0683,5.0683,5.0952,5.1337,5.1769,5.1981,5.2,5.201,5.2,5.2,5.2,5.2145,5.2472,5.2799,5.3241,5.3953,5.4068,5.4184,5.4511,5.5049,5.5318,5.5588,5.5645,5.5434,5.5357,5.5164,5.4972,5.478,5.4626,5.4395,5.3818,5.3241,5.2953,5.249,5.1879,5.1418,5.1177,5.1013,5.0863,5.0804,5.0711,5.0784,5.0551,5.0177,5.0079,5.0044,5.0132,5.0087,5.019,5.0237,5.0336,5.056,5.0732,5.0711,5.0336,4.9901,4.9937,5.0019,4.9589,4.952,4.9539,4.9633,4.9615,4.9726,4.9689,4.9615,4.9632,4.9429,4.6072,4.6084,4.6013,4.5969,4.5892,4.5892,4.5848,4.5807,4.5807,4.5807,4.5807,4.5807,4.5807,4.5807,4.5807,4.5807,4.5807,4.5807,4.5807,4.5807,4.5807,4.5807,4.5845,4.5923,4.5884,4.6078,4.6709,4.7908,4.8952,5.0016,5.0647,5.0879,5.0898,5.0909,5.0901,5.0905,5.088,5.0863,5.0812,5.0758,5.0702,5.0693,5.0683,5.0683,5.0683,5.0683,5.0683,5.0683,5.0683,5.0818,5.1491,5.2164,5.2837,5.2876,5.2895,5.2885,5.2865,5.2885,5.2991,5.3241,5.3453,5.3606,5.401,5.4318,5.4664,5.5126,5.5434,5.5607,5.5684,5.5684,5.5684,5.5684,5.5684,5.5568,5.5491,5.5415,5.5357,5.4684,5.3953,5.353,5.3096,5.2635,5.2154,5.1846,5.1683,5.1615,5.1625,5.1729,5.2199,5.2138,5.1228,5.0971,5.061,5.0568,5.0604,5.0763,5.0988,5.0916,5.1046,5.1219,5.1408,5.1334,5.1212,5.1269,5.1232,5.0757,5.0564,5.0802,5.0821,5.0592,5.0539,5.0629,5.0818,5.0911,5.043,4.6128,4.6091,4.6027,4.5969,4.5898,4.5892,4.5874,4.5814,4.5807,4.5807,4.5807,4.5807,4.5807,4.5807,4.5807,4.5807,4.5807,4.5807,4.5807,4.5807,4.5807,4.5807,4.5884,4.6174,4.6419,4.6651,4.7792,4.903,5.0086,5.0531,5.0859,5.0898,5.0898,5.0898,5.0898,5.0893,5.0905,5.0905,5.0863,5.0801,5.0738,5.073,5.0683,5.0702,5.0683,5.0683,5.0683,5.0683,5.0683,5.1087,5.1856,5.3241,5.3876,5.3991,5.3799,5.378,5.378,5.378,5.3857,5.401,5.4164,5.4395,5.4587,5.5107,5.5177,5.5562,5.556,5.5684,5.5684,5.5684,5.5684,5.5684,5.5684,5.5626,5.5607,5.5568,5.553,5.5261,5.4876,5.4722,5.426,5.3722,5.3241,5.276,5.2606,5.2491,5.2491,5.2538,5.3049,5.353,5.2658,5.2077,5.1863,5.1788,5.1987,5.2035,5.2036,5.1904,5.1625,5.1947,5.2275,5.2499,5.2577,5.2404,5.2167,5.1854,5.1753,5.1917,5.1797,5.1541,5.1565,5.1643,5.1907,5.2151,5.1799,4.6167,4.6109,4.6046,4.5991,4.5941,4.5898,4.5854,4.584,4.5807,4.5807,4.5807,4.5807,4.5807,4.5807,4.5807,4.5807,4.5807,4.5807,4.5807,4.5807,4.5807,4.602,4.6348,4.6677,4.7096,4.7811,4.8856,4.9776,5.0743,5.0898,5.0898,5.0898,5.0898,5.0898,5.0898,5.0898,5.0909,5.0909,5.0877,5.0844,5.0801,5.0748,5.0721,5.0683,5.0683,5.0683,5.0683,5.0683,5.0683,5.1298,5.2202,5.3741,5.4722,5.4876,5.4741,5.4626,5.4626,5.4626,5.4741,5.5088,5.5338,5.5588,5.5684,5.5705,5.5728,5.5717,5.5705,5.5705,5.5705,5.5684,5.5684,5.5684,5.5684,5.5684,5.5684,5.5684,5.5684,5.5665,5.5626,5.5568,5.5164,5.4626,5.4145,5.3664,5.353,5.3414,5.3395,5.3453,5.3645,5.4068,5.3921,5.3659,5.3547,5.351,5.3222,5.301,5.2837,5.2702,5.25,5.2837,5.32,5.3621,5.3649,5.3185,5.2945,5.2978,5.2847,5.2875,5.2711,5.2641,5.282,5.3008,5.312,5.3278,5.3196,4.6202,4.6167,4.6109,4.6084,4.6046,4.595,4.5906,4.5867,4.584,4.5807,4.5807,4.5807,4.5807,4.5807,4.5807,4.5807,4.5807,4.5807,4.5807,4.5807,4.5807,4.6232,4.6793,4.7308,4.8024,4.8875,4.9629,5.0113,5.0801,5.0898,5.0898,5.0898,5.0898,5.0898,5.0898,5.0898,5.0898,5.0917,5.089,5.0858,5.081,5.0757,5.0702,5.0693,5.0683,5.0683,5.0683,5.0683,5.0683,5.1183,5.2279,5.3953,5.4972,5.5472,5.5357,5.5271,5.5291,5.531,5.5455,5.557,5.5735,5.5735,5.5735,5.5756,5.5766,5.5737,5.5745,5.5766,5.5756,5.5695,5.5695,5.5684,5.5684,5.5684,5.5684,5.5684,5.5684,5.5684,5.5665,5.5645,5.553,5.503,5.4568,5.4318,5.4318,5.4241,5.4241,5.4337,5.4722,5.4934,5.503,5.4972,5.4895,5.4222,5.351,5.353,5.3414,5.3318,5.3404,5.3736,5.4213,5.491,5.4825,5.425,5.4339,5.4495,5.432,5.3874,5.4035,5.4069,5.4272,5.4432,5.4432,5.4307,5.4082]}]]